[[{"header":{"parameterUnit":"m.s-1","parameterCategory":1,"la1":30.6,"la2":29.2853,"lo1":-89.7004,"lo2":-87.6739,"dy":0.0162,"dx":0.0183,"nx":112,"ny":82,"refTime":"2024-08-06T06:00:00:Z","depth":0,"parameterNumber":2,"parameterNumberName":"U-component_of_WINDS"},"data":[0.0,0.0,0.0,0.0,0.0,0.0,0.0,0.0,0.0,0.0,0.0,0.0,0.0,0.0,0.0,0.0,0.0,0.0,0.0,0.0,0.0,0.0,0.0,0.0,0.0,0.0,0.0,0.0,0.0,0.0,0.0,0.0,0.0,0.0,0.0,0.0,0.0,0.0,0.0,0.0,0.0,0.0,0.0,0.0,0.0,0.0,0.0,0.0,0.0,0.0,0.0,0.0,0.0,0.0,0.0,0.0,0.0,0.0,0.0,0.0,0.0,0.0,0.0,0.0,0.0,0.0,0.0,0.0,0.0,0.0,0.0,0.0,0.0,0.0,0.0,0.0,0.0,0.0,0.0,0.0,0.0,0.0,0.0,0.0,0.0,0.0,0.0,0.0,0.0,0.0,0.0,-0.8072,-0.912,-0.9402,-0.8513,-0.8053,-0.7455,-0.6816,0.0,0.0,0.0,0.0,0.0,0.0,0.0,0.0,0.0,0.0,0.0,0.0,0.0,0.0,0.0,0.0,0.0,0.0,0.0,0.0,0.0,0.0,0.0,0.0,0.0,0.0,0.0,0.0,0.0,0.0,0.0,0.0,0.0,0.0,0.0,0.0,0.0,0.0,0.0,0.0,0.0,0.0,0.0,0.0,0.0,0.0,0.0,0.0,0.0,0.0,0.0,0.0,0.0,0.0,0.0,0.0,0.0,0.0,0.0,0.0,0.0,0.0,0.0,0.0,0.0,0.0,0.0,0.0,0.0,0.0,0.0,0.0,0.0,0.0,0.0,0.0,0.0,0.0,0.0,0.0,0.0,0.0,0.0,0.0,0.0,0.0,0.0,0.0,0.0,0.0,0.0,0.0,0.0,0.0,0.0,0.0,0.0,0.0,0.0,0.0,0.0,0.0,0.0,0.0,-0.8899,-1.0567,-1.0468,-1.028,-1.0386,-0.9017,-0.8348,-0.8799,0.0,0.0,0.0,0.0,0.0,0.0,0.0,0.0,0.0,0.0,0.0,0.0,0.0,0.0,0.0,0.0,0.0,0.0,0.0,0.0,0.0,0.0,0.0,0.0,0.0,0.0,0.0,0.0,0.0,0.0,0.0,0.0,0.0,0.0,0.0,0.0,0.0,0.0,0.0,0.0,0.0,0.0,0.0,0.0,0.0,0.0,0.0,0.0,0.0,0.0,0.0,0.0,0.0,0.0,0.0,0.0,0.0,0.0,0.0,0.0,0.0,0.0,0.0,0.0,0.0,0.0,0.0,0.0,0.0,0.0,0.0,0.0,0.0,0.0,0.0,0.0,0.0,0.0,0.0,0.0,0.0,0.0,0.0,0.0,0.0,0.0,0.0,0.0,0.0,0.0,0.0,0.0,0.0,0.0,0.0,0.0,0.0,0.0,0.0,0.0,0.0,0.0,0.0,-1.0122,-1.1229,-1.2758,-1.2459,-1.1945,-1.1477,-1.0238,-0.9451,-0.9138,-0.7434,0.0,0.0,0.0,0.0,0.0,0.0,0.0,0.0,0.0,0.0,0.0,0.0,0.0,0.0,0.0,0.0,0.0,0.0,0.0,0.0,0.0,0.0,0.0,0.0,0.0,0.0,0.0,0.0,0.0,0.0,0.0,0.0,0.0,0.0,0.0,0.0,0.0,0.0,0.0,0.0,0.0,0.0,0.0,0.0,0.0,0.0,0.0,0.0,0.0,0.0,0.0,0.0,0.0,0.0,0.0,0.0,0.0,0.0,0.0,0.0,0.0,0.0,0.0,0.0,0.0,0.0,0.0,0.0,0.0,0.0,0.0,0.0,0.0,0.0,0.0,0.0,0.0,0.0,0.0,0.0,0.0,0.0,0.0,0.0,0.0,0.0,0.0,0.0,0.0,0.0,0.0,0.0,0.0,0.0,0.0,0.0,0.0,0.0,0.0,0.0,0.0,0.0,-1.3063,-1.3651,-1.4533,-1.4094,-1.3295,-1.219,-1.1023,-1.0038,-0.9163,-0.7708,0.0,0.0,0.0,0.0,0.0,0.0,0.0,0.0,0.0,0.0,0.0,0.0,0.0,0.0,0.0,0.0,0.0,0.0,0.0,0.0,0.0,0.0,0.0,0.0,0.0,0.0,0.0,0.0,0.0,0.0,0.0,0.0,0.0,0.0,0.0,0.0,0.0,0.0,0.0,0.0,0.0,0.0,0.0,0.0,0.0,0.0,0.0,0.0,0.0,0.0,0.0,0.0,0.0,0.0,0.0,0.0,0.0,0.0,0.0,0.0,0.0,0.0,0.0,0.0,0.0,0.0,0.0,0.0,0.0,0.0,0.0,0.0,0.0,0.0,0.0,0.0,0.0,0.0,0.0,0.0,0.0,0.0,0.0,0.0,0.0,0.0,0.0,0.0,0.0,0.0,0.0,0.0,0.0,0.0,0.0,0.0,0.0,0.0,0.0,0.0,0.0,0.0,-1.4543,-1.5977,-1.5758,-1.4854,-1.3695,-1.2525,-1.0696,-0.9679,-0.9621,-0.746,0.0,0.0,0.0,0.0,0.0,0.0,0.0,0.0,0.0,0.0,0.0,0.0,0.0,0.0,0.0,0.0,0.0,0.0,0.0,0.0,0.0,0.0,0.0,0.0,0.0,0.0,0.0,0.0,0.0,0.0,0.0,0.0,0.0,0.0,0.0,0.0,0.0,0.0,0.0,0.0,0.0,0.0,0.0,0.0,0.0,0.0,0.0,0.0,0.0,0.0,0.0,0.0,0.0,0.0,0.0,0.0,0.0,0.0,0.0,0.0,0.0,0.0,0.0,0.0,0.0,0.0,0.0,0.0,0.0,0.0,0.0,0.0,0.0,0.0,0.0,0.0,0.0,0.0,0.0,0.0,0.0,0.0,0.0,0.0,0.0,0.0,0.0,0.0,0.0,0.0,0.0,0.0,0.0,0.0,0.0,0.0,0.0,0.0,0.0,0.0,0.0,0.0,-1.4115,-1.5149,0.0,-1.5038,-1.4266,-1.2974,-1.188,-1.0845,-0.992,0.0,0.0,0.0,0.0,0.0,0.0,0.0,0.0,0.0,0.0,0.0,0.0,0.0,0.0,0.0,0.0,0.0,0.0,0.0,0.0,0.0,0.0,0.0,0.0,0.0,0.0,0.0,0.0,0.0,0.0,0.0,0.0,0.0,0.0,0.0,0.0,0.0,0.0,0.0,0.0,0.0,0.0,0.0,0.0,0.0,0.0,0.0,0.0,0.0,0.0,0.0,0.0,0.0,0.0,0.0,0.0,0.0,0.0,0.0,0.0,0.0,0.0,0.0,0.0,0.0,0.0,0.0,0.0,0.0,0.0,0.0,0.0,0.0,0.0,0.0,0.0,0.0,0.0,0.0,0.0,0.0,0.0,0.0,0.0,0.0,0.0,0.0,0.0,0.0,0.0,0.0,0.0,0.0,0.0,0.0,0.0,0.0,0.0,0.0,0.0,0.0,0.0,-1.2757,-1.3965,-1.4766,0.0,-1.4955,-1.4204,-1.3021,-1.2124,-1.1131,-1.003,0.0,0.0,0.0,0.0,0.0,0.0,0.0,0.0,0.0,0.0,0.0,0.0,0.0,0.0,0.0,0.0,0.0,0.0,0.0,0.0,0.0,0.0,0.0,0.0,0.0,0.0,0.0,0.0,0.0,0.0,0.0,0.0,0.0,0.0,0.0,0.0,0.0,0.0,0.0,0.0,0.0,0.0,0.0,0.0,0.0,0.0,0.0,0.0,0.0,0.0,0.0,0.0,0.0,0.0,0.0,0.0,0.0,0.0,0.0,0.0,0.0,0.0,0.0,0.0,0.0,0.0,0.0,0.0,0.0,0.0,0.0,0.0,0.0,0.0,0.0,0.0,0.0,0.0,0.0,0.0,0.0,0.0,0.0,0.0,0.0,0.0,0.0,0.0,0.0,0.0,0.0,0.0,0.0,0.0,0.0,0.0,0.0,0.0,0.0,0.0,0.0,0.0,-1.2877,-1.4421,-1.5241,-1.4972,-1.4488,-1.3752,-1.252,-1.1155,-1.0198,0.0,0.0,0.0,0.0,0.0,0.0,0.0,0.0,0.0,0.0,0.0,0.0,0.0,0.0,0.0,0.0,0.0,0.0,0.0,0.0,0.0,0.0,0.0,0.0,0.0,0.0,0.0,0.0,0.0,0.0,0.0,0.0,0.0,0.0,0.0,0.0,0.0,0.0,0.0,0.0,0.0,0.0,0.0,0.0,0.0,0.0,0.0,0.0,0.0,0.0,0.0,0.0,0.0,0.0,0.0,0.0,0.0,0.0,0.0,0.0,0.0,0.0,0.0,0.0,0.0,0.0,0.0,0.0,0.0,0.0,0.0,0.0,0.0,0.0,0.0,0.0,0.0,0.0,0.0,0.0,0.0,0.0,0.0,0.0,0.0,0.0,0.0,0.0,0.0,0.0,0.0,0.0,0.0,0.0,0.0,0.0,0.0,0.0,0.0,0.0,0.0,0.0,0.0,-1.2412,-1.4008,-1.4996,-1.4851,-1.4741,-1.4384,-1.3479,-1.2887,-1.1964,-1.0678,0.0,0.0,0.0,0.0,0.0,0.0,0.0,0.0,0.0,0.0,0.0,0.0,0.0,0.0,0.0,0.0,0.0,0.0,0.0,0.0,0.0,0.0,0.0,0.0,0.0,0.0,0.0,0.0,0.0,0.0,0.0,0.0,0.0,0.0,0.0,0.0,0.0,0.0,0.0,0.0,0.0,0.0,0.0,0.0,0.0,0.0,0.0,0.0,0.0,0.0,0.0,0.0,0.0,0.0,0.0,0.0,0.0,0.0,0.0,0.0,0.0,0.0,0.0,0.0,0.0,0.0,0.0,0.0,0.0,0.0,0.0,0.0,0.0,0.0,0.0,0.0,0.0,0.0,0.0,0.0,0.0,0.0,0.0,0.0,0.0,0.0,0.0,0.0,0.0,0.0,0.0,0.0,0.0,0.0,0.0,0.0,0.0,0.0,0.0,0.0,0.0,0.0,-1.2126,-1.3604,-1.4586,-1.4617,-1.4589,-1.4355,-1.3659,-1.3457,-1.2764,-1.1396,0.0,0.0,0.0,0.0,0.0,0.0,0.0,0.0,0.0,0.0,0.0,0.0,0.0,0.0,0.0,0.0,0.0,0.0,0.0,0.0,0.0,0.0,0.0,0.0,0.0,0.0,0.0,0.0,0.0,0.0,0.0,0.0,0.0,0.0,0.0,0.0,0.0,0.0,0.0,0.0,0.0,0.0,0.0,0.0,0.0,0.0,0.0,0.0,0.0,0.0,0.0,0.0,0.0,0.0,0.0,0.0,0.0,0.0,0.0,0.0,0.0,0.0,0.0,0.0,0.0,0.0,0.0,0.0,0.0,0.0,0.0,0.0,0.0,0.0,0.0,0.0,0.0,0.0,0.0,0.0,0.0,0.0,0.0,0.0,0.0,0.0,0.0,0.0,0.0,0.0,0.0,0.0,0.0,0.0,0.0,0.0,0.0,0.0,0.0,0.0,0.0,0.0,-1.1903,-1.3283,-1.4214,-1.4413,-1.4243,-1.3997,-1.3561,-1.3358,-1.2882,-1.2087,0.0,0.0,0.0,0.0,0.0,0.0,0.0,0.0,0.0,0.0,0.0,0.0,0.0,0.0,0.0,0.0,0.0,0.0,0.0,0.0,0.0,0.0,0.0,0.0,0.0,0.0,0.0,0.0,0.0,0.0,0.0,0.0,0.0,0.0,0.0,0.0,0.0,0.0,0.0,0.0,0.0,0.0,0.0,0.0,0.0,0.0,0.0,0.0,0.0,0.0,0.0,0.0,0.0,0.0,0.0,0.0,0.0,0.0,0.0,0.0,-2.6405,0.0,0.0,0.0,0.0,0.0,0.0,0.0,0.0,0.0,0.0,0.0,0.0,0.0,0.0,0.0,0.0,0.0,0.0,0.0,0.0,0.0,0.0,0.0,0.0,0.0,0.0,0.0,0.0,0.0,0.0,0.0,0.0,0.0,0.0,0.0,0.0,0.0,0.0,0.0,0.0,0.0,-1.1729,-1.3372,-1.4388,-1.4413,-1.4482,-1.4489,-1.4398,-1.4086,-1.3523,-1.2625,-1.1279,0.0,0.0,0.0,0.0,0.0,0.0,0.0,0.0,0.0,0.0,0.0,0.0,0.0,0.0,0.0,0.0,0.0,0.0,0.0,0.0,0.0,0.0,0.0,0.0,0.0,0.0,0.0,0.0,0.0,0.0,0.0,0.0,0.0,0.0,0.0,0.0,0.0,0.0,0.0,0.0,0.0,0.0,0.0,0.0,0.0,0.0,0.0,0.0,0.0,0.0,0.0,0.0,0.0,0.0,0.0,0.0,0.0,0.0,0.0,0.0,-2.741,0.0,0.0,0.0,0.0,0.0,0.0,0.0,0.0,0.0,0.0,0.0,0.0,0.0,0.0,0.0,0.0,0.0,0.0,0.0,0.0,0.0,0.0,0.0,0.0,0.0,0.0,0.0,0.0,0.0,0.0,0.0,0.0,0.0,0.0,0.0,0.0,0.0,0.0,0.0,0.0,-1.2197,-1.3673,-1.4692,-1.4996,-1.5068,-1.5068,-1.5068,-1.4729,-1.4161,-1.3301,-1.2077,0.0,0.0,0.0,0.0,0.0,0.0,0.0,0.0,0.0,0.0,0.0,0.0,0.0,0.0,0.0,0.0,0.0,0.0,0.0,0.0,0.0,0.0,0.0,0.0,0.0,0.0,0.0,0.0,0.0,0.0,0.0,0.0,0.0,0.0,0.0,0.0,0.0,0.0,0.0,0.0,0.0,0.0,0.0,0.0,0.0,0.0,0.0,0.0,0.0,0.0,0.0,0.0,0.0,-3.528,-3.5835,-3.6562,-3.6562,-3.6674,-3.665,-3.3424,-3.1671,-3.0865,0.0,0.0,0.0,0.0,0.0,0.0,0.0,0.0,0.0,0.0,0.0,0.0,0.0,0.0,0.0,0.0,0.0,0.0,0.0,0.0,0.0,0.0,0.0,0.0,0.0,-1.9351,-1.9242,0.0,0.0,0.0,0.0,0.0,0.0,0.0,0.0,0.0,0.0,0.0,0.0,-1.2921,-1.4097,-1.5001,-1.5576,-1.5567,-1.5484,-1.5484,-1.5208,-1.4712,-1.3986,-1.2721,-1.1421,0.0,0.0,0.0,0.0,0.0,0.0,0.0,0.0,0.0,0.0,0.0,0.0,0.0,0.0,0.0,0.0,0.0,0.0,0.0,0.0,0.0,0.0,0.0,0.0,0.0,0.0,0.0,0.0,0.0,0.0,0.0,0.0,-2.4955,-2.486,0.0,0.0,0.0,0.0,0.0,0.0,0.0,0.0,0.0,0.0,0.0,0.0,0.0,-3.4887,-3.5747,-3.7964,-3.8928,-3.8721,-4.0101,-4.0663,-4.0449,-4.0449,-4.0207,-3.9696,-3.8832,0.0,-3.2739,-2.9997,0.0,0.0,0.0,0.0,0.0,0.0,0.0,0.0,0.0,0.0,0.0,0.0,0.0,0.0,0.0,0.0,0.0,0.0,0.0,0.0,0.0,0.0,-2.3601,-2.2518,-2.2139,-2.1766,0.0,-1.767,-1.4934,-1.4466,-1.3257,0.0,0.0,0.0,0.0,0.0,0.0,0.0,-1.3787,-1.4622,-1.5166,-1.5411,-1.5741,-1.6004,-1.6004,-1.5295,-1.4654,-1.4214,-1.2706,-1.1519,-1.0789,-1.0097,0.0,0.0,0.0,0.0,0.0,0.0,0.0,0.0,0.0,0.0,0.0,0.0,0.0,0.0,0.0,0.0,0.0,0.0,0.0,0.0,0.0,0.0,0.0,0.0,0.0,0.0,0.0,0.0,0.0,-2.3613,-2.6275,-2.6165,-2.7323,-2.7852,0.0,0.0,0.0,0.0,0.0,0.0,0.0,0.0,0.0,-3.5832,-3.7294,-3.8308,-3.8871,-4.057,-4.14,-4.137,-4.2081,-4.2448,-4.2525,-4.2289,-4.1685,-4.0852,-4.0076,-3.8391,-3.5937,-3.2967,-3.0185,-2.7547,0.0,0.0,0.0,0.0,-2.3191,-2.3326,-2.5121,-2.5438,0.0,-2.4682,0.0,0.0,0.0,0.0,0.0,0.0,0.0,0.0,0.0,0.0,0.0,-2.4002,-2.3664,-2.331,-2.28,-2.0882,-1.8643,0.0,-1.5478,-1.4098,-1.2484,0.0,0.0,0.0,0.0,0.0,-1.5097,-1.5918,-1.6561,-1.6822,-1.7057,-1.6895,-1.6283,-1.5662,-1.4911,-1.3796,-1.2893,-1.2134,-1.1473,-1.0875,-1.0257,0.0,0.0,0.0,0.0,0.0,0.0,0.0,0.0,0.0,0.0,0.0,0.0,0.0,0.0,0.0,0.0,0.0,0.0,0.0,0.0,0.0,0.0,0.0,0.0,0.0,0.0,0.0,0.0,-2.52,-2.7543,-2.7491,-2.9446,-3.0388,0.0,0.0,0.0,0.0,0.0,0.0,-3.5519,-3.6227,-3.7313,-3.8871,-4.0327,-4.129,-4.1676,-4.2459,-4.293,-4.3062,-4.302,-4.3135,-4.3408,-4.2941,-4.224,-4.1314,-4.0394,-3.9411,-3.8172,-3.5288,-3.2894,-3.0731,-2.8366,-2.6914,-2.6068,-2.591,-2.5575,-2.542,-2.7571,-2.7856,-2.7322,-2.7092,0.0,-2.5329,-2.2965,0.0,0.0,0.0,0.0,-2.2032,-2.3604,-2.3903,-2.3997,-2.4732,-2.4562,-2.4116,-2.3824,-2.2875,-2.1458,0.0,-1.8081,-1.6743,-1.4474,0.0,0.0,0.0,0.0,-1.5754,-1.6672,-1.7268,-1.7761,-1.8149,-1.8193,-1.7709,-1.6539,-1.6036,-1.5149,-1.3611,-1.3149,-1.2649,-1.2206,-1.1703,-1.1202,-1.0617,0.0,0.0,0.0,0.0,0.0,0.0,0.0,0.0,0.0,0.0,0.0,0.0,0.0,0.0,0.0,0.0,0.0,0.0,0.0,0.0,0.0,0.0,0.0,0.0,0.0,0.0,0.0,0.0,0.0,-2.9447,-3.2303,0.0,0.0,0.0,0.0,-3.5042,-3.5196,-3.6607,-3.9809,-3.991,-4.0917,-4.3225,-4.3261,-4.3523,-4.4102,-4.3908,-4.3751,-4.3578,-4.33,-4.3124,-4.292,-4.2458,-4.1895,-4.1296,-4.0792,-3.9727,-3.8253,-3.6473,-3.5047,-3.3666,-3.1289,-2.987,-2.89,-2.7687,-2.7736,-2.8478,-2.8531,-2.8559,-2.8629,-2.9218,-2.7773,-2.5638,-2.4951,-2.361,0.0,0.0,-2.3455,-2.4025,-2.4835,-2.5075,-2.524,-2.5229,-2.4754,-2.4189,-2.42,-2.2713,-2.158,0.0,-2.1314,-2.0172,-1.8496,0.0,-1.7605,-1.6982,-1.6803,-1.7122,-1.8397,-1.8276,-1.8204,-1.8612,-1.8656,-1.8188,-1.6951,-1.6183,-1.5286,-1.4072,-1.3297,-1.2886,-1.2872,-1.2363,-1.1916,-1.1442,-1.0154,0.0,0.0,0.0,0.0,0.0,0.0,0.0,0.0,0.0,0.0,0.0,0.0,0.0,0.0,0.0,0.0,0.0,0.0,0.0,0.0,0.0,0.0,0.0,0.0,0.0,0.0,0.0,0.0,-3.1971,-3.4466,0.0,-3.5144,-3.5789,-3.6895,-3.8443,-3.9073,-4.0325,-4.2507,-4.2398,-4.2844,-4.4011,-4.3922,-4.377,-4.3572,-4.3689,-4.3642,-4.3355,-4.3268,-4.305,-4.275,-4.2279,-4.1717,-4.1065,-4.0514,-3.9817,-3.8999,-3.7941,-3.6713,-3.5316,-3.3824,-3.3031,-3.2566,-3.0864,-3.0294,-3.024,-2.9254,-2.8754,-2.8606,-2.8648,-2.7705,-2.6423,-2.6009,-2.5332,-2.4785,-2.4938,-2.5153,-2.545,-2.5566,-2.5542,-2.5394,-2.5052,-2.4778,-2.4502,-2.4273,-2.3655,-2.3073,-2.2783,-2.1166,-1.9831,-1.959,-1.9213,-1.8862,-1.8555,-1.8935,-1.9366,-1.9724,-1.9863,-1.9897,-1.9715,-1.9608,-1.8733,-1.6945,-1.6338,-1.5291,-1.331,-1.2956,-1.265,-1.2452,-1.2193,-1.1873,-1.1521,-1.0871,-1.0155,0.0,0.0,0.0,0.0,0.0,0.0,0.0,0.0,0.0,0.0,0.0,0.0,0.0,0.0,0.0,0.0,0.0,0.0,0.0,0.0,0.0,0.0,0.0,0.0,0.0,0.0,-3.3847,-3.4101,-3.6592,-3.8101,-3.7646,-3.884,-4.0197,-4.1474,-4.2068,-4.2928,-4.4255,-4.3961,-4.3909,-4.4154,-4.3955,-4.3572,-4.3087,-4.3338,-4.3338,-4.3087,-4.3087,-4.2882,-4.244,-4.1973,-4.1393,-4.0689,-4.0154,-3.9677,-3.9218,-3.8616,-3.7753,-3.6667,-3.5472,-3.5047,-3.4837,-3.296,-3.1904,-3.1056,-2.9483,-2.8702,-2.8444,-2.8262,-2.7721,-2.7157,-2.6843,-2.658,-2.6368,-2.6235,-2.6176,-2.6131,-2.6062,-2.5828,-2.5618,-2.5277,-2.5064,-2.4921,-2.4622,-2.4467,-2.4238,-2.3875,-2.2232,-2.0817,-2.0516,-2.0483,-2.0352,-2.0024,-2.0603,-2.1012,-2.0956,-2.1133,-2.1103,-2.0909,-2.0554,-1.943,-1.7194,-1.6729,-1.5524,-1.3199,-1.2825,-1.2582,-1.2481,-1.2062,-1.1783,-1.1645,-1.1404,-1.077,-0.9824,0.0,0.0,0.0,0.0,0.0,0.0,0.0,0.0,0.0,0.0,0.0,0.0,0.0,0.0,0.0,0.0,0.0,0.0,0.0,0.0,0.0,0.0,0.0,-3.0914,-3.3114,-3.5017,-3.5813,-3.8713,-4.0287,-3.9413,-4.1519,-4.3273,-4.4058,-4.4013,-4.4271,-4.5023,-4.4584,-4.4154,-4.3912,-4.3493,-4.316,-4.2882,-4.2882,-4.2882,-4.2882,-4.2882,-4.2577,-4.1979,-4.1525,-4.0874,-4.0186,-3.9713,-3.9202,-3.8805,-3.8504,-3.8205,-3.7748,-3.6307,-3.5745,-3.5548,-3.3939,-3.2485,-3.1022,-2.9256,-2.8471,-2.8314,-2.83,-2.8039,-2.7789,-2.7523,-2.7268,-2.6943,-2.6726,-2.6465,-2.6213,-2.6213,-2.6062,-2.591,-2.591,-2.5606,-2.5312,-2.5312,-2.5004,-2.4862,-2.5158,-2.4556,-2.3406,-2.1604,-2.1968,-2.2176,-2.1371,-2.165,0.0,-2.2237,-2.208,-2.1889,-2.1879,-2.1467,-2.0195,-1.783,-1.7169,-1.5986,-1.3928,-1.3016,-1.2658,-1.2965,-1.2253,-1.1862,-1.2,-1.1758,-1.125,-1.0464,0.0,0.0,0.0,0.0,0.0,0.0,0.0,0.0,0.0,0.0,0.0,0.0,0.0,0.0,0.0,0.0,0.0,0.0,0.0,0.0,0.0,0.0,-3.3629,-3.3629,-3.5784,-3.7637,-3.8388,-4.0239,-4.1576,-4.1775,-4.3005,-4.4017,-4.4638,-4.4741,-4.4702,-4.4538,-4.4184,-4.3881,-4.3638,-4.3213,-4.2957,-4.2882,-4.2882,-4.2882,-4.2882,-4.2747,-4.2512,-4.221,-4.1622,-4.0972,-4.0302,-3.9714,-3.9206,-3.875,-3.8246,-3.8001,-3.787,-3.7227,-3.7002,-3.6773,-3.4896,-3.2844,-3.0867,-2.9627,-2.9039,-2.8759,-2.8278,-2.7934,-2.7523,-2.7214,-2.7079,-2.6956,-2.6671,-2.6465,-2.6396,-2.627,-2.6131,-2.6062,-2.591,-2.584,-2.5758,-2.5758,-2.5688,-2.5241,-2.4192,-2.3954,-2.3839,-2.3438,-2.2611,-2.2039,-2.2362,-2.2613,0.0,-2.2727,-2.2585,-2.2382,-2.1919,-2.0944,-1.9562,-1.7728,-1.6893,-1.5576,-1.3538,-1.3104,-1.287,-1.2645,-1.2424,-1.2429,-1.2738,-1.2289,-1.1954,0.0,0.0,0.0,0.0,0.0,0.0,0.0,0.0,0.0,0.0,0.0,0.0,0.0,0.0,0.0,0.0,0.0,0.0,0.0,0.0,0.0,0.0,-3.4295,-3.6464,-3.6836,-3.8076,-3.9221,-3.9908,-4.139,-4.246,-4.2776,-4.3845,-4.4658,-4.4953,-4.4852,-4.4636,-4.4318,-4.3899,-4.3575,-4.3422,-4.3087,-4.2882,-4.2882,-4.2882,-4.2862,-4.2786,-4.2649,-4.2251,-4.164,-4.1328,-4.0642,0.0,-3.9348,-3.8882,-3.8399,-3.8059,-3.7828,0.0,0.0,0.0,0.0,0.0,-3.3252,-3.1763,-3.0241,-2.9416,-2.8892,-2.8492,-2.7946,-2.7469,-2.7214,-2.7079,-2.6943,-2.6658,-2.6521,-2.6465,-2.6339,-2.6339,-2.6339,-2.6188,-2.6188,-2.6188,-2.6188,-2.6188,-2.5746,-2.448,-2.4131,0.0,-2.3705,-2.2709,-2.2111,-2.2562,-2.2869,-2.3084,-2.3289,-2.3135,-2.2666,-2.2,-2.1027,-1.9649,-1.7752,-1.6767,0.0,0.0,0.0,-1.292,-1.244,-1.2684,0.0,0.0,0.0,0.0,0.0,0.0,0.0,0.0,-1.1893,-1.197,0.0,0.0,0.0,0.0,0.0,0.0,0.0,0.0,0.0,0.0,0.0,0.0,0.0,0.0,0.0,0.0,-3.7107,-3.9047,-3.9906,-3.9911,-4.0052,-4.0634,-4.2091,-4.3011,-4.2814,-4.4219,-4.5125,-4.508,-4.461,-4.4289,-4.4231,0.0,0.0,0.0,0.0,-4.2882,-4.2882,-4.2882,-4.2824,-4.2631,-4.2609,-4.1984,-4.0896,-4.0802,-4.0103,-3.8914,-3.8805,-3.8455,-3.7943,-3.7886,-3.7727,-3.748,-3.748,-3.7405,-3.7147,-3.4934,-3.3833,-3.312,-3.1048,0.0,0.0,-2.8849,-2.821,-2.7523,-2.7335,-2.7214,-2.7011,-2.6794,-2.6658,-2.6521,-2.6521,-2.6533,-2.6533,-2.6533,-2.6533,-2.6533,-2.6533,-2.6533,-2.6245,-2.537,-2.4564,-2.3829,-2.3065,-2.2402,-2.2161,-2.2335,-2.2606,-2.3018,-2.368,-2.3483,-2.293,-2.2093,0.0,0.0,-1.7796,-1.6774,-1.5823,-1.495,-1.3885,-1.3059,-1.2587,-1.3185,-1.345,-1.3228,-1.3792,-1.4154,-1.4281,-1.4313,-1.4072,-1.3584,-1.2599,-1.2485,0.0,0.0,0.0,0.0,0.0,0.0,0.0,0.0,0.0,0.0,0.0,0.0,0.0,0.0,0.0,-3.6406,-3.8373,-3.9925,-4.074,-4.0755,-4.0684,-4.0712,-4.1975,-4.2852,-4.2794,-4.4282,-4.517,-4.4943,-4.4636,-4.427,-4.3823,-4.3511,0.0,-4.2995,-4.292,-4.2882,-4.2882,-4.2882,-4.2882,-4.2862,0.0,0.0,-4.1516,-4.0784,-4.0187,-3.9625,-3.8821,-3.8391,-3.8278,-3.7759,-3.7539,-3.748,-3.7329,-3.7029,-3.6585,-3.5619,-3.4574,-3.3511,-3.2384,-3.1021,-2.9778,-2.9173,-2.8411,-2.7723,-2.7403,-2.7268,0.0,-2.7011,-2.6807,-2.6658,-2.6658,-2.6589,-2.6533,-2.6533,-2.6533,-2.6533,-2.6533,-2.6533,-2.6094,-2.4624,-2.4192,-2.3683,-2.2467,-2.2025,-2.1915,-2.215,-2.2485,-2.2945,-2.3203,-2.3488,-2.3335,-2.2523,-2.1273,-1.9839,-1.8355,-1.6951,-1.5923,-1.5221,-1.477,-1.4452,-1.4343,-1.4665,-1.4795,-1.4567,-1.4692,-1.4627,-1.4524,-1.4339,-1.4295,-1.422,-1.3877,-1.3725,0.0,0.0,0.0,0.0,0.0,0.0,0.0,0.0,0.0,0.0,0.0,-3.1913,-3.3637,0.0,-3.703,-3.8336,-3.9656,-4.0616,-4.0955,-4.0909,-4.08,-4.0701,-4.1615,-4.2389,-4.2756,-4.3798,-4.4516,-4.4695,-4.4346,-4.3912,-4.3511,-4.3232,-4.3032,-4.2882,-4.2882,-4.2844,-4.2747,-4.2747,-4.2613,-4.2414,-4.2187,-4.1831,-4.1311,-4.0896,-4.0319,-3.9644,-3.9098,-3.8623,-3.8148,-3.77,-3.748,-3.748,-3.7254,-3.7029,-3.6677,-3.5897,-3.4756,-3.347,-3.2577,-3.1076,-2.9468,-2.8983,-2.8277,-2.759,-2.7469,-2.7335,-2.7268,-2.7079,-2.6875,-2.6658,-2.6589,-2.6521,-2.6533,-2.6533,-2.6533,-2.6533,-2.6533,-2.6245,-2.5664,-2.448,-2.4059,-2.3497,-2.2402,-2.2187,-2.2176,-2.2402,-2.2605,-2.2849,-2.3238,-2.3239,-2.2981,-2.209,-2.1005,-1.9843,-1.8577,-1.7228,-1.6174,-1.5475,-1.5352,-1.5279,-1.5142,-1.5321,-1.5335,-1.5094,-1.5101,-1.5107,-1.5018,-1.4771,-1.4677,-1.4566,-1.4491,-1.4561,0.0,0.0,0.0,0.0,0.0,0.0,0.0,0.0,-2.9978,-3.2669,-3.3817,-3.48,-3.6384,-3.7812,-3.9062,-3.9986,-4.0681,-4.1055,-4.0922,-4.0837,-4.0751,-4.0676,-4.1263,-4.198,-4.2737,-4.3333,-4.3923,-4.4516,-4.4065,-4.366,-4.3408,-4.305,-4.2882,-4.2882,-4.2882,-4.2824,-4.267,-4.2609,-4.2391,-4.2044,-4.1917,-4.1613,-4.1071,-4.0913,-4.0368,-3.9506,-3.9295,-3.8701,-3.7786,-3.7583,-3.748,-3.748,-3.7254,-3.7089,-3.6877,-3.6102,-3.4758,-3.3303,-3.2599,-3.0923,-2.908,-2.8822,-2.8223,-2.7603,-2.7523,-2.7403,-2.7335,-2.7146,-2.693,-2.6794,-2.6671,-2.6602,-2.6602,-2.6521,-2.6602,-2.6533,-2.6383,-2.6025,-2.5382,-2.4432,-2.3863,-2.3372,-2.2628,-2.2478,-2.2478,-2.2703,-2.2703,-2.2843,-2.3307,-2.3129,-2.2637,-2.167,-2.0986,-2.0052,-1.8513,-1.7408,-1.6595,-1.6023,-1.5991,-1.5881,-1.5592,-1.5689,-1.5675,-1.5345,-1.5449,-1.5423,-1.5431,-1.5173,-1.5034,-1.4839,-1.4988,-1.5008,-2.4929,-2.6045,-2.717,-2.9033,-2.9039,-2.9886,0.0,0.0,-3.4589,-3.7148,-3.7864,-3.83,-3.9274,-3.9602,-4.0006,-4.0837,-4.1033,-4.1055,-4.0922,-4.08,-4.0665,-4.0535,-4.1174,-4.1915,-4.2717,-4.35,-4.4192,-4.4795,-4.4355,-4.3924,-4.3679,-4.316,-4.2882,-4.2882,-4.2882,-4.2882,-4.2862,-4.267,-4.257,-4.253,-4.2086,-4.1701,-4.1346,-4.0754,-4.0237,-3.9781,-3.8931,-3.8148,-3.7524,-3.7539,-3.748,-3.748,-3.7254,-3.7089,-3.6954,-3.6662,-3.5235,-3.3369,-3.3303,-3.1565,-2.9416,-2.908,-2.8559,-2.7947,-2.7603,-2.7456,-2.7469,-2.7469,-2.7335,-2.7201,-2.7011,-2.6943,-2.6875,-2.6726,-2.6794,-2.6739,-2.6082,-2.5931,-2.5441,-2.3948,-2.3666,-2.3372,-2.2777,-2.2703,-2.2703,-2.2703,-2.2703,-2.2799,-2.3003,-2.3384,-2.3105,-2.1928,-2.1371,-2.0242,-1.8188,-1.7484,-1.7183,-1.7104,-1.7104,-1.687,-1.6293,-1.6316,-1.6093,-1.5681,-1.5636,-1.5582,-1.5431,-1.5173,-1.5233,-1.5519,-1.5563,-1.5377,-2.7065,-2.842,0.0,0.0,-3.2367,-3.3613,-3.6463,-3.6606,-3.6719,-3.884,-3.9316,-3.9606,-4.0439,-4.0591,-4.0706,0.0,-4.1108,-4.1046,-4.0863,-4.0762,-4.0629,-4.0403,-4.065,-4.1361,-4.266,-4.2957,-4.3502,-4.4594,-4.4184,-4.374,-4.3477,-4.3105,-4.2882,-4.2882,-4.2882,-4.2844,-4.2709,-4.253,-4.2351,-4.2187,-4.1892,-4.1631,-4.1498,-4.096,-4.0319,-3.9575,-3.875,-3.8164,-3.7727,-3.7583,-3.748,-3.748,-3.7405,-3.7034,-3.6526,-3.6195,-3.4725,-3.2824,-3.246,-3.0785,-2.8743,-2.8572,-2.8213,-2.7855,-2.759,-2.7523,-2.7469,-2.7403,-2.7335,-2.7268,-2.7011,-2.7024,-2.6943,-2.6875,-2.6943,-2.6807,-2.607,-2.5639,-2.5087,-2.3959,-2.3519,-2.315,-2.2927,-2.2852,-2.2852,-2.2852,-2.2852,-2.2927,-2.3001,-2.3101,-2.2632,-2.1312,-2.1002,-2.0105,-1.8104,-1.7777,-1.7435,-1.6976,-1.6961,-1.6806,-1.6574,-1.6476,-1.6237,-1.5914,-1.5741,-1.5575,-1.5431,-1.5347,-1.5329,-1.5297,-1.5711,-1.5672,-2.8238,0.0,0.0,-3.3055,-3.4814,-3.6411,-3.7652,-3.7948,-3.8313,-3.9629,-3.9901,-3.9995,-4.0359,-4.0611,-4.0765,-4.074,-4.0925,-4.0998,-4.0791,-4.0699,-4.0552,-4.0325,-4.031,-4.096,-4.2641,-4.261,-4.3052,-4.4433,-4.4095,-4.3693,-4.3391,-4.3069,-4.2882,-4.2882,-4.2882,-4.2824,-4.267,-4.245,-4.2187,-4.2019,-4.1736,-4.1604,-4.1604,-4.1071,-4.0252,-3.9189,-3.8694,-3.8262,-3.7886,-3.7685,-3.7583,-3.748,-3.748,-3.7105,-3.6366,-3.5739,-3.4228,-3.2467,-3.1936,-3.054,-2.8853,-2.8495,-2.8235,-2.8026,-2.7656,-2.7523,-2.7469,-2.7403,-2.7335,-2.7335,-2.7146,-2.7079,-2.7146,-2.7079,-2.6943,-2.6645,-2.5861,-2.5217,-2.4504,-2.3813,-2.3298,-2.3001,-2.3001,-2.3001,-2.3001,-2.3001,-2.3001,-2.3001,-2.3001,-2.2542,-2.189,-2.0957,-2.0429,-1.9607,-1.8338,-1.8188,-1.7821,-1.7062,-1.7046,-1.6916,-1.6738,-1.6566,-1.6402,-1.6162,-1.5914,-1.5665,-1.5499,-1.5423,-1.5391,-1.5317,-1.5864,-1.607,0.0,0.0,-3.229,-3.4101,-3.5812,-3.7546,-3.9408,-3.9824,-3.9824,-3.9882,-3.9899,-3.9641,-3.8836,-3.9361,-3.9925,-3.9858,-4.0486,-4.094,-4.0731,-4.0584,-4.0442,-4.0328,-4.031,-4.096,0.0,-4.2794,-4.3297,-4.4511,-4.4261,-4.3924,-4.3513,-4.3123,-4.2882,-4.2882,-4.2882,-4.29,-4.2882,-4.2512,-4.2287,-4.2287,-4.1823,-4.1604,-4.156,-4.0802,-3.9851,-3.8805,-3.8805,-3.8455,-3.7886,-3.7886,-3.7727,-3.748,-3.748,-3.7373,-3.7006,-3.5482,-3.3998,-3.2704,-3.2526,-3.1604,-3.0269,-2.9317,-2.8939,-2.8748,-2.7776,-2.7523,-2.7523,-2.7523,-2.7456,-2.7469,-2.7335,-2.7403,-2.7469,-2.7335,-2.685,-2.6208,-2.5441,-2.4707,-2.3902,-2.3139,-2.3001,-2.3001,-2.3001,-2.3001,-2.3001,-2.3001,-2.3001,-2.3001,-2.3001,-2.2004,-2.1242,-2.1185,-1.9715,-1.886,-1.9132,-1.8837,-1.8338,-1.7928,-1.7844,-1.7513,-1.6746,-1.6648,-1.6566,-1.6394,-1.6162,-1.5997,-1.565,-1.5506,-1.5592,-1.5906,-1.6221,-1.6453,0.0,0.0,-3.4987,-3.6794,-3.8114,-3.9252,-4.0429,-4.0273,-3.9743,-3.9157,-3.8588,-3.7901,-3.7038,-3.758,-3.8358,-3.8902,-3.9648,-4.0278,-4.0704,-4.1119,-4.1097,-4.0384,-4.1285,0.0,0.0,0.0,0.0,-4.4395,-4.3679,-4.323,-4.3355,-4.3069,-4.2882,-4.2882,-4.2882,-4.2862,-4.2709,-4.245,-4.2205,-4.2019,-4.148,-4.1053,-4.0802,-4.0286,-3.9592,-3.8805,-3.86,-3.8303,-3.7886,-3.7685,-3.7583,-3.748,-3.748,-3.6896,-3.5896,-3.5326,-3.4151,-3.2767,-3.2056,-3.1235,-3.0329,-2.947,-2.9219,-2.9044,-2.8183,-2.7802,-2.7723,-2.7723,-2.759,-2.7456,-2.7469,-2.7469,-2.7456,-2.7469,-2.7255,-2.6769,-2.5581,-2.5087,-2.4504,-2.3213,-2.3001,-2.3001,-2.3001,-2.3001,-2.3001,-2.3001,-2.3001,-2.3001,-2.3001,-2.2317,-2.1634,-2.1242,-2.0313,-1.9445,-1.8959,-1.8716,-1.8481,-1.7983,-1.7746,-1.7442,-1.7155,-1.6902,-1.6648,-1.6394,-1.6312,-1.6154,-1.5997,-1.5922,-1.5808,-1.5844,-1.6977,-1.7469,0.0,-3.511,-3.6825,-3.861,-3.9707,-4.039,-4.0624,-4.0036,-3.9016,-3.7512,-3.6513,-3.5632,-3.4771,-3.5315,-3.6406,-3.7887,-3.9024,-4.0064,-4.1082,-4.1835,-4.1998,-4.1281,-4.2145,-4.2908,0.0,0.0,0.0,-4.4269,-4.361,-4.3171,-4.3232,-4.3032,-4.2882,-4.2882,-4.2824,-4.2786,-4.2709,-4.2351,-4.2019,-4.1805,-4.1255,-4.0772,-4.04,-4.007,-3.9573,-3.8985,-3.8782,-3.8488,-3.8075,-3.7876,-3.77,-3.7449,-3.7196,-3.6548,-3.5695,-3.5021,-3.4171,-3.3209,-3.2211,-3.1422,-3.0689,-2.9889,-2.9484,-2.9121,-2.8327,-2.8,-2.7934,-2.7934,-2.7789,-2.7669,-2.7656,-2.759,-2.759,-2.7523,-2.7108,-2.6414,-2.5511,-2.4874,-2.4154,-2.3213,-2.3001,-2.3075,-2.3224,-2.3298,-2.3372,-2.3224,-2.3224,-2.315,-2.3001,-2.2241,-2.1634,-2.1242,-2.0391,-1.9618,-1.9002,-1.8922,-1.8683,-1.8282,-1.7878,-1.7554,-1.74,-1.7212,-1.7123,-1.6952,-1.6878,-1.6804,-1.6648,-1.6252,-1.5997,-1.5839,-1.7063,-1.773,-3.441,-3.6171,-3.789,-3.9551,-4.0507,-4.0837,-4.0013,-3.9112,-3.7721,-3.5105,-3.3875,-3.2994,0.0,0.0,-3.4164,-3.6735,-3.8551,-4.0174,-4.178,-4.2628,-4.3018,0.0,0.0,0.0,0.0,0.0,0.0,-4.4205,0.0,-4.3605,-4.3141,-4.2956,-4.2882,-4.2882,-4.2709,-4.2709,-4.2882,-4.2251,-4.1805,-4.1604,-4.1163,-4.0772,-4.04,-4.002,-3.9642,-3.9272,-3.9272,-3.8947,-3.8391,-3.8391,-3.8049,-3.7417,-3.6738,-3.6437,-3.6159,-3.4691,-3.4101,-3.3889,-3.2975,-3.2176,-3.1407,-3.0526,-2.9813,-2.9184,-2.8392,-2.8145,-2.8079,-2.8079,-2.8079,-2.8079,-2.7855,-2.7776,-2.7789,-2.759,-2.6427,-2.5382,-2.5312,-2.4154,-2.315,-2.3075,-2.3075,-2.315,-2.3593,-2.397,-2.4043,-2.3677,-2.3593,-2.3446,-2.3075,-2.1928,-2.1165,-2.1165,-2.0079,-1.9301,-1.9301,-1.9301,-1.9152,-1.87,-1.8282,-1.7797,-1.7392,-1.7772,-1.7997,-1.7917,-1.7772,-1.7691,-1.7619,-1.6656,-1.6087,-1.6095,-1.6523,-1.7274,-3.7128,-3.8846,-4.0232,-4.068,-4.0504,-3.9974,-3.9131,-3.7743,-3.5925,-3.3309,-3.2075,-3.1018,-2.9539,0.0,0.0,-3.4974,-3.717,0.0,-4.1615,-4.2514,0.0,0.0,0.0,-4.4454,-4.389,-4.423,0.0,0.0,-4.3373,-4.2982,-4.2939,-4.2938,-4.2882,-4.2882,-4.2844,-4.2786,-4.267,-4.2169,-4.1805,-4.1604,-4.0913,-4.0497,-4.04,-3.9764,-3.9379,-3.9272,-3.904,-3.8711,-3.8391,-3.8132,-3.7801,-3.7464,-3.7275,-3.6579,-3.5616,-3.518,-3.4353,-3.3332,-3.3052,-3.2703,-3.212,-3.0955,-3.0375,-2.9979,-2.883,-2.8392,-2.8235,-2.8235,-2.8197,-2.8079,-2.8013,-2.7934,-2.7776,-2.7723,-2.7108,-2.6414,-2.5861,-2.5229,-2.4527,-2.397,-2.3897,-2.3897,-2.4043,-2.4127,-2.42,-2.4043,-2.3824,-2.3446,-2.3075,-2.1928,-2.1165,-2.1165,-2.0079,-1.9301,-1.9301,-1.9301,-1.9152,-1.87,-1.8282,-1.7797,-1.7392,-1.7772,-1.7683,-1.7049,-1.7602,-1.7602,-1.6976,-1.6656,-1.6484,-1.6327,-1.7414,-1.8102,-3.8805,-4.0111,-4.1103,-4.1103,-4.0477,-3.944,-3.7836,-3.6116,-3.4027,-3.104,-2.975,0.0,-2.7899,0.0,0.0,0.0,0.0,0.0,-4.1506,-4.2822,-4.3613,0.0,-4.4745,0.0,-4.4505,-4.4775,-4.4714,0.0,-4.3534,-4.3129,-4.2902,-4.2882,-4.2882,-4.2882,-4.2824,-4.2631,-4.231,-4.2145,-4.1934,-4.1604,-4.0802,-4.04,-4.0351,-3.9661,-3.9272,-3.9272,0.0,-3.8876,-3.8544,-3.8262,-3.796,-3.7621,-3.6859,-3.609,-3.5315,-3.4699,-3.3934,-3.3203,-3.3203,-3.3043,-3.2578,-3.113,-3.0435,-2.9903,-2.8894,-2.8509,-2.843,-2.843,-2.8392,-2.8262,-2.8197,-2.8105,-2.7973,-2.7656,-2.7095,-2.6414,-2.5791,-2.5241,-2.4683,-2.4261,-2.4345,-2.449,-2.449,-2.4622,-2.4611,-2.449,-2.4116,-2.3751,-2.3298,-2.208,-2.1165,-2.1165,-2.0079,-1.9301,-1.9301,-1.9539,-1.939,-1.8772,-1.8514,-1.8103,-1.7392,-1.8167,-1.8318,-1.7836,-1.863,-1.8718,-1.7844,-1.7448,-1.7204,-1.7123,-1.7409,-1.8196,-3.9797,-4.0574,-4.1077,-4.096,-4.0196,-3.8804,-3.6247,-3.4315,-3.2129,-2.881,0.0,-2.6958,-2.6859,-2.7596,-2.9299,-3.2575,0.0,-3.788,-4.1382,-4.3061,-4.4295,-4.5285,-4.5338,-4.5297,-4.5275,-4.5038,-4.4662,-4.4117,-4.3924,-4.3557,-4.292,-4.2882,-4.2882,-4.2882,-4.2747,-4.2432,-4.2019,-4.2228,-4.2103,-4.1648,-4.0896,-4.0497,-4.04,-3.9713,-3.9325,-3.9272,0.0,0.0,-3.8805,-3.8544,-3.8246,-3.7758,-3.6197,-3.553,-3.5236,-3.3925,-3.3372,-3.3309,-3.3309,-3.3203,-3.2866,-3.1246,-3.0225,-2.9518,-2.883,-2.8587,-2.8587,-2.8587,-2.8587,-2.8587,-2.8365,-2.8287,-2.8157,-2.759,-2.6756,-2.6057,-2.5594,-2.4897,-2.4334,-2.4334,-2.4634,-2.4861,-2.4861,-2.5111,-2.5182,-2.4921,-2.449,-2.4043,-2.3751,-2.2231,-2.1165,-2.1165,-2.0157,-1.946,-1.946,-2.0001,-1.9932,-1.9002,-1.9054,-1.8727,-1.7708,-1.8798,-1.9423,-1.9335,-2.006,-2.006,-1.9335,-1.839,-1.7997,-1.7997,-1.7131,-1.7813,-4.0474,-4.0999,-4.0935,-4.0213,-3.8868,-3.7053,-3.4432,-3.2541,0.0,0.0,0.0,-2.6778,-2.6066,-2.722,0.0,-3.1651,0.0,0.0,0.0,0.0,-4.2909,0.0,0.0,0.0,0.0,0.0,0.0,0.0,0.0,-4.3387,-4.292,-4.2882,-4.2882,-4.2882,-4.2862,-4.2747,-4.2472,-4.2512,-4.231,-4.1831,-4.1418,-4.0943,-4.04,-3.9969,-3.959,-3.9272,-3.9272,0.0,-3.8805,-3.875,-3.8399,-3.7806,-3.6949,-3.6126,-3.53,-3.4431,-3.3767,-3.3309,-3.3309,-3.3203,-3.285,-3.1347,-3.0704,-3.024,-2.9008,-2.8587,-2.8587,-2.8587,-2.8587,-2.8587,-2.8587,-2.843,-2.8287,-2.8157,-2.7364,-2.6577,-2.6508,-2.5734,-2.5099,-2.5099,-2.517,-2.5182,-2.5182,-2.5241,-2.5312,-2.5241,-2.4622,-2.42,-2.4116,-2.2371,-2.1165,-2.1165,-2.0547,-2.001,-2.001,-2.0624,-2.0769,-2.0197,-2.0041,-1.9737,-1.9204,-1.9913,-1.9982,-1.9335,-2.006,-2.006,-1.9335,-1.839,-1.7997,-1.7997,-1.7131,-1.7119,-4.0216,-4.0759,-4.0893,-4.0015,-3.8534,-3.6504,-3.3428,0.0,0.0,0.0,0.0,-2.6205,-2.5788,0.0,0.0,0.0,0.0,0.0,0.0,0.0,0.0,0.0,0.0,0.0,0.0,0.0,0.0,0.0,0.0,-4.3249,-4.292,-4.2882,-4.2882,-4.2882,-4.2882,-4.2824,-4.2609,-4.249,-4.2269,-4.1874,-4.1436,-4.1007,-4.0707,-4.0171,-3.9798,-3.959,-3.9379,0.0,-3.904,-3.8711,-3.8432,-3.8035,-3.6637,-3.5792,-3.5268,-3.4178,-3.3577,-3.3309,-3.3309,-3.3256,-3.3027,-3.186,-3.1174,-3.0555,-2.9484,-2.8958,-2.8587,-2.8587,-2.8587,-2.8587,-2.8587,-2.8522,-2.8379,-2.8105,-2.7242,-2.6371,-2.6013,-2.5594,-2.5312,-2.5312,-2.5312,-2.5312,-2.5312,-2.5312,-2.5312,-2.5312,-2.4683,-2.42,-2.42,-2.2692,-2.1634,-2.1634,-2.1088,-2.0702,-2.0702,-2.1318,-2.1308,-2.0575,-2.0585,-2.0362,-1.9599,-2.0148,-2.0304,-1.9894,-2.0779,-2.0769,-1.9904,-1.9502,-1.9107,-1.863,-1.7764,-1.7565,-3.9702,-4.0444,-4.0854,-3.9797,-3.8252,-3.6102,-3.2611,-3.0466,0.0,0.0,-2.5662,-2.5693,-2.569,0.0,0.0,0.0,0.0,0.0,0.0,0.0,0.0,0.0,0.0,0.0,0.0,0.0,0.0,0.0,0.0,0.0,-4.292,-4.2882,-4.2882,-4.2882,-4.2882,-4.2806,-4.2688,-4.245,-4.2246,-4.1977,-4.1436,-4.1117,-4.0977,-4.0419,-4.0037,-3.9901,-3.959,0.0,0.0,-3.8782,-3.8407,-3.7979,-3.6262,-3.5411,-3.4999,-3.3767,-3.3309,-3.3309,-3.3309,-3.3309,-3.3187,-3.2571,-3.1634,-3.06,-2.9979,-2.9261,-2.8587,-2.8587,-2.8587,-2.8587,-2.8587,-2.8587,-2.8457,-2.7776,-2.6905,-2.6013,-2.5453,-2.5312,-2.5312,-2.5312,-2.5312,-2.5312,-2.5312,-2.5312,-2.5312,-2.5312,-2.4754,-2.4273,-2.42,-2.3075,-2.2187,-2.2101,-2.1558,-2.1165,-2.1011,-2.1558,-2.1548,-2.0663,-2.1068,-2.076,-1.9747,-2.0304,-2.0537,-2.0459,-2.1175,-2.1252,-2.0779,-2.0615,-2.006,-1.9256,-1.839,-1.8079,-3.939,-4.0444,-4.0695,-3.9037,-3.7355,-3.5206,-3.1709,0.0,0.0,-2.6058,-2.5698,-2.5703,-2.5693,-2.5765,0.0,0.0,0.0,0.0,0.0,0.0,0.0,0.0,0.0,0.0,0.0,0.0,0.0,0.0,0.0,0.0,-4.2882,-4.2882,-4.2882,-4.2882,-4.2882,-4.2882,-4.2882,-4.267,-4.249,-4.2246,-4.1977,-4.1525,-4.1024,-4.0931,-4.0549,-3.9901,-3.9849,0.0,0.0,-3.9218,-3.8482,-3.7307,-3.6546,-3.546,-3.4304,-3.3577,-3.3309,-3.3309,-3.3309,-3.3309,-3.3309,-3.324,-3.217,-3.0763,-3.004,-2.9261,-2.8587,-2.8587,-2.8587,-2.8587,-2.8587,-2.8587,-2.8327,-2.731,-2.6633,-2.6013,-2.5453,-2.5312,-2.5312,-2.5312,-2.5312,-2.5312,-2.5312,-2.5312,-2.5312,-2.5312,-2.4981,-2.4646,-2.4273,-2.3298,-2.2478,-2.2101,-2.1558,-2.0934,-2.0313,-2.0934,-2.1242,-2.1155,-2.1482,-2.1242,-2.0197,-2.0518,-2.0692,-2.0459,-2.0547,-2.0934,-2.1655,-2.0857,-2.006,-1.9256,-1.839,-1.7619,-3.7136,-3.8458,-3.9238,-3.8015,-3.6026,-3.3741,-3.1295,0.0,-2.7074,-2.5892,-2.5632,-2.5644,-2.5636,-2.5644,-2.5956,0.0,-2.7857,-2.9574,0.0,0.0,0.0,0.0,0.0,0.0,0.0,0.0,0.0,0.0,0.0,0.0,-4.2882,-4.2882,-4.2882,-4.2882,-4.2786,-4.2709,-4.2709,-4.2333,-4.2145,-4.2061,-4.1849,-4.1453,-4.0977,-4.0772,-4.0402,-3.9901,-3.9642,0.0,0.0,-3.8616,-3.7932,-3.7161,-3.5884,-3.4936,-3.4209,-3.3546,-3.3309,-3.3309,-3.3309,-3.3309,-3.3309,-3.3309,-3.2351,-3.113,-3.0837,-3.0208,-2.9484,-2.9022,-2.8908,-2.8844,-2.8651,-2.8392,-2.7921,-2.7175,-2.6564,-2.6013,-2.5453,-2.5312,-2.5312,-2.5312,-2.5312,-2.5312,-2.5312,-2.5312,-2.5312,-2.5312,-2.4611,-2.3959,-2.3717,-2.2692,-2.1721,-2.1021,-2.1088,-2.1088,-2.0857,-2.1088,-2.1165,-2.1165,-2.1252,-2.0934,-2.0197,-2.0207,-2.0129,-1.9816,-1.9816,-1.9972,-2.0294,-2.0459,-1.9825,-1.855,-1.8709,-1.7997,-3.4925,-3.6426,-3.7512,-3.6643,-3.4656,-3.245,0.0,0.0,-2.6651,-2.5774,-2.56,-2.56,-2.56,-2.5604,-2.5691,-2.594,-2.705,-2.8666,-3.0837,0.0,0.0,0.0,0.0,0.0,0.0,0.0,0.0,0.0,0.0,0.0,0.0,-4.2882,-4.2882,-4.2882,-4.2747,-4.267,-4.2609,-4.2228,-4.1977,-4.1892,-4.1692,-4.1408,-4.0977,-4.0724,-4.0336,-3.9901,0.0,0.0,0.0,-3.8167,-3.7425,-3.6669,-3.5347,-3.4569,-3.4048,-3.352,-3.3309,-3.3309,-3.3309,-3.3309,-3.3309,-3.3309,-3.2602,-3.1721,-3.1607,-3.0852,-2.9979,-2.9401,-2.9162,-2.9035,-2.8716,-2.8183,-2.7643,-2.7108,-2.6564,-2.6013,-2.5453,-2.5312,-2.5312,-2.5312,-2.5312,-2.5312,-2.5312,-2.5312,-2.5312,-2.5312,-2.4599,-2.402,-2.379,-2.2606,-2.1471,-2.0692,-2.0615,-2.0624,-2.0624,-2.0624,-2.0624,-2.0624,-2.0702,-2.0391,-1.9747,-1.9668,-1.9502,-1.9107,-1.9027,-1.9027,-1.9335,-1.9904,-1.9423,-1.7997,-1.863,-1.8158,-3.319,-3.4652,-3.5719,-3.4847,-3.3303,-3.1565,0.0,-2.8112,-2.6651,-2.578,-2.5604,-2.5601,-2.5601,-2.5604,-2.5878,-2.6748,-2.7458,-2.906,-3.2401,0.0,0.0,0.0,0.0,0.0,0.0,0.0,0.0,0.0,0.0,0.0,0.0,-4.2882,-4.2882,-4.2882,-4.29,-4.2824,-4.2609,-4.2409,-4.2145,-4.1892,-4.1692,-4.1408,-4.1024,-4.0977,-4.0597,0.0,0.0,0.0,0.0,-3.8212,-3.7197,-3.5611,-3.5289,-3.4594,-3.3658,-3.3414,-3.3309,-3.3309,-3.3309,-3.3309,-3.3309,-3.3309,-3.3011,-3.2477,-3.2048,-3.0822,-2.9602,-2.9602,-2.9352,-2.9035,-2.8716,-2.8183,-2.7643,-2.7108,-2.6564,-2.6013,-2.5453,-2.5312,-2.5312,-2.5312,-2.5312,-2.5312,-2.5312,-2.5312,-2.5312,-2.5312,-2.5312,-2.5182,-2.4861,-2.3327,-2.2103,-2.1735,-2.0294,-1.9301,-1.9301,-1.9301,-1.9301,-1.9301,-1.9854,-1.9775,-1.8772,-1.8895,-1.8886,-1.8736,-1.8247,-1.847,-1.9335,-1.9344,-1.8868,-1.7997,-1.7997,-1.7521,-3.0438,-3.1488,-3.2286,-3.2,-3.0614,-2.9195,-2.8631,-2.7219,-2.5924,-2.5657,-2.5604,-2.5609,-2.5609,-2.5604,-2.6048,-2.7438,-2.825,0.0,0.0,0.0,0.0,0.0,0.0,0.0,0.0,0.0,0.0,0.0,0.0,0.0,0.0,-4.1868,-4.1759,-4.2864,-4.2631,-4.245,-4.2409,-4.2019,-4.178,-4.1675,-4.1363,-4.096,-4.0563,-4.0353,0.0,0.0,0.0,0.0,0.0,-3.7119,-3.6273,-3.5545,-3.4938,-3.4295,-3.371,-3.3591,-3.345,-3.3309,-3.3309,-3.3309,-3.3309,-3.3309,-3.278,-3.2089,-3.1936,-3.1379,-3.0628,-3.0111,-2.9679,-2.9415,-2.9289,-2.8417,-2.755,-2.7351,-2.6471,-2.5523,-2.5312,-2.5312,-2.5312,-2.5312,-2.5312,-2.5312,-2.5312,-2.5312,-2.5312,-2.5312,-2.4862,-2.442,-2.4143,-2.3158,-2.2328,-2.1735,-2.0904,-2.007,-1.9381,-1.9696,-1.9775,-1.9301,-1.9854,-1.9784,-1.878,-1.8772,-1.8594,-1.8193,-1.8112,-1.8023,-1.8014,-1.8567,-1.8559,-1.7997,-1.7367,-1.6968,0.0,-2.9078,-2.9719,-2.9719,-2.867,-2.766,-2.766,-2.6592,-2.5601,-2.5601,-2.5601,-2.5595,-2.5577,-2.5589,-2.5907,-2.6865,-2.7943,0.0,0.0,0.0,0.0,0.0,0.0,0.0,0.0,0.0,0.0,0.0,0.0,0.0,0.0,-4.1216,-4.0963,-4.1959,-4.198,-4.2065,-4.2287,-4.1892,-4.1692,-4.1604,-4.1363,-4.0868,-4.0199,-3.9829,0.0,0.0,0.0,0.0,0.0,-3.639,-3.5729,-3.5284,-3.4726,-3.43,-3.4,-3.3745,-3.3607,-3.345,-3.3361,-3.3309,-3.3309,-3.3309,-3.2672,-3.1823,-3.1537,-3.1204,-3.094,-3.0294,-2.9927,-2.9741,-2.9602,-2.8753,-2.7829,-2.755,-2.6607,-2.5652,-2.5382,-2.5312,-2.5312,-2.5312,-2.5312,-2.5312,-2.5312,-2.5312,-2.5312,-2.5312,-2.4862,-2.4409,-2.3963,-2.3147,-2.2328,-2.1583,-2.076,-2.0079,-1.9381,-1.9618,-1.9696,-1.9301,-1.9608,-1.9539,-1.8922,-1.8772,-1.8531,-1.8282,-1.8121,-1.7878,-1.7635,-1.8031,-1.8023,-1.7772,-1.7057,-1.673,0.0,-2.7349,-2.7926,-2.7926,-2.7369,-2.6805,-2.6805,-2.6184,0.0,-2.5601,-2.5601,-2.5602,-2.5587,-2.5583,-2.5622,-2.5732,0.0,0.0,0.0,0.0,0.0,0.0,0.0,0.0,0.0,0.0,0.0,0.0,0.0,0.0,0.0,-4.0818,-4.0401,-4.051,-4.0959,-4.1504,-4.2109,-4.1895,-4.17,-4.1446,-4.1455,-4.0874,-3.9783,-3.9392,0.0,0.0,0.0,0.0,0.0,-3.5943,-3.5512,-3.4899,-3.4643,-3.4497,-3.4399,-3.3899,-3.3694,-3.3658,-3.3398,-3.3309,-3.3309,-3.324,-3.2617,-3.1766,-3.0911,-3.0642,-3.0522,-3.0233,-3.0111,-3.005,-2.9727,-2.9099,-2.8379,-2.7683,-2.6947,-2.6139,-2.5441,-2.5312,-2.5312,-2.5312,-2.5312,-2.5312,-2.5312,-2.5312,-2.5312,-2.5312,-2.5312,-2.5016,-2.4264,-2.3368,-2.2403,-2.1441,-2.0469,-1.9784,-1.9529,-1.945,-1.9381,-1.9301,-1.9301,-1.9301,-1.9301,-1.8922,-1.8772,-1.8772,-1.8282,-1.804,-1.804,-1.7635,-1.7473,-1.7392,-1.6984,-1.6738,-2.5854,0.0,-2.6184,-2.6184,-2.6048,-2.5912,0.0,-2.5757,-2.5601,-2.5601,0.0,0.0,-2.6316,-2.5971,0.0,0.0,0.0,0.0,0.0,0.0,0.0,0.0,0.0,0.0,0.0,0.0,0.0,0.0,0.0,0.0,0.0,-3.9478,-3.9278,-4.0474,-3.9878,-3.9854,-4.0467,-4.0849,-4.0658,-3.9849,-4.0167,-3.9849,-3.8953,-3.8574,0.0,0.0,0.0,0.0,-3.6343,-3.5523,-3.5048,-3.4899,-3.4851,-3.4546,-3.4201,-3.405,-3.3761,-3.3398,-3.3309,-3.3309,-3.324,-3.2888,-3.2382,-3.1823,-3.1278,-3.0866,-3.0568,-3.0507,-3.0462,-3.0462,-3.0401,-2.9359,-2.826,-2.8051,-2.7015,-2.5898,-2.5606,-2.5535,-2.5465,-2.5312,-2.5312,-2.5312,-2.5312,-2.5312,-2.5312,-2.5312,-2.5312,-2.5241,-2.5004,-2.4791,-2.4504,-2.3948,-2.3032,-2.2285,-2.1928,-2.0702,-1.9775,-1.9301,-1.9696,-1.9766,-1.9301,-1.9222,-1.9152,-1.9152,-1.8763,-1.8531,-1.8531,-1.804,-1.7878,-1.7878,-1.7392,-1.7392,-2.5022,-2.5599,-2.6203,-2.6203,-2.6203,-2.6203,-2.6203,0.0,0.0,0.0,0.0,0.0,0.0,0.0,0.0,0.0,0.0,0.0,0.0,0.0,0.0,0.0,0.0,0.0,0.0,0.0,0.0,0.0,0.0,0.0,0.0,-3.8844,-3.8572,-3.9423,-3.8921,-3.9049,-3.9896,-4.0121,-3.9935,-3.9322,-3.9512,-3.9199,-3.8432,-3.7892,-3.7433,0.0,0.0,0.0,-3.5716,-3.5143,-3.4899,-3.4899,-3.4899,-3.4691,-3.4448,-3.4201,-3.3899,-3.3642,-3.3398,-3.3309,-3.324,-3.2765,-3.2256,-3.1823,-3.1452,-3.0984,-3.0568,-3.0568,-3.0568,-3.0568,-3.0568,-2.947,-2.8298,-2.8247,-2.7082,-2.598,-2.5758,-2.5688,-2.5535,-2.5453,-2.5382,-2.5312,-2.5312,-2.5312,-2.5312,-2.5312,-2.5312,-2.5158,-2.4791,-2.4719,-2.4492,-2.3852,-2.3032,-2.2285,-2.1852,-2.0624,-2.001,-2.0157,-2.0469,-2.0547,-2.0157,-1.9844,-1.9608,-1.9301,-1.9073,-1.9002,-1.9002,-1.8523,-1.8282,-1.829,-1.7878,-1.7797,-2.4287,-2.5571,-2.6876,-2.6734,-2.6805,-2.6864,-2.6728,0.0,0.0,0.0,0.0,0.0,0.0,0.0,0.0,0.0,0.0,0.0,0.0,0.0,0.0,0.0,0.0,0.0,0.0,0.0,0.0,0.0,0.0,0.0,0.0,-3.8554,-3.8192,-3.8192,-3.8192,-3.8652,-3.9595,-3.9526,-3.9345,-3.9012,-3.9118,-3.8708,-3.7854,-3.7249,-3.6583,0.0,0.0,0.0,-3.4977,-3.4947,-3.4899,-3.4899,-3.4899,-3.4899,-3.4787,-3.4349,-3.4151,-3.405,-3.3555,-3.3346,-3.324,-3.2834,-3.2327,-3.1823,-3.1495,-3.1043,-3.0568,-3.0568,-3.0568,-3.0568,-3.0568,-2.9656,-2.8634,-2.8298,-2.7284,-2.6327,-2.598,-2.5828,-2.5676,-2.5606,-2.5453,-2.5312,-2.5312,-2.5312,-2.5312,-2.5312,-2.5312,-2.5075,-2.4337,-2.4264,-2.3891,-2.2925,-2.2199,-2.1614,-2.1068,-2.0323,-2.0255,-2.1165,-2.1011,-2.0934,-2.0934,-2.0391,-1.9854,-1.9301,-1.9301,-1.9301,-1.9301,-1.8922,-1.8772,-1.8772,-1.8282,-1.8121,-2.4198,-2.5613,-2.6719,-2.5982,-2.6339,-2.6708,-2.597,0.0,0.0,0.0,0.0,0.0,0.0,0.0,0.0,0.0,0.0,0.0,0.0,0.0,0.0,0.0,0.0,0.0,0.0,0.0,0.0,0.0,0.0,0.0,0.0,-3.8264,-3.8192,-3.8192,-3.8192,-3.8198,-3.8223,-3.8815,-3.8576,-3.763,-3.8249,-3.7905,-3.6759,-3.6634,-3.6319,-3.5864,0.0,-3.5333,-3.5287,-3.5024,-3.4899,-3.4899,-3.4899,-3.4739,-3.4546,-3.4448,-3.43,-3.405,-3.3761,-3.3503,-3.3309,-3.324,-3.2617,-3.1879,-3.1823,-3.1248,-3.0568,-3.0568,-3.0568,-3.0568,-3.0568,-2.9993,-2.9282,-2.862,-2.7855,-2.7095,-2.6327,-2.6131,-2.5992,-2.5688,-2.5606,-2.5535,-2.5312,-2.5312,-2.5312,-2.5312,-2.5312,-2.5241,-2.5158,-2.5087,-2.4791,-2.3963,-2.3486,-2.2905,-2.1983,-2.1482,-2.1185,-2.1165,-2.0157,-1.9608,-1.9608,-1.946,-1.9381,-1.9301,-1.9301,-1.9301,-1.9301,-1.9222,-1.9222,-1.9231,-1.8772,-1.8763,-2.3473,-2.4948,-2.6253,-2.6286,-2.7276,-2.8146,-2.7738,0.0,0.0,0.0,0.0,0.0,0.0,0.0,0.0,0.0,0.0,0.0,0.0,0.0,0.0,0.0,0.0,0.0,0.0,0.0,0.0,0.0,0.0,0.0,0.0,0.0,-3.8192,-3.8192,-3.8192,-3.8158,-3.8038,-3.8276,-3.8007,-3.7297,-3.7651,-3.7422,-3.6748,-3.6385,-3.6054,-3.5864,0.0,-3.5118,-3.5118,-3.493,-3.4899,-3.4899,-3.4899,-3.4835,-3.4691,-3.4546,-3.425,-3.3848,-3.3745,-3.3503,-3.324,-3.3011,-3.2437,-3.1879,-3.1667,-3.1087,-3.0568,-3.0568,-3.0568,-3.0507,-3.0129,-2.9546,-2.8826,-2.8117,-2.7484,-2.685,-2.6465,-2.627,-2.6144,-2.598,-2.5758,-2.5535,-2.5465,-2.5382,-2.5158,-2.4707,-2.4636,-2.4492,-2.4131,-2.4059,-2.3913,-2.3537,-2.2957,-2.2371,-2.1603,-2.1011,-2.0799,-2.1165,-2.0624,-2.0157,-1.9766,-1.9775,-1.9618,-1.9301,-1.9301,-1.9301,-1.9301,-1.9301,-1.9301,-1.9301,-1.9073,-1.9152,-2.2597,-2.4081,-2.5599,-2.6383,0.0,-2.8922,-2.9311,0.0,0.0,0.0,0.0,0.0,0.0,0.0,0.0,0.0,0.0,0.0,0.0,0.0,0.0,0.0,0.0,0.0,0.0,0.0,0.0,0.0,0.0,0.0,0.0,0.0,-3.8192,-3.8192,-3.8192,-3.8192,-3.8192,-3.8056,-3.7793,-3.7372,-3.7334,-3.7143,-3.6851,-3.6224,-3.5864,-3.5732,-3.5148,-3.4899,-3.4899,-3.4899,-3.4899,-3.4899,-3.4899,-3.4899,-3.4899,-3.4643,-3.43,-3.3899,-3.3899,-3.3642,-3.3346,-3.2873,-3.2312,-3.1823,-3.1452,-3.0984,-3.0568,-3.0568,-3.0568,-3.0507,-2.9993,-2.9282,-2.8556,-2.7934,-2.7229,-2.6714,-2.6521,-2.6396,-2.627,-2.6213,-2.591,-2.5676,-2.5606,-2.5453,-2.5087,-2.448,-2.4409,-2.4192,-2.361,-2.3548,-2.3463,-2.3243,-2.2574,-2.1756,-2.0914,-2.0235,-2.0089,-2.0702,-2.0779,-2.0547,-2.0001,-2.001,-1.9775,-1.9301,-1.9301,-1.9301,-1.9301,-1.9301,-1.9301,-1.9301,-1.9301,-1.9301,-2.1754,-2.3203,-2.4685,-2.5481,-2.6392,0.0,-2.9052,-2.8728,0.0,0.0,0.0,0.0,0.0,0.0,0.0,0.0,0.0,0.0,0.0,0.0,0.0,0.0,0.0,0.0,0.0,0.0,0.0,0.0,0.0,0.0,0.0,0.0,0.0,-3.8192,-3.8192,-3.8192,-3.8192,-3.8192,-3.7969,-3.7594,-3.7372,-3.7027,-3.6544,-3.6097,-3.5749,-3.5424,-3.5071,-3.4899,-3.4899,-3.4899,-3.4899,-3.4899,-3.4899,-3.4899,-3.4899,-3.4899,-3.4691,-3.4448,-3.4448,-3.4101,-3.3591,-3.3108,-3.2461,-3.1823,-3.1452,-3.0984,-3.0568,-3.0568,-3.0568,-3.0568,-3.0507,-3.0007,-2.9359,-2.862,-2.792,-2.7297,-2.6658,-2.6465,-2.6396,-2.627,-2.6062,-2.5828,-2.5606,-2.5453,-2.53,-2.5229,-2.5229,-2.5158,-2.5158,-2.5158,-2.4862,-2.4108,-2.339,-2.2124,-2.0167,-1.9794,-1.9557,-1.946,-1.946,-1.946,-1.9381,-1.9381,-1.9301,-1.9301,-1.9301,-1.9301,-1.9301,-1.9301,-1.9301,-1.9301,-1.9301,-1.9301,-2.1651,-2.3124,-2.4585,-2.5408,-2.6263,0.0,0.0,0.0,0.0,0.0,0.0,0.0,0.0,0.0,0.0,0.0,0.0,0.0,0.0,0.0,0.0,0.0,0.0,0.0,0.0,0.0,0.0,0.0,0.0,0.0,0.0,0.0,0.0,-3.8192,-3.8192,-3.8192,-3.8192,-3.7951,-3.7739,-3.7577,-3.7503,-3.7203,-3.6673,-3.6122,-3.5705,-3.5379,-3.5024,-3.4899,-3.4899,-3.4899,-3.4899,-3.4899,-3.4899,-3.4899,-3.4899,-3.4899,-3.4739,-3.4497,-3.4497,-3.405,-3.333,-3.2788,-3.213,-3.1537,-3.1043,-3.0747,-3.0568,-3.0568,-3.0568,-3.0372,-2.9532,-2.9079,-2.8634,-2.755,-2.704,-2.6782,-2.6521,-2.6533,-2.6465,-2.6396,-2.6119,-2.591,-2.5828,-2.5535,-2.5158,-2.4636,-2.4564,-2.4192,-2.3243,-2.3084,-2.2798,-2.1973,-2.1538,-2.0934,-2.002,-1.9715,-1.9478,-1.9301,-1.9301,-1.9301,-1.9301,-1.9301,-1.9301,-1.9301,-1.9301,-1.9301,-1.9301,-1.9301,-1.9301,-1.9301,-1.9301,-1.9301,-2.1749,-2.3122,-2.4589,0.0,0.0,0.0,0.0,0.0,0.0,0.0,0.0,0.0,0.0,0.0,0.0,0.0,0.0,0.0,0.0,0.0,0.0,0.0,0.0,0.0,0.0,0.0,0.0,0.0,0.0,0.0,0.0,0.0,0.0,0.0,-3.8192,-3.8192,-3.8192,-3.7846,-3.7703,-3.7703,-3.7558,-3.7223,-3.6673,-3.6054,-3.5616,-3.5379,-3.5024,-3.4899,-3.4899,-3.4899,-3.4899,-3.4899,-3.4899,-3.4899,-3.4899,-3.4899,-3.4787,-3.4643,-3.4643,-3.4201,-3.3523,-3.2772,-3.2241,-3.1709,-3.0925,-3.0642,-3.0642,-3.0628,-3.0568,-3.0251,-2.8889,-2.8492,-2.8233,-2.7351,-2.6782,-2.6533,-2.6533,-2.6533,-2.6533,-2.6533,-2.6258,-2.598,-2.591,-2.5606,-2.5158,-2.4564,-2.4492,-2.412,-2.3021,-2.2649,-2.2134,-2.1088,-2.1088,-2.0857,-2.0098,-1.9794,-1.9636,-1.939,-1.9301,-1.9301,-1.9301,-1.9301,-1.9301,-1.9301,-1.9301,-1.9301,-1.9301,-1.9301,-1.9301,-1.9301,-1.9301,-1.9301,-2.191,-2.3116,-2.4584,0.0,0.0,0.0,0.0,0.0,0.0,0.0,0.0,0.0,0.0,0.0,0.0,0.0,0.0,0.0,0.0,0.0,0.0,0.0,0.0,0.0,0.0,0.0,0.0,0.0,0.0,0.0,0.0,0.0,0.0,0.0,-3.8174,-3.8174,-3.8174,-3.7985,-3.7881,-3.7881,-3.7466,-3.7009,-3.6461,-3.5739,-3.5424,-3.5379,-3.5024,-3.4899,-3.4899,-3.4899,-3.4899,-3.4899,-3.4899,-3.4899,-3.4899,-3.4899,-3.4899,-3.4899,-3.4899,-3.4691,-3.4333,-3.3319,-3.2788,-3.2351,-3.1146,-3.0821,-3.0747,-3.0628,-3.0568,-3.0237,-2.8876,-2.8492,-2.8492,-2.8492,-2.7484,-2.6533,-2.6533,-2.6533,-2.6533,-2.6533,-2.6339,-2.6131,-2.591,-2.5758,-2.5535,-2.5312,-2.5312,-2.53,-2.53,-2.4564,-2.3452,-2.1983,-2.251,-2.2285,-2.0411,-2.002,-1.9794,-1.9636,-1.939,-1.9301,-1.9301,-1.9301,-1.9301,-1.9301,-1.9301,-1.9301,-1.9301,-1.9301,-1.9301,-1.9301,-1.9301,-1.9301,-2.1904,-2.3125,0.0,0.0,0.0,0.0,0.0,0.0,0.0,0.0,0.0,0.0,0.0,0.0,0.0,0.0,0.0,0.0,0.0,0.0,0.0,0.0,0.0,0.0,0.0,0.0,0.0,0.0,0.0,0.0,0.0,0.0,0.0,0.0,-3.6508,-3.6508,-3.6508,-3.6294,-3.6141,-3.5987,-3.5506,-3.5632,-3.6291,-3.5907,-3.5481,-3.5024,-3.493,-3.4899,-3.4899,-3.4899,-3.4899,-3.4899,-3.4899,-3.4899,-3.4899,-3.4899,-3.4899,-3.4851,-3.4448,-3.4018,-3.3459,-3.261,-3.1713,-3.0919,-3.0437,-2.9899,-2.9563,-2.9929,-2.9959,-2.9883,-2.994,-2.9268,-2.8247,-2.7284,-2.6782,-2.6533,-2.6533,-2.6533,-2.6533,-2.6533,-2.6188,-2.598,-2.591,-2.5606,-2.5382,-2.5312,-2.5312,-2.4933,-2.3841,-2.2499,-2.1451,-2.1011,-2.1165,-2.1011,-2.0342,-2.002,-1.9794,-1.9636,-1.939,-1.9301,-1.9301,-1.9301,-1.9301,-1.9301,-1.9301,-1.9301,-1.9301,-1.9301,-1.9301,-1.9301,-1.9301,-1.9301,-2.2792,0.0,0.0,0.0,0.0,0.0,0.0,0.0,0.0,0.0,0.0,0.0,0.0,0.0,0.0,0.0,0.0,0.0,0.0,0.0,0.0,0.0,0.0,0.0,0.0,0.0,0.0,0.0,0.0,0.0,0.0,0.0,0.0,0.0,-3.582,-3.582,-3.582,-3.5591,-3.5442,-3.5323,-3.4727,-3.4749,-3.5294,-3.4976,-3.4621,-3.4205,-3.4068,-3.4021,-3.4021,-3.4021,-3.4021,-3.4021,-3.4021,-3.4021,-3.4021,-3.4021,-3.4021,-3.3975,-3.3676,-3.3161,-3.2596,-3.1908,-3.106,-3.0173,-2.9814,-2.9325,-2.8963,-2.9302,-2.929,-2.9276,-2.9405,-2.881,-2.8029,-2.7432,-2.6905,-2.6533,-2.6533,-2.6533,-2.6533,-2.6533,-2.6258,-2.598,-2.591,-2.5606,-2.5382,-2.5312,-2.5312,-2.4719,-2.318,-2.2723,-2.1983,-2.0712,-2.1165,-2.1242,-2.0489,-2.0177,-2.0029,-1.9882,-1.9557,-1.939,-1.939,-1.9301,-1.9301,-1.9301,-1.9301,-1.9301,-1.9301,-1.9301,-1.9301,-1.9301,-1.9301,-1.9301,-2.4072,0.0,0.0,0.0,0.0,0.0,0.0,0.0,0.0,0.0,0.0,0.0,0.0,0.0,0.0,0.0,0.0,0.0,0.0,0.0,0.0,0.0,0.0,0.0,0.0,0.0,0.0,0.0,0.0,0.0,0.0,0.0,0.0,-3.5566,-3.5584,-3.5584,-3.5584,-3.5407,-3.5292,-3.5259,-3.4606,-3.4126,-3.38,-3.3388,-3.3177,-3.3134,-3.2813,-3.268,-3.268,-3.268,-3.268,-3.268,-3.268,-3.268,-3.268,-3.268,-3.268,-3.268,-3.2635,-3.2364,-3.19,-3.1227,-3.0631,-2.9999,-2.9282,-2.891,-2.8715,-2.8677,-2.865,-2.844,-2.785,-2.7631,-2.7642,-2.822,-2.7406,-2.6533,-2.6533,-2.6533,-2.6533,-2.6533,-2.6327,-2.6131,-2.591,-2.5688,-2.5535,-2.5312,-2.5158,-2.4576,-2.3169,-2.4131,-2.3756,-2.0944,-2.1907,-2.2209,-2.0712,-2.042,-2.0264,-2.0264,-1.9872,-1.9645,-1.9566,-1.939,-1.9301,-1.9301,-1.9301,-1.9301,-1.9301,-1.9301,-1.9301,-1.9301,-1.9301,-1.9301,0.0,-2.4471,0.0,0.0,0.0,0.0,0.0,0.0,0.0,0.0,0.0,0.0,0.0,0.0,0.0,0.0,0.0,0.0,0.0,0.0,0.0,0.0,0.0,0.0,0.0,0.0,0.0,0.0,0.0,0.0,0.0,0.0,0.0,-3.3918,-3.3918,-3.3918,-3.3918,-3.3888,-3.3779,0.0,-3.3117,-3.2757,-3.2596,-3.3002,-3.3074,-3.2813,-3.2724,-3.268,-3.268,-3.268,-3.268,-3.268,-3.268,-3.268,-3.268,-3.268,-3.268,-3.2635,-3.221,-3.1994,-3.1742,-3.0795,-3.0048,-2.9429,-2.8892,-2.8165,-2.7645,-2.8091,-2.809,-2.803,-2.8369,-2.7666,-2.6959,-2.7081,-2.6765,-2.6533,-2.6533,-2.6533,-2.6533,-2.6533,-2.6188,-2.598,-2.591,-2.5606,-2.5382,-2.5312,-2.4276,-2.339,-2.3032,-2.2209,-2.1385,-2.0634,-2.0944,-2.1021,-2.0644,-2.042,-2.0264,-2.0264,-2.0029,-1.9794,-1.9645,-1.939,-1.9301,-1.9301,-1.9301,-1.9301,-1.9301,-1.9301,-1.9301,-1.9301,-1.9301,-1.9301,0.0,0.0,0.0,0.0,0.0,0.0,0.0,0.0,0.0,0.0,0.0,0.0,0.0,0.0,0.0,0.0,0.0,0.0,0.0,0.0,0.0,0.0,0.0,0.0,0.0,0.0,0.0,0.0,0.0,0.0,0.0,-3.3452,-3.3393,-3.3393,-3.3393,-3.3393,-3.3393,-3.3393,-3.3334,-3.3226,-3.2766,-3.2283,-3.1804,-3.2055,-3.1976,-3.1653,-3.1653,-3.1653,-3.1653,-3.1653,-3.1653,-3.1653,-3.1653,-3.1653,-3.1653,-3.1653,-3.1653,-3.1609,-3.1331,-3.0956,-3.0449,-2.9923,-2.91,-2.8339,-2.7995,-2.7565,-2.7166,-2.7384,-2.7151,-2.6914,-2.723,-2.6544,-2.5847,-2.5831,-2.5743,-2.5674,-2.5674,-2.5674,-2.5749,-2.6,-2.5779,-2.5603,-2.5861,-2.5241,-2.4636,-2.4276,-2.3537,-2.2883,-2.251,-2.2059,-2.1461,-2.0644,-2.0944,-2.1011,-2.0644,-2.0489,-2.0411,-2.0411,-2.0098,-1.9863,-1.9715,-1.9469,-1.9301,-1.9301,-1.9301,-1.9301,-1.9301,-1.9301,-1.9301,-1.9301,-1.9301,-1.9301,0.0,0.0,0.0,0.0,0.0,0.0,0.0,0.0,0.0,0.0,0.0,0.0,0.0,0.0,0.0,0.0,0.0,0.0,0.0,0.0,0.0,0.0,0.0,0.0,0.0,0.0,0.0,0.0,0.0,0.0,-3.3698,-3.3491,-3.3393,-3.3393,-3.3393,-3.3393,-3.3393,-3.3393,-3.3364,-3.3286,-3.2766,-3.2092,-3.13,-3.1078,-3.0814,-3.051,-3.051,-3.0526,-3.0526,-3.0526,-3.0526,-3.0526,-3.0526,-3.0526,-3.0526,-3.0526,-3.0526,-3.0485,-3.0426,-2.9897,-2.9166,-2.9028,-2.8319,-2.7539,-2.7321,-2.7196,-2.7055,-2.6884,-2.65,-2.606,-2.5862,-2.5346,-2.4896,-2.4722,-2.4595,-2.4582,-2.4782,-2.482,-2.4946,-2.5385,-2.5219,-2.5068,-2.5444,-2.4661,-2.3727,-2.3084,-2.2883,-2.2585,-2.1907,-2.2285,-2.2059,-2.0722,-2.1165,-2.1318,-2.0644,-2.0566,-2.0566,-2.0566,-2.0177,-1.9942,-1.9863,-1.9548,-1.9301,-1.9301,-1.9301,-1.9301,-1.9301,-1.9301,-1.9301,-1.9301,-1.9301,-1.9301,0.0,0.0,0.0,0.0,0.0,0.0,0.0,0.0,0.0,0.0,0.0,0.0,0.0,0.0,0.0,0.0,0.0,0.0,0.0,0.0,0.0,0.0,0.0,0.0,0.0,0.0,0.0,0.0,0.0,0.0,-3.3662,-3.3491,-3.3393,-3.3393,-3.3393,-3.3393,-3.3393,-3.3393,-3.3226,-3.2876,-3.2127,-3.147,-3.0975,-3.0952,-3.0831,-3.0692,-3.0692,-3.0609,-3.0526,-3.0526,-3.0526,-3.0526,-3.0526,-3.0526,-3.0526,-3.0526,-3.0526,-3.0426,-3.0027,-2.9793,-2.9572,-2.867,-2.8304,-2.8125,-2.766,-2.7437,-2.7299,-2.7181,-2.6974,-2.6688,-2.6046,-2.5424,-2.4872,-2.4328,-2.3773,-2.3566,-2.4607,-2.482,-2.4845,-2.4908,-2.466,-2.4293,-2.3955,-2.3699,-2.3353,-2.304,-2.2435,-2.1907,-2.1832,-2.1318,-2.0867,-2.0644,-2.0722,-2.0712,-2.0644,-2.0566,-2.0566,-2.0566,-2.0411,-2.0108,-1.9942,-1.9715,-1.9478,-1.9301,-1.9301,-1.9301,-1.9301,-1.9301,-1.9301,-1.9301,-1.9301,-1.9301,-2.022,0.0,0.0,0.0,0.0,0.0,0.0,0.0,0.0,0.0,0.0,0.0,0.0,0.0,0.0,0.0,0.0,0.0,0.0,0.0,0.0,0.0,0.0,0.0,0.0,0.0,0.0,0.0,0.0,-3.2082,-3.2379,-3.2174,-3.2252,-3.2705,-3.2723,-3.294,-3.3393,-3.3393,-3.3208,-3.2795,-3.2021,-3.1545,-3.1334,-3.1134,-3.0992,-3.0831,-3.0733,-3.0651,-3.0609,-3.051,-3.0526,-3.0526,-3.0526,-3.0526,-3.0526,-3.0526,-3.0526,-3.0426,-2.9984,-2.9617,-2.9303,-2.8528,-2.811,-2.7845,-2.7575,-2.7437,-2.7284,-2.6736,-2.6297,-2.5811,-2.509,-2.4408,-2.3884,-2.359,-2.3305,-2.3215,-2.3766,-2.3879,-2.3904,-2.4154,-2.3924,-2.3451,-2.2707,-2.2335,-2.194,-2.1342,-2.1222,-2.1165,-2.1165,-2.0789,-2.0566,-2.0566,-2.0566,-2.0566,-2.0566,-2.0566,-2.0566,-2.0566,-2.042,-2.0186,-1.9942,-1.9715,-1.9478,-1.9301,-1.9301,-1.9301,-1.9301,-1.9301,-1.9301,-1.9301,-1.9301,-1.9301,0.0,0.0,0.0,0.0,0.0,0.0,0.0,0.0,0.0,0.0,0.0,0.0,0.0,0.0,0.0,0.0,0.0,0.0,0.0,0.0,0.0,0.0,0.0,0.0,0.0,0.0,0.0,0.0,0.0,-3.0962,-3.1434,-3.1172,-3.1274,-3.1872,-3.189,-3.218,-3.2777,-3.2708,-3.2475,-3.208,-3.1446,-3.1175,-3.1271,-3.104,-3.0943,-3.0952,-3.0814,-3.0733,-3.0692,-3.0609,-3.051,-3.0526,-3.0526,-3.0426,-3.0342,-3.0342,-3.0258,-3.007,-2.9617,-2.9196,-2.8826,-2.8304,-2.7894,-2.7575,-2.7488,-2.7437,-2.7269,-2.6404,-2.5837,-2.5287,-2.435,-2.3721,-2.3305,-2.3125,-2.3078,-2.3078,-2.3078,-2.3078,-2.3203,-2.3492,-2.3308,-2.2815,-2.1856,-2.1441,-2.0938,-2.0043,-2.0283,-2.0566,-2.0566,-2.0566,-2.0566,-2.0566,-2.0566,-2.0566,-2.0566,-2.0566,-2.0566,-2.0566,-2.0342,-2.0108,-1.9942,-1.9636,-1.9469,-1.9301,-1.9301,-1.9301,-1.9301,-1.9301,-1.9301,-1.9301,-1.9301,-1.9301,0.0,0.0,0.0,0.0,0.0,0.0,0.0,0.0,0.0,0.0,0.0,0.0,0.0,0.0,0.0,0.0,0.0,0.0,0.0,0.0,0.0,0.0,0.0,0.0,0.0,0.0,0.0,0.0,0.0,-2.9793,-3.15,-3.1224,-3.1021,-3.1057,-3.1057,-3.1075,-3.1111,-3.0801,-3.0485,-3.0138,-2.9711,-2.9742,-3.0197,-3.0159,-3.0548,-3.119,-3.1015,-3.0855,-3.0692,-3.0692,-3.0609,-3.0526,-3.0526,-3.0258,-2.9853,-2.9853,-2.9572,-2.912,-2.8575,-2.8336,-2.8255,-2.7795,-2.7625,-2.7625,-2.7575,-2.7575,-2.7408,-2.6549,-2.6283,-2.5906,-2.4452,-2.406,-2.3897,-2.3245,-2.3078,-2.3078,-2.3078,-2.3078,-2.3078,-2.3115,-2.3019,-2.2565,-2.1395,-2.1415,-2.1197,-2.0068,-2.0283,-2.0566,-2.0566,-2.0566,-2.0566,-2.0566,-2.0566,-2.0566,-2.0566,-2.0566,-2.0566,-2.0566,-2.0177,-1.9942,-1.9863,-1.9539,-1.9301,-1.9301,-1.9301,-1.9301,-1.9301,-1.9301,-1.9301,-1.9301,-1.9301,-1.9301,0.0,0.0,0.0,0.0,0.0,0.0,0.0,0.0,0.0,0.0,0.0,0.0,0.0,0.0,0.0,0.0,0.0,0.0,0.0,0.0,0.0,0.0,0.0,0.0,0.0,0.0,0.0,0.0,0.0,0.0,-2.9895,-2.9642,-2.9699,-3.0206,-3.0224,-3.036,-3.0697,-3.0343,-3.0001,-2.9657,-2.9316,-2.9183,-2.9269,-2.9269,-2.9404,-2.964,-2.958,-3.004,-3.0831,-3.0749,-3.0609,-3.0526,-3.0526,-3.0384,-3.0199,-2.9897,-2.9705,-2.9438,-2.8575,-2.8288,-2.8207,-2.7745,-2.7625,-2.7625,-2.7625,-2.7524,-2.7218,-2.6054,-2.5673,-2.5287,-2.3826,-2.3484,-2.3424,-2.3138,-2.275,-2.2433,-2.2433,-2.2433,-2.2433,-2.2433,-2.1616,-2.0786,-2.038,-2.0143,-2.0,-1.9756,-2.0043,-2.0417,-2.0605,-2.0566,-2.0566,-2.0566,-2.0566,-2.0566,-2.0566,-2.0566,-2.0566,-2.0566,-2.0333,-2.0108,-1.9942,-1.9627,-1.939,-1.9301,-1.9301,-1.9301,-1.9301,-1.9301,-1.8975,-1.8487,-1.9054,-1.8975,0.0,0.0,0.0,0.0,0.0,0.0,0.0,0.0,0.0,0.0,0.0,0.0,0.0,0.0,0.0,0.0,0.0,0.0,0.0,0.0,0.0,0.0,0.0,0.0,0.0,0.0,0.0,0.0,0.0,0.0,-2.9012,-2.8767,-2.8848,-2.9373,-2.9391,-2.9565,-2.9879,-2.9632,-2.9303,-2.8893,-2.8663,-2.8544,-2.846,-2.846,-2.8612,-2.8864,-2.879,-2.9403,-3.0486,-3.0366,-3.0393,-3.0526,-3.0526,-3.0384,-3.0258,-2.9897,-2.9705,-2.9438,-2.8575,-2.8288,-2.8207,-2.7745,-2.7458,-2.7306,-2.7306,-2.71,-2.6616,-2.5453,-2.5007,-2.4681,-2.3412,-2.3078,-2.3078,-2.3078,-2.275,-2.2359,-2.2175,-2.1916,-2.1741,-2.1741,-2.0921,-2.0161,-1.9846,-1.9708,-1.9583,-1.9402,-1.9865,-2.0266,-2.0312,-2.0478,-2.0566,-2.0566,-2.0566,-2.0566,-2.0566,-2.0566,-2.0566,-2.0566,-2.042,-2.0186,-1.9942,-1.946,-1.9054,-1.8895,-1.8567,-1.8407,-1.8407,-1.8975,-1.8816,-1.7997,-1.8567,-1.8238,0.0,0.0,0.0,0.0,0.0,0.0,0.0,0.0,0.0,0.0,0.0,0.0,0.0,0.0,0.0,0.0,0.0,0.0,0.0,0.0,0.0,0.0,0.0,0.0,0.0,0.0,0.0,0.0,0.0,-2.8233,-2.9034,-2.8779,-2.8612,-2.8587,-2.8587,-2.8587,-2.8587,-2.8587,-2.8264,-2.7701,-2.7701,-2.7719,-2.7755,-2.7755,-2.8197,-2.8907,-2.8797,-2.9072,-2.9627,-2.9599,-2.9928,-3.0493,-3.051,-3.0199,-2.9793,-2.981,-2.9483,-2.9028,-2.8496,-2.8288,-2.8207,-2.776,-2.7203,-2.6736,-2.6736,-2.6283,-2.5618,-2.4794,-2.4509,-2.4292,-2.3365,-2.3078,-2.3078,-2.3078,-2.3078,-2.2884,-2.2175,-2.1491,-2.1071,-2.106,-2.106,-2.0741,-1.9901,-2.0157,-2.0128,-1.9044,-1.9657,-2.0072,-1.9912,-2.0293,-2.0566,-2.0566,-2.0566,-2.0566,-2.0566,-2.0566,-2.0566,-2.0489,-2.0333,-2.0108,-1.9863,-1.8877,-1.823,-1.8078,-1.7188,-1.678,-1.678,-1.8407,-1.8807,-1.7917,-1.7917,-1.7025,-1.6475,0.0,0.0,0.0,0.0,0.0,0.0,0.0,0.0,0.0,0.0,0.0,0.0,0.0,0.0,0.0,0.0,0.0,0.0,0.0,0.0,0.0,0.0,0.0,0.0,0.0,0.0,0.0,-2.796,-2.8197,-2.844,-2.8672,-2.8761,-2.8612,-2.8587,-2.8492,-2.8228,-2.8228,-2.7954,-2.7338,-2.7338,-2.7206,-2.6944,-2.6944,-2.7061,-2.7264,-2.7159,-2.7561,-2.83,-2.9221,-2.9629,-2.9781,-3.0311,-3.0426,-3.0258,-2.9941,-2.9483,-2.9028,-2.8496,-2.8076,-2.7745,-2.761,-2.7473,-2.7357,-2.7357,-2.6878,-2.6122,-2.5342,-2.4794,-2.4176,-2.3305,-2.3078,-2.3005,-2.2494,-2.2002,-2.1502,-2.0794,-2.0161,-1.9781,-2.0291,-1.9977,-1.9518,-1.9131,-1.9178,-1.9162,-1.8934,-1.9409,-1.9821,-1.9873,-2.0293,-2.0566,-2.0566,-2.0566,-2.0323,-1.9696,-1.9696,-1.9371,-1.8798,-1.8496,-1.8656,-1.9204,-1.8647,-1.8576,-1.9152,-1.8167,-1.7674,-1.7674,-1.7504,-1.6935,-1.6131,-1.6131,-1.6206,0.0,0.0,0.0,0.0,0.0,0.0,0.0,-2.2357,0.0,0.0,0.0,0.0,0.0,0.0,0.0,0.0,0.0,0.0,0.0,0.0,0.0,0.0,0.0,0.0,0.0,0.0,0.0,-2.7286,-2.7511,-2.7693,-2.7859,-2.8137,-2.8373,-2.8587,-2.8587,-2.8518,-2.8326,-2.8326,-2.8065,-2.7577,-2.7474,-2.7213,-2.6859,-2.6691,-2.6657,-2.6623,-2.6572,-2.6824,-2.7295,-2.8101,-2.8831,-2.9556,-3.0286,-3.0568,-3.0426,-2.9984,-2.9617,-2.9303,-2.8528,-2.811,-2.7845,-2.7357,-2.7034,-2.6811,-2.6602,-2.6014,-2.5425,-2.4921,-2.435,-2.378,-2.3245,-2.3078,-2.2944,-2.2237,-2.1803,-2.1239,-2.0291,-1.9781,-1.9518,-1.9649,-1.9396,-1.9065,-1.8942,-1.8875,-1.8687,-1.8311,-1.8589,-1.8807,-1.8676,-1.901,-1.9325,-1.9502,-1.952,-1.9283,-1.8807,-1.8727,-1.8567,-1.7997,-1.7925,-1.8006,-1.8407,-1.7844,-1.7691,-1.8095,-1.7107,-1.6609,-1.6527,-1.6609,-1.6206,-1.5394,-1.5068,-1.5151,0.0,0.0,0.0,0.0,0.0,0.0,-2.2435,-2.2182,0.0,0.0,0.0,0.0,0.0,0.0,0.0,0.0,0.0,0.0,0.0,0.0,0.0,0.0,0.0,0.0,0.0,-2.6193,-2.6412,-2.7062,-2.6837,-2.6866,-2.7289,-2.732,-2.7677,-2.8424,-2.846,-2.8496,-2.8587,-2.8562,-2.8396,-2.8047,-2.7771,-2.7461,-2.7117,-2.6825,-2.6691,-2.6691,-2.6623,-2.6606,-2.6605,-2.6838,-2.7816,-2.938,-3.0137,-3.0352,-3.0185,-2.9865,-2.9661,-2.9512,-2.8622,-2.8255,-2.8061,-2.7019,-2.6336,-2.5797,-2.5272,-2.4664,-2.4112,-2.3891,-2.3582,-2.333,-2.3138,-2.3065,-2.2811,-2.2175,-2.1916,-2.1542,-2.0279,-1.9977,-1.9846,-1.9198,-1.8998,-1.8998,-1.8931,-1.8731,-1.825,-1.7404,-1.7493,-1.7479,-1.6983,-1.7278,-1.7656,-1.7954,-1.7997,-1.7997,-1.7836,-1.7836,-1.7836,-1.7755,-1.7674,-1.7683,-1.761,-1.6796,-1.6394,-1.6296,-1.5311,-1.4734,-1.4398,-1.5711,-1.6049,-1.5235,-1.4496,-1.4088,0.0,0.0,-2.2416,0.0,0.0,0.0,0.0,-2.1362,0.0,0.0,0.0,0.0,0.0,0.0,0.0,0.0,0.0,0.0,0.0,0.0,0.0,0.0,0.0,0.0,0.0,-2.5234,-2.521,-2.5295,-2.5677,-2.6172,-2.6806,-2.6735,-2.6964,-2.7616,-2.761,-2.7936,-2.8587,-2.8326,-2.8065,-2.7771,-2.7444,-2.7117,-2.6791,-2.6725,-2.6691,-2.6691,-2.6708,-2.6657,-2.6639,-2.7274,-2.745,-2.7447,-2.8281,-2.859,-2.8626,-2.9051,-2.8966,-2.8575,-2.8384,-2.8076,-2.761,-2.693,-2.6616,-2.6404,-2.5797,-2.5133,-2.4408,-2.3688,-2.333,-2.3138,-2.3138,-2.2689,-2.2113,-2.1428,-2.0858,-2.0279,-1.9452,-1.933,-1.9264,-1.9131,-1.8654,-1.8172,-1.7978,-1.7432,-1.6881,-1.6315,-1.6652,-1.6905,-1.6908,-1.7278,-1.7656,-1.7954,-1.7997,-1.7755,-1.7025,-1.6935,-1.6624,-1.5989,-1.5914,-1.6229,-1.687,-1.655,-1.6714,-1.7367,-1.6378,-1.5394,-1.4398,-1.4573,-1.4496,-1.4334,-1.4166,-1.4088,0.0,0.0,-2.3542,-2.3109,0.0,0.0,0.0,0.0,-2.1958,0.0,0.0,0.0,0.0,0.0,0.0,0.0,0.0,0.0,0.0,0.0,0.0,0.0,0.0,0.0,0.0,-2.5088,-2.4961,-2.476,-2.4984,-2.5374,-2.5956,-2.5928,-2.6166,-2.6783,-2.72,-2.7598,-2.799,-2.8224,-2.8273,-2.8156,-2.7654,-2.7352,-2.7195,-2.6841,-2.6691,-2.6691,-2.6691,-2.6674,-2.6657,-2.6714,-2.6557,-2.6406,-2.7558,-2.8035,-2.8123,-2.8199,-2.8031,-2.7794,-2.7905,-2.737,-2.6593,-2.6342,-2.6082,-2.5756,-2.5147,-2.465,-2.4086,-2.3185,-2.2823,-2.2628,-2.2199,-2.1877,-2.1428,-2.0741,-2.0355,-1.9835,-1.8777,-1.8519,-1.8452,-1.8104,-1.7413,-1.707,-1.7765,-1.7148,-1.6394,-1.5692,-1.5711,-1.5805,-1.5687,-1.5902,-1.6213,-1.6659,-1.6714,-1.655,-1.6064,-1.6064,-1.5906,-1.5431,-1.5431,-1.5582,-1.6064,-1.5989,-1.6072,-1.6558,-1.5816,-1.5151,-1.4741,-1.4405,-1.4159,-1.4088,-1.4088,-1.4088,0.0,0.0,0.0,0.0,0.0,-2.4275,0.0,0.0,0.0,-2.3791,0.0,0.0,0.0,0.0,0.0,0.0,0.0,0.0,0.0,0.0,0.0,0.0,0.0,0.0,0.0,-2.4786,-2.4689,-2.4723,-2.426,-2.4301,-2.5029,-2.5022,-2.5302,-2.595,-2.6602,-2.7091,-2.7417,-2.8001,-2.8373,-2.8492,-2.7886,-2.7595,-2.7565,-2.6989,-2.6691,-2.6691,-2.6691,-2.6691,-2.664,-2.6085,-2.5795,-2.5798,-2.7023,-2.7596,-2.7652,-2.7225,-2.7088,-2.7072,-2.7188,-2.6653,-2.5821,-2.5661,-2.5273,-2.4734,-2.4041,-2.3806,-2.3509,-2.2494,-2.2187,-2.2063,-2.1313,-2.0996,-2.0741,-2.002,-1.9759,-1.9365,-1.8027,-1.7765,-1.7619,-1.7001,-1.6315,-1.6175,-1.7345,-1.6802,-1.5903,-1.5133,-1.484,-1.4668,-1.4539,-1.4472,-1.4634,-1.5101,-1.5173,-1.5082,-1.4915,-1.4908,-1.4999,-1.5173,-1.5173,-1.5257,-1.5431,-1.5431,-1.534,-1.5173,-1.4741,-1.4566,-1.4573,-1.4139,-1.3977,-1.4166,-1.4166,-1.4173,0.0,0.0,0.0,0.0,-2.4877,0.0,0.0,0.0,-2.3842,-2.3273,0.0,0.0,0.0,0.0,0.0,0.0,0.0,0.0,0.0,0.0,0.0,0.0,0.0,0.0,0.0,0.0,-2.3348,-2.4691,-2.3116,-2.2737,-2.4152,-2.4085,-2.4324,-2.5117,-2.5226,-2.5968,-2.7399,-2.7266,-2.7513,-2.8156,-2.7547,-2.7244,-2.7244,-2.6858,-2.6691,-2.6691,-2.6691,-2.6674,-2.6572,-2.6154,-2.5701,-2.5349,-2.5918,-2.6145,-2.6162,-2.6298,-2.6335,-2.626,-2.592,-2.612,-2.6342,-2.5322,-2.4654,-2.4041,-2.3292,-2.3053,-2.2798,-2.1815,-2.1514,-2.1451,-2.1187,-2.0677,-2.002,-1.9267,-1.868,-1.8027,-1.7207,-1.7001,-1.7001,-1.6932,-1.6315,-1.5833,-1.6035,-1.5267,-1.4561,-1.4274,-1.4065,-1.4029,-1.4462,-1.4472,-1.4468,-1.4253,-1.4223,-1.388,-1.3105,-1.3021,-1.3366,-1.4223,-1.4223,-1.4573,-1.5347,-1.5431,-1.4999,-1.4223,-1.3964,-1.3457,-1.2705,-1.2443,-1.2948,-1.4398,-1.4398,-1.4243,0.0,0.0,0.0,0.0,0.0,0.0,0.0,0.0,-2.4309,0.0,0.0,0.0,0.0,0.0,0.0,0.0,0.0,0.0,0.0,0.0,0.0,0.0,0.0,0.0,0.0,0.0,0.0,0.0,-2.2949,-2.2515,-2.4023,-2.4036,-2.4081,-2.4284,-2.4755,-2.5316,-2.6005,-2.62,-2.6468,-2.6746,-2.6644,-2.654,-2.6557,-2.6653,-2.6691,-2.6691,-2.6691,-2.6674,-2.664,-2.6417,-2.6082,-2.5696,-2.5837,-2.5654,-2.5247,-2.5257,-2.5274,-2.5244,-2.523,-2.5141,-2.4977,-2.4546,-2.4292,-2.3995,-2.3628,-2.3185,-2.2677,-2.169,-2.1135,-2.0677,-2.0107,-1.9431,-1.8834,-1.8489,-1.7881,-1.7139,-1.6455,-1.6245,-1.6105,-1.5683,-1.5267,-1.4991,-1.4991,-1.4641,-1.4137,-1.3331,-1.3193,-1.3042,-1.3021,-1.3015,-1.3072,-1.3302,-1.3275,-1.3105,-1.276,-1.2674,-1.276,-1.3014,-1.2936,-1.3021,-1.3444,-1.3444,-1.3275,-1.2851,-1.2674,-1.2419,-1.2174,-1.1918,-1.2169,-1.2851,-1.2857,-1.3039,-2.561,0.0,0.0,0.0,0.0,0.0,0.0,0.0,0.0,0.0,0.0,0.0,0.0,0.0,0.0,0.0,0.0,0.0,0.0,0.0,0.0,0.0,0.0,0.0,0.0,0.0,0.0,0.0,0.0,-2.2019,-2.3926,-2.4016,-2.3937,-2.3795,-2.4375,-2.4773,-2.5009,-2.5391,-2.5649,-2.5808,-2.6083,-2.6147,-2.6122,-2.6517,-2.6657,-2.6556,-2.6556,-2.647,-2.6367,-2.6208,-2.5957,-2.5663,-2.5492,-2.5105,-2.4638,-2.4579,-2.4461,-2.4298,-2.4326,-2.4077,-2.3716,-2.4032,-2.3968,-2.3793,-2.345,-2.2871,-2.2125,-2.1123,-2.0495,-1.9911,-1.9264,-1.8519,-1.7969,-1.7765,-1.7139,-1.6376,-1.5621,-1.548,-1.5267,-1.4705,-1.4497,-1.4425,-1.4353,-1.4289,-1.3848,-1.2746,-1.2526,-1.2362,-1.1982,-1.189,-1.2014,-1.2287,-1.2339,-1.2254,-1.1997,-1.1997,-1.1992,-1.1906,-1.1986,-1.2072,-1.1986,-1.1986,-1.1901,-1.1649,-1.1386,-1.1305,-1.1225,-1.1047,-1.1052,-1.1311,-1.1574,-1.1923,0.0,0.0,0.0,-2.5593,0.0,0.0,0.0,0.0,-2.5525,0.0,0.0,0.0,0.0,0.0,0.0,0.0,0.0,0.0,0.0,0.0,0.0,0.0,0.0,0.0,0.0,0.0,0.0,0.0,0.0,0.0,-2.3735,-2.3837,-2.3816,-2.3795,-2.3831,-2.4212,-2.499,-2.5027,-2.5293,-2.5808,-2.6267,-2.6353,-2.6122,-2.6517,-2.6505,-2.6139,-2.6139,-2.5908,-2.5503,-2.5137,-2.4942,-2.4902,-2.4441,-2.4223,-2.4239,-2.4359,-2.4048,-2.3492,-2.3098,-2.3048,-2.3229,-2.3906,-2.369,-2.2967,-2.2187,-2.1514,-2.0764,-1.9671,-1.9341,-1.9274,-1.9142,-1.8519,-1.7833,-1.7139,-1.6385,-1.5621,-1.4776,-1.4641,-1.4641,-1.4641,-1.4569,-1.4489,-1.4201,-1.3928,-1.3564,-1.2746,-1.2452,-1.2211,-1.1903,-1.189,-1.177,-1.1359,-1.1322,-1.0982,-1.0125,-1.0125,-1.0381,-1.0982,-1.1821,-1.2242,-1.1986,-1.1986,-1.1563,-1.0636,-1.0448,-1.0019,-0.9345,-0.9087,-0.9428,-1.0381,-1.1311,-1.1569,0.0,0.0,-2.5605,-2.5609,0.0,0.0,0.0,0.0,0.0,0.0,0.0,0.0,0.0,0.0,0.0,0.0,0.0,0.0,0.0,0.0,0.0,0.0,0.0,0.0,0.0,0.0,0.0,0.0,-2.1181,0.0,0.0,-2.3816,-2.3795,-2.3795,-2.3795,-2.3876,-2.3993,-2.3815,-2.3742,-2.3746,-2.4712,-2.5137,-2.5067,-2.6199,-2.6624,-2.647,-2.621,-2.6016,-2.5872,-2.5465,-2.5121,-2.4863,-2.4719,-2.4467,-2.4166,-2.3797,-2.3508,-2.3187,-2.2653,-2.2559,-2.2656,-2.2821,-2.2987,-2.2967,-2.2237,-2.1502,-2.0828,-2.0291,-1.9375,-1.8519,-1.8385,-1.7482,-1.6455,-1.6245,-1.5542,-1.4919,-1.4641,-1.4346,-1.4049,-1.4049,-1.3615,-1.3251,-1.3112,-1.2746,-1.2224,-1.1706,-1.1111,-1.0619,-1.023,-1.0207,-1.0223,-1.0423,-1.0024,-0.9589,-0.9331,-0.8715,-0.8452,-0.8711,-0.9056,-0.9052,-0.8345,-0.9235,-0.9327,-0.8277,-0.8899,-0.9082,-0.8828,-0.874,-0.8828,-0.9174,-0.951,-0.9941,-2.5644,-2.5638,0.0,-2.5638,-2.5211,0.0,-2.5472,0.0,0.0,0.0,0.0,0.0,0.0,0.0,0.0,0.0,0.0,0.0,0.0,0.0,0.0,0.0,0.0,0.0,0.0,0.0,-1.9826,-2.2928,0.0,0.0,0.0,0.0,-2.3795,-2.3795,-2.3795,-2.3732,-2.362,-2.3353,-2.3109,-2.285,-2.3813,-2.4265,-2.4322,-2.5679,-2.6235,-2.6052,-2.5944,-2.5726,-2.5427,-2.516,-2.4808,-2.442,-2.4364,-2.409,-2.3625,-2.3436,-2.3038,-2.2491,-2.1956,-2.1852,-2.2018,-2.1914,-2.212,-2.2224,-2.1444,-2.0782,-2.0107,-1.9475,-1.8613,-1.7901,-1.7687,-1.6724,-1.5833,-1.5833,-1.5054,-1.4346,-1.4346,-1.3905,-1.347,-1.347,-1.3039,-1.2673,-1.2599,-1.1929,-1.126,-1.0962,-1.0293,-0.9781,-0.9352,-0.9322,-0.9483,-0.9995,-0.9331,-0.8803,-0.854,-0.8189,-0.7837,-0.7489,-0.758,-0.7316,-0.6428,-0.7319,-0.7408,-0.6609,-0.7231,-0.7584,-0.7584,-0.7584,-0.7584,-0.7584,-0.7584,-0.8021]},{"header":{"parameterUnit":"m.s-1","parameterCategory":1,"la1":30.6,"la2":29.2853,"lo1":-89.7004,"lo2":-87.6739,"dy":0.0162,"dx":0.0183,"nx":112,"ny":82,"refTime":"2024-08-06T06:00:00:Z","depth":0,"parameterNumber":3,"parameterNumberName":"V-component_of_WINDS"},"data":[0.0,0.0,0.0,0.0,0.0,0.0,0.0,0.0,0.0,0.0,0.0,0.0,0.0,0.0,0.0,0.0,0.0,0.0,0.0,0.0,0.0,0.0,0.0,0.0,0.0,0.0,0.0,0.0,0.0,0.0,0.0,0.0,0.0,0.0,0.0,0.0,0.0,0.0,0.0,0.0,0.0,0.0,0.0,0.0,0.0,0.0,0.0,0.0,0.0,0.0,0.0,0.0,0.0,0.0,0.0,0.0,0.0,0.0,0.0,0.0,0.0,0.0,0.0,0.0,0.0,0.0,0.0,0.0,0.0,0.0,0.0,0.0,0.0,0.0,0.0,0.0,0.0,0.0,0.0,0.0,0.0,0.0,0.0,0.0,0.0,0.0,0.0,0.0,0.0,0.0,0.0,-3.9237,-4.2908,-4.5204,-4.538,-4.4532,-4.2277,-3.8166,0.0,0.0,0.0,0.0,0.0,0.0,0.0,0.0,0.0,0.0,0.0,0.0,0.0,0.0,0.0,0.0,0.0,0.0,0.0,0.0,0.0,0.0,0.0,0.0,0.0,0.0,0.0,0.0,0.0,0.0,0.0,0.0,0.0,0.0,0.0,0.0,0.0,0.0,0.0,0.0,0.0,0.0,0.0,0.0,0.0,0.0,0.0,0.0,0.0,0.0,0.0,0.0,0.0,0.0,0.0,0.0,0.0,0.0,0.0,0.0,0.0,0.0,0.0,0.0,0.0,0.0,0.0,0.0,0.0,0.0,0.0,0.0,0.0,0.0,0.0,0.0,0.0,0.0,0.0,0.0,0.0,0.0,0.0,0.0,0.0,0.0,0.0,0.0,0.0,0.0,0.0,0.0,0.0,0.0,0.0,0.0,0.0,0.0,0.0,0.0,0.0,0.0,0.0,0.0,-3.6026,-4.1992,-4.4026,-4.4973,-4.4988,-4.3828,-4.1493,-3.7738,0.0,0.0,0.0,0.0,0.0,0.0,0.0,0.0,0.0,0.0,0.0,0.0,0.0,0.0,0.0,0.0,0.0,0.0,0.0,0.0,0.0,0.0,0.0,0.0,0.0,0.0,0.0,0.0,0.0,0.0,0.0,0.0,0.0,0.0,0.0,0.0,0.0,0.0,0.0,0.0,0.0,0.0,0.0,0.0,0.0,0.0,0.0,0.0,0.0,0.0,0.0,0.0,0.0,0.0,0.0,0.0,0.0,0.0,0.0,0.0,0.0,0.0,0.0,0.0,0.0,0.0,0.0,0.0,0.0,0.0,0.0,0.0,0.0,0.0,0.0,0.0,0.0,0.0,0.0,0.0,0.0,0.0,0.0,0.0,0.0,0.0,0.0,0.0,0.0,0.0,0.0,0.0,0.0,0.0,0.0,0.0,0.0,0.0,0.0,0.0,0.0,0.0,0.0,-3.4727,-3.7312,-4.3072,-4.4175,-4.458,-4.4783,-4.3479,-4.0935,-3.6994,-3.4601,0.0,0.0,0.0,0.0,0.0,0.0,0.0,0.0,0.0,0.0,0.0,0.0,0.0,0.0,0.0,0.0,0.0,0.0,0.0,0.0,0.0,0.0,0.0,0.0,0.0,0.0,0.0,0.0,0.0,0.0,0.0,0.0,0.0,0.0,0.0,0.0,0.0,0.0,0.0,0.0,0.0,0.0,0.0,0.0,0.0,0.0,0.0,0.0,0.0,0.0,0.0,0.0,0.0,0.0,0.0,0.0,0.0,0.0,0.0,0.0,0.0,0.0,0.0,0.0,0.0,0.0,0.0,0.0,0.0,0.0,0.0,0.0,0.0,0.0,0.0,0.0,0.0,0.0,0.0,0.0,0.0,0.0,0.0,0.0,0.0,0.0,0.0,0.0,0.0,0.0,0.0,0.0,0.0,0.0,0.0,0.0,0.0,0.0,0.0,0.0,0.0,0.0,-3.7145,-3.9091,-4.3434,-4.403,-4.4175,-4.4331,-4.2621,-3.9889,-3.6081,-3.3058,0.0,0.0,0.0,0.0,0.0,0.0,0.0,0.0,0.0,0.0,0.0,0.0,0.0,0.0,0.0,0.0,0.0,0.0,0.0,0.0,0.0,0.0,0.0,0.0,0.0,0.0,0.0,0.0,0.0,0.0,0.0,0.0,0.0,0.0,0.0,0.0,0.0,0.0,0.0,0.0,0.0,0.0,0.0,0.0,0.0,0.0,0.0,0.0,0.0,0.0,0.0,0.0,0.0,0.0,0.0,0.0,0.0,0.0,0.0,0.0,0.0,0.0,0.0,0.0,0.0,0.0,0.0,0.0,0.0,0.0,0.0,0.0,0.0,0.0,0.0,0.0,0.0,0.0,0.0,0.0,0.0,0.0,0.0,0.0,0.0,0.0,0.0,0.0,0.0,0.0,0.0,0.0,0.0,0.0,0.0,0.0,0.0,0.0,0.0,0.0,0.0,0.0,-3.764,-4.1085,-4.3296,-4.3758,-4.3767,-4.3323,-4.0627,-3.7764,-3.499,-3.0487,0.0,0.0,0.0,0.0,0.0,0.0,0.0,0.0,0.0,0.0,0.0,0.0,0.0,0.0,0.0,0.0,0.0,0.0,0.0,0.0,0.0,0.0,0.0,0.0,0.0,0.0,0.0,0.0,0.0,0.0,0.0,0.0,0.0,0.0,0.0,0.0,0.0,0.0,0.0,0.0,0.0,0.0,0.0,0.0,0.0,0.0,0.0,0.0,0.0,0.0,0.0,0.0,0.0,0.0,0.0,0.0,0.0,0.0,0.0,0.0,0.0,0.0,0.0,0.0,0.0,0.0,0.0,0.0,0.0,0.0,0.0,0.0,0.0,0.0,0.0,0.0,0.0,0.0,0.0,0.0,0.0,0.0,0.0,0.0,0.0,0.0,0.0,0.0,0.0,0.0,0.0,0.0,0.0,0.0,0.0,0.0,0.0,0.0,0.0,0.0,0.0,0.0,-3.5605,-3.8955,0.0,-4.3365,-4.3584,-4.3109,-4.1091,-3.8136,-3.4033,0.0,0.0,0.0,0.0,0.0,0.0,0.0,0.0,0.0,0.0,0.0,0.0,0.0,0.0,0.0,0.0,0.0,0.0,0.0,0.0,0.0,0.0,0.0,0.0,0.0,0.0,0.0,0.0,0.0,0.0,0.0,0.0,0.0,0.0,0.0,0.0,0.0,0.0,0.0,0.0,0.0,0.0,0.0,0.0,0.0,0.0,0.0,0.0,0.0,0.0,0.0,0.0,0.0,0.0,0.0,0.0,0.0,0.0,0.0,0.0,0.0,0.0,0.0,0.0,0.0,0.0,0.0,0.0,0.0,0.0,0.0,0.0,0.0,0.0,0.0,0.0,0.0,0.0,0.0,0.0,0.0,0.0,0.0,0.0,0.0,0.0,0.0,0.0,0.0,0.0,0.0,0.0,0.0,0.0,0.0,0.0,0.0,0.0,0.0,0.0,0.0,0.0,-3.1773,-3.4782,-3.7972,0.0,-4.2525,-4.2761,-4.2258,-4.0285,-3.728,-3.3063,0.0,0.0,0.0,0.0,0.0,0.0,0.0,0.0,0.0,0.0,0.0,0.0,0.0,0.0,0.0,0.0,0.0,0.0,0.0,0.0,0.0,0.0,0.0,0.0,0.0,0.0,0.0,0.0,0.0,0.0,0.0,0.0,0.0,0.0,0.0,0.0,0.0,0.0,0.0,0.0,0.0,0.0,0.0,0.0,0.0,0.0,0.0,0.0,0.0,0.0,0.0,0.0,0.0,0.0,0.0,0.0,0.0,0.0,0.0,0.0,0.0,0.0,0.0,0.0,0.0,0.0,0.0,0.0,0.0,0.0,0.0,0.0,0.0,0.0,0.0,0.0,0.0,0.0,0.0,0.0,0.0,0.0,0.0,0.0,0.0,0.0,0.0,0.0,0.0,0.0,0.0,0.0,0.0,0.0,0.0,0.0,0.0,0.0,0.0,0.0,0.0,0.0,-3.1872,-3.5693,-3.894,-4.0859,-4.1199,-4.11,-4.0634,-3.766,-3.4705,0.0,0.0,0.0,0.0,0.0,0.0,0.0,0.0,0.0,0.0,0.0,0.0,0.0,0.0,0.0,0.0,0.0,0.0,0.0,0.0,0.0,0.0,0.0,0.0,0.0,0.0,0.0,0.0,0.0,0.0,0.0,0.0,0.0,0.0,0.0,0.0,0.0,0.0,0.0,0.0,0.0,0.0,0.0,0.0,0.0,0.0,0.0,0.0,0.0,0.0,0.0,0.0,0.0,0.0,0.0,0.0,0.0,0.0,0.0,0.0,0.0,0.0,0.0,0.0,0.0,0.0,0.0,0.0,0.0,0.0,0.0,0.0,0.0,0.0,0.0,0.0,0.0,0.0,0.0,0.0,0.0,0.0,0.0,0.0,0.0,0.0,0.0,0.0,0.0,0.0,0.0,0.0,0.0,0.0,0.0,0.0,0.0,0.0,0.0,0.0,0.0,0.0,0.0,-3.1111,-3.4891,-3.8071,-3.9987,-4.0777,-4.0904,-4.0285,-3.8238,-3.5499,-3.1913,0.0,0.0,0.0,0.0,0.0,0.0,0.0,0.0,0.0,0.0,0.0,0.0,0.0,0.0,0.0,0.0,0.0,0.0,0.0,0.0,0.0,0.0,0.0,0.0,0.0,0.0,0.0,0.0,0.0,0.0,0.0,0.0,0.0,0.0,0.0,0.0,0.0,0.0,0.0,0.0,0.0,0.0,0.0,0.0,0.0,0.0,0.0,0.0,0.0,0.0,0.0,0.0,0.0,0.0,0.0,0.0,0.0,0.0,0.0,0.0,0.0,0.0,0.0,0.0,0.0,0.0,0.0,0.0,0.0,0.0,0.0,0.0,0.0,0.0,0.0,0.0,0.0,0.0,0.0,0.0,0.0,0.0,0.0,0.0,0.0,0.0,0.0,0.0,0.0,0.0,0.0,0.0,0.0,0.0,0.0,0.0,0.0,0.0,0.0,0.0,0.0,0.0,-3.0784,-3.4316,-3.7267,-3.9095,-3.9813,-3.9982,-3.9667,-3.8,-3.5551,-3.2182,0.0,0.0,0.0,0.0,0.0,0.0,0.0,0.0,0.0,0.0,0.0,0.0,0.0,0.0,0.0,0.0,0.0,0.0,0.0,0.0,0.0,0.0,0.0,0.0,0.0,0.0,0.0,0.0,0.0,0.0,0.0,0.0,0.0,0.0,0.0,0.0,0.0,0.0,0.0,0.0,0.0,0.0,0.0,0.0,0.0,0.0,0.0,0.0,0.0,0.0,0.0,0.0,0.0,0.0,0.0,0.0,0.0,0.0,0.0,0.0,0.0,0.0,0.0,0.0,0.0,0.0,0.0,0.0,0.0,0.0,0.0,0.0,0.0,0.0,0.0,0.0,0.0,0.0,0.0,0.0,0.0,0.0,0.0,0.0,0.0,0.0,0.0,0.0,0.0,0.0,0.0,0.0,0.0,0.0,0.0,0.0,0.0,0.0,0.0,0.0,0.0,0.0,-3.0808,-3.3938,-3.6552,-3.8295,-3.8609,-3.8719,-3.8833,-3.7206,-3.5155,-3.2763,0.0,0.0,0.0,0.0,0.0,0.0,0.0,0.0,0.0,0.0,0.0,0.0,0.0,0.0,0.0,0.0,0.0,0.0,0.0,0.0,0.0,0.0,0.0,0.0,0.0,0.0,0.0,0.0,0.0,0.0,0.0,0.0,0.0,0.0,0.0,0.0,0.0,0.0,0.0,0.0,0.0,0.0,0.0,0.0,0.0,0.0,0.0,0.0,0.0,0.0,0.0,0.0,0.0,0.0,0.0,0.0,0.0,0.0,0.0,0.0,-1.3527,0.0,0.0,0.0,0.0,0.0,0.0,0.0,0.0,0.0,0.0,0.0,0.0,0.0,0.0,0.0,0.0,0.0,0.0,0.0,0.0,0.0,0.0,0.0,0.0,0.0,0.0,0.0,0.0,0.0,0.0,0.0,0.0,0.0,0.0,0.0,0.0,0.0,0.0,0.0,0.0,0.0,-3.0958,-3.3946,-3.6526,-3.8295,-3.8478,-3.8496,-3.851,-3.6936,-3.5228,-3.3543,-2.9771,0.0,0.0,0.0,0.0,0.0,0.0,0.0,0.0,0.0,0.0,0.0,0.0,0.0,0.0,0.0,0.0,0.0,0.0,0.0,0.0,0.0,0.0,0.0,0.0,0.0,0.0,0.0,0.0,0.0,0.0,0.0,0.0,0.0,0.0,0.0,0.0,0.0,0.0,0.0,0.0,0.0,0.0,0.0,0.0,0.0,0.0,0.0,0.0,0.0,0.0,0.0,0.0,0.0,0.0,0.0,0.0,0.0,0.0,0.0,0.0,-1.4805,0.0,0.0,0.0,0.0,0.0,0.0,0.0,0.0,0.0,0.0,0.0,0.0,0.0,0.0,0.0,0.0,0.0,0.0,0.0,0.0,0.0,0.0,0.0,0.0,0.0,0.0,0.0,0.0,0.0,0.0,0.0,0.0,0.0,0.0,0.0,0.0,0.0,0.0,0.0,0.0,-3.1364,-3.4057,-3.6363,-3.8071,-3.8252,-3.8252,-3.8252,-3.6685,-3.5271,-3.4204,-3.1055,0.0,0.0,0.0,0.0,0.0,0.0,0.0,0.0,0.0,0.0,0.0,0.0,0.0,0.0,0.0,0.0,0.0,0.0,0.0,0.0,0.0,0.0,0.0,0.0,0.0,0.0,0.0,0.0,0.0,0.0,0.0,0.0,0.0,0.0,0.0,0.0,0.0,0.0,0.0,0.0,0.0,0.0,0.0,0.0,0.0,0.0,0.0,0.0,0.0,0.0,0.0,0.0,0.0,-1.1124,-1.2251,-1.4402,-1.4402,-1.417,-1.3794,-1.393,-1.4433,-1.5221,0.0,0.0,0.0,0.0,0.0,0.0,0.0,0.0,0.0,0.0,0.0,0.0,0.0,0.0,0.0,0.0,0.0,0.0,0.0,0.0,0.0,0.0,0.0,0.0,0.0,-2.9375,-2.9772,0.0,0.0,0.0,0.0,0.0,0.0,0.0,0.0,0.0,0.0,0.0,0.0,-3.1981,-3.4243,-3.6215,-3.7837,-3.8052,-3.8086,-3.8086,-3.6489,-3.5299,-3.4836,-3.2502,-3.0344,0.0,0.0,0.0,0.0,0.0,0.0,0.0,0.0,0.0,0.0,0.0,0.0,0.0,0.0,0.0,0.0,0.0,0.0,0.0,0.0,0.0,0.0,0.0,0.0,0.0,0.0,0.0,0.0,0.0,0.0,0.0,0.0,0.5647,0.4551,0.0,0.0,0.0,0.0,0.0,0.0,0.0,0.0,0.0,0.0,0.0,0.0,0.0,-0.7495,-0.768,-0.833,-0.9616,-1.1286,-1.1783,-1.2821,-1.4324,-1.4324,-1.4933,-1.6139,-1.6884,0.0,-1.5879,-1.7145,0.0,0.0,0.0,0.0,0.0,0.0,0.0,0.0,0.0,0.0,0.0,0.0,0.0,0.0,0.0,0.0,0.0,0.0,0.0,0.0,0.0,0.0,-3.0758,-3.0571,-3.0894,-3.123,0.0,-2.9554,-2.7939,-2.7788,-2.6301,0.0,0.0,0.0,0.0,0.0,0.0,0.0,-3.2679,-3.4447,-3.6167,-3.7905,-3.8002,-3.7934,-3.7934,-3.6474,-3.5598,-3.5628,-3.2885,-3.1224,-3.1112,-2.8913,0.0,0.0,0.0,0.0,0.0,0.0,0.0,0.0,0.0,0.0,0.0,0.0,0.0,0.0,0.0,0.0,0.0,0.0,0.0,0.0,0.0,0.0,0.0,0.0,0.0,0.0,0.0,0.0,0.0,0.5019,0.4397,0.3097,0.233,0.146,0.0,0.0,0.0,0.0,0.0,0.0,0.0,0.0,0.0,-0.8108,-0.8012,-0.8493,-0.9602,-0.9553,-1.0514,-1.2451,-1.2665,-1.3588,-1.4955,-1.5497,-1.6211,-1.7026,-1.8688,-1.9037,-1.8608,-1.9419,-2.0074,-2.0758,0.0,0.0,0.0,0.0,-2.4332,-2.4473,-2.5452,-2.5661,0.0,-2.5007,0.0,0.0,0.0,0.0,0.0,0.0,0.0,0.0,0.0,0.0,0.0,-3.1852,-3.2273,-3.253,-3.2866,-3.1851,-3.0723,0.0,-2.9419,-2.8588,-2.7236,0.0,0.0,0.0,0.0,0.0,-3.3128,-3.4729,-3.6131,-3.7343,-3.7429,-3.7288,-3.7006,-3.602,-3.5343,-3.5248,-3.3587,-3.2454,-3.2176,-3.0709,-2.9167,0.0,0.0,0.0,0.0,0.0,0.0,0.0,0.0,0.0,0.0,0.0,0.0,0.0,0.0,0.0,0.0,0.0,0.0,0.0,0.0,0.0,0.0,0.0,0.0,0.0,0.0,0.0,0.0,0.3822,0.3077,0.1922,0.0643,-0.0398,0.0,0.0,0.0,0.0,0.0,0.0,-0.7146,-0.7288,-0.8016,-0.9602,-0.9218,-0.9818,-1.146,-1.1179,-1.1906,-1.3784,-1.3978,-1.4747,-1.5906,-1.6915,-1.7604,-1.8179,-2.014,-2.1065,-2.1377,-2.1624,-2.1464,-2.1319,-2.2665,-2.3191,-2.3472,-2.524,-2.58,-2.598,-2.7451,-2.7856,-2.7561,-2.7211,0.0,-2.6691,-2.5394,0.0,0.0,0.0,0.0,-2.8713,-3.0212,-3.0871,-3.1415,-3.2524,-3.3043,-3.3346,-3.3555,-3.3596,-3.3201,0.0,-3.1958,-3.1489,-2.9513,0.0,0.0,0.0,0.0,-3.23,-3.3808,-3.5016,-3.6015,-3.6803,-3.6891,-3.6714,-3.6292,-3.5598,-3.505,-3.4775,-3.4032,-3.3387,-3.2865,-3.2155,-3.0987,-2.937,0.0,0.0,0.0,0.0,0.0,0.0,0.0,0.0,0.0,0.0,0.0,0.0,0.0,0.0,0.0,0.0,0.0,0.0,0.0,0.0,0.0,0.0,0.0,0.0,0.0,0.0,0.0,0.0,0.0,0.1221,-0.0352,0.0,0.0,0.0,0.0,-0.6416,-0.6444,-0.6867,-0.8099,-0.8574,-0.9353,-1.0377,-1.0886,-1.1662,-1.2646,-1.3634,-1.4321,-1.4899,-1.5974,-1.6662,-1.7232,-1.8241,-1.9314,-2.0477,-2.1462,-2.2476,-2.3327,-2.2791,-2.3307,-2.4572,-2.4888,-2.5625,-2.6714,-2.6971,-2.7256,-2.7501,-2.7672,-2.7699,-2.7767,-2.8339,-2.7773,-2.7017,-2.7469,-2.7041,0.0,0.0,-2.8707,-3.0204,-3.0806,-3.1665,-3.2305,-3.2437,-3.285,-3.3293,-3.3309,-3.4153,-3.4535,0.0,-3.2665,-3.2282,-3.2036,0.0,-3.2423,-3.2798,-3.2978,-3.3604,-3.4967,-3.5295,-3.5727,-3.6528,-3.6615,-3.6479,-3.6145,-3.551,-3.4947,-3.4612,-3.3975,-3.3569,-3.3532,-3.2848,-3.166,-3.0002,-2.771,0.0,0.0,0.0,0.0,0.0,0.0,0.0,0.0,0.0,0.0,0.0,0.0,0.0,0.0,0.0,0.0,0.0,0.0,0.0,0.0,0.0,0.0,0.0,0.0,0.0,0.0,0.0,0.0,-0.0279,-0.1354,0.0,-0.4004,-0.511,-0.6257,-0.756,-0.7595,-0.8113,-0.9132,-0.9886,-1.0782,-1.2102,-1.2491,-1.3486,-1.5216,-1.4937,-1.5134,-1.5994,-1.6393,-1.6958,-1.7598,-1.8603,-1.9786,-2.115,-2.2227,-2.3221,-2.4016,-2.4522,-2.4647,-2.4614,-2.5604,-2.6274,-2.6726,-2.7426,-2.7881,-2.8199,-2.8498,-2.8754,-2.8983,-2.9407,-2.9068,-2.8584,-2.9013,-2.9013,-2.8892,-2.9198,-3.0243,-3.1288,-3.1571,-3.1967,-3.2358,-3.2648,-3.2881,-3.3112,-3.3256,-3.3626,-3.3887,-3.3777,-3.3872,-3.3835,-3.3592,-3.3786,-3.4028,-3.4174,-3.5057,-3.5668,-3.5583,-3.6019,-3.6268,-3.6122,-3.5557,-3.5232,-3.5131,-3.4447,-3.3748,-3.3151,-3.2892,-3.2529,-3.2019,-3.1764,-3.1133,-3.0013,-2.8693,-2.698,0.0,0.0,0.0,0.0,0.0,0.0,0.0,0.0,0.0,0.0,0.0,0.0,0.0,0.0,0.0,0.0,0.0,0.0,0.0,0.0,0.0,0.0,0.0,0.0,0.0,0.0,-0.0074,-0.1638,-0.28,-0.4089,-0.5375,-0.6587,-0.7541,-0.8438,-0.8654,-0.9125,-0.9912,-1.1063,-1.2177,-1.3499,-1.407,-1.5216,-1.6864,-1.6096,-1.6096,-1.6864,-1.6864,-1.7326,-1.8234,-1.9239,-2.0413,-2.1863,-2.295,-2.3841,-2.4625,-2.5559,-2.5585,-2.5201,-2.6368,-2.6771,-2.6852,-2.778,-2.8226,-2.8582,-2.91,-2.9463,-2.9713,-2.9913,-2.9857,-2.9766,-3.0075,-3.0308,-3.0467,-3.0582,-3.1195,-3.1841,-3.1898,-3.2038,-3.2206,-3.2499,-3.2664,-3.2773,-3.2973,-3.3065,-3.3208,-3.3471,-3.4235,-3.4818,-3.4656,-3.4947,-3.525,-3.5392,-3.6231,-3.6763,-3.648,-3.6603,-3.6552,-3.6033,-3.5245,-3.4695,-3.4486,-3.3736,-3.3103,-3.2669,-3.2145,-3.1738,-3.1483,-3.1018,-3.0498,-2.9944,-2.9137,-2.7875,-2.6103,0.0,0.0,0.0,0.0,0.0,0.0,0.0,0.0,0.0,0.0,0.0,0.0,0.0,0.0,0.0,0.0,0.0,0.0,0.0,0.0,0.0,0.0,0.0,0.0472,-0.0867,-0.2065,-0.274,-0.4753,-0.6201,-0.6595,-0.7695,-0.8608,-0.9064,-0.9556,-1.0018,-1.0498,-1.2155,-1.3499,-1.4268,-1.5615,-1.6567,-1.7326,-1.7326,-1.7326,-1.7326,-1.7326,-1.7963,-1.9131,-2.0141,-2.1391,-2.2736,-2.3744,-2.4615,-2.52,-2.5728,-2.6135,-2.6554,-2.7112,-2.7304,-2.74,-2.7977,-2.8363,-2.8677,-2.9384,-2.9741,-2.9837,-2.9822,-3.0068,-3.0326,-3.0568,-3.0821,-3.1132,-3.1292,-3.1539,-3.1799,-3.1799,-3.1898,-3.1996,-3.1996,-3.2191,-3.2398,-3.2398,-3.2586,-3.2695,-3.2492,-3.3799,-3.5029,-3.5255,-3.5673,-3.6187,-3.6645,-3.6572,0.0,-3.7564,-3.693,-3.643,-3.6413,-3.5726,-3.4979,-3.425,-3.3515,-3.3143,-3.3214,-3.1815,-3.1329,-3.2089,-3.0712,-2.9922,-2.9888,-2.9101,-2.8379,-2.7803,0.0,0.0,0.0,0.0,0.0,0.0,0.0,0.0,0.0,0.0,0.0,0.0,0.0,0.0,0.0,0.0,0.0,0.0,0.0,0.0,0.0,0.0,0.0514,0.0514,-0.1093,-0.2714,-0.3781,-0.5298,-0.6678,-0.8026,-0.8554,-0.9356,-1.0511,-1.0329,-1.0835,-1.2247,-1.3403,-1.4364,-1.5026,-1.6372,-1.7138,-1.7326,-1.7326,-1.7326,-1.7326,-1.7707,-1.8265,-1.8904,-2.0076,-2.1329,-2.257,-2.3627,-2.4498,-2.5285,-2.6041,-2.6362,-2.6517,-2.7047,-2.7256,-2.7335,-2.8258,-2.9314,-3.02,-3.028,-3.0468,-3.0572,-3.0192,-3.0219,-3.0568,-3.0895,-3.1014,-3.1146,-3.1366,-3.1539,-3.1597,-3.1727,-3.1841,-3.1898,-3.1996,-3.2053,-3.2094,-3.2094,-3.215,-3.2453,-3.3145,-3.3582,-3.4046,-3.4748,-3.5663,-3.6499,-3.7034,-3.7635,0.0,-3.7452,-3.7219,-3.6885,-3.648,-3.5379,-3.4576,-3.4237,-3.3698,-3.2841,-3.1512,-3.106,-3.0692,-3.0341,-3.0559,-3.0957,-3.1528,-3.0803,-3.0348,0.0,0.0,0.0,0.0,0.0,0.0,0.0,0.0,0.0,0.0,0.0,0.0,0.0,0.0,0.0,0.0,0.0,0.0,0.0,0.0,0.0,0.0,0.0299,-0.0159,-0.0161,-0.1496,-0.3001,-0.4459,-0.5817,-0.7201,-0.8703,-0.9319,-0.99,-1.0792,-1.1287,-1.196,-1.3022,-1.437,-1.5324,-1.5697,-1.6756,-1.7326,-1.7326,-1.7326,-1.7426,-1.7613,-1.7994,-1.8812,-2.0085,-2.0718,-2.1952,0.0,-2.4231,-2.5009,-2.5779,-2.6279,-2.661,0.0,0.0,0.0,0.0,0.0,-2.9678,-3.0539,-3.0908,-3.0998,-3.0982,-3.0688,-3.0632,-3.0642,-3.0895,-3.1014,-3.1132,-3.1351,-3.1467,-3.1539,-3.167,-3.167,-3.167,-3.1769,-3.1769,-3.1769,-3.1769,-3.1769,-3.2079,-3.2933,-3.3214,0.0,-3.433,-3.5136,-3.5906,-3.6638,-3.7137,-3.7486,-3.7635,-3.7386,-3.7169,-3.6978,-3.6055,-3.5266,-3.484,-3.4001,0.0,0.0,0.0,-3.0438,-2.9665,-3.0812,0.0,0.0,0.0,0.0,0.0,0.0,0.0,0.0,-3.3353,-3.3802,0.0,0.0,0.0,0.0,0.0,0.0,0.0,0.0,0.0,0.0,0.0,0.0,0.0,0.0,0.0,0.0,-0.0405,-0.1108,-0.1132,-0.2004,-0.3152,-0.4809,-0.6291,-0.7681,-0.9003,-0.9803,-1.0314,-1.0511,-1.2058,-1.3119,-1.3312,0.0,0.0,0.0,0.0,-1.7326,-1.7326,-1.7326,-1.752,-1.7986,-1.8087,-1.9355,-2.1516,-2.1695,-2.2921,-2.5031,-2.52,-2.5695,-2.6445,-2.6528,-2.6787,-2.7231,-2.7231,-2.7301,-2.7487,-2.8797,-2.967,-3.0349,-3.132,0.0,0.0,-3.1209,-3.0921,-3.0568,-3.0762,-3.0895,-3.1073,-3.1234,-3.1351,-3.1467,-3.1467,-3.1482,-3.1482,-3.1482,-3.1482,-3.1482,-3.1482,-3.1482,-3.1697,-3.2327,-3.2895,-3.3407,-3.4034,-3.4497,-3.4954,-3.5744,-3.5828,-3.6306,-3.7713,-3.7399,-3.7236,-3.7694,0.0,0.0,-3.5889,-3.4584,-3.3933,-3.4178,-3.2319,-3.0952,-3.0387,-3.183,-3.2672,-3.2741,-3.4135,-3.5253,-3.6023,-3.6807,-3.69,-3.6333,-3.5092,-3.5257,0.0,0.0,0.0,0.0,0.0,0.0,0.0,0.0,0.0,0.0,0.0,0.0,0.0,0.0,0.0,0.0,-0.067,-0.1133,-0.1334,-0.2314,-0.3559,-0.4819,-0.7024,-0.8524,-0.9096,-0.9514,-1.0117,-1.0998,-1.196,-1.3113,-1.4663,-1.5622,0.0,-1.7044,-1.7232,-1.7326,-1.7326,-1.7326,-1.7326,-1.7426,0.0,0.0,-2.0249,-2.1686,-2.2853,-2.3927,-2.5211,-2.5895,-2.6063,-2.6809,-2.7149,-2.7231,-2.7371,-2.7777,-2.8327,-2.9102,-3.0188,-3.1249,-3.1273,-3.143,-3.1517,-3.1147,-3.0735,-3.0387,-3.0702,-3.0821,0.0,-3.1073,-3.1249,-3.1351,-3.1351,-3.1409,-3.1482,-3.1482,-3.1482,-3.1482,-3.1482,-3.1482,-3.1796,-3.2826,-3.3145,-3.3511,-3.4431,-3.4739,-3.4901,-3.4937,-3.5465,-3.5843,-3.6073,-3.6516,-3.6984,-3.7484,-3.7221,-3.6922,-3.6614,-3.6145,-3.5349,-3.4187,-3.3766,-3.384,-3.4416,-3.5403,-3.5941,-3.6055,-3.6363,-3.6662,-3.6871,-3.7111,-3.7484,-3.8034,-3.7869,-3.7966,0.0,0.0,0.0,0.0,0.0,0.0,0.0,0.0,0.0,0.0,0.0,0.1603,0.1028,0.0,0.0242,-0.0502,-0.0952,-0.1507,-0.2236,-0.322,-0.4198,-0.4907,-0.6684,-0.8144,-0.8991,-0.981,-1.0687,-1.1663,-1.2926,-1.4268,-1.5622,-1.6379,-1.6951,-1.7326,-1.7326,-1.7419,-1.7707,-1.7707,-1.7978,-1.8442,-1.9004,-1.9729,-2.0709,-2.1516,-2.258,-2.382,-2.4669,-2.5443,-2.6218,-2.6891,-2.7231,-2.7231,-2.7441,-2.7777,-2.8271,-2.9069,-2.9948,-3.0804,-3.1186,-3.1348,-3.1326,-3.1217,-3.0859,-3.0507,-3.0642,-3.0762,-3.0821,-3.1014,-3.119,-3.1351,-3.1409,-3.1467,-3.1482,-3.1482,-3.1482,-3.1482,-3.1482,-3.1697,-3.212,-3.2933,-3.3266,-3.3713,-3.4497,-3.4659,-3.4643,-3.4497,-3.4808,-3.5185,-3.5444,-3.5956,-3.6422,-3.6947,-3.7507,-3.7716,-3.7463,-3.7157,-3.6328,-3.4757,-3.4684,-3.493,-3.5457,-3.6314,-3.6795,-3.6895,-3.7377,-3.7627,-3.7642,-3.774,-3.7986,-3.8446,-3.9017,-3.947,0.0,0.0,0.0,0.0,0.0,0.0,0.0,0.0,0.3085,0.2356,0.1846,0.1291,0.0397,0.0165,-0.017,-0.1047,-0.1332,-0.1792,-0.3041,-0.4022,-0.4823,-0.5265,-0.6535,-0.7781,-0.8987,-1.0004,-1.1053,-1.2032,-1.3788,-1.514,-1.5906,-1.685,-1.7326,-1.7326,-1.7326,-1.752,-1.7893,-1.8087,-1.8542,-1.9271,-1.9546,-2.0184,-2.1266,-2.1526,-2.2492,-2.3973,-2.4317,-2.5253,-2.6704,-2.7056,-2.7231,-2.7231,-2.7441,-2.7696,-2.8042,-2.8846,-2.9555,-3.0118,-3.0936,-3.1059,-3.0913,-3.118,-3.0935,-3.0522,-3.0568,-3.0702,-3.0762,-3.0955,-3.1117,-3.1234,-3.1366,-3.1424,-3.1424,-3.1467,-3.1424,-3.1482,-3.1582,-3.1853,-3.2342,-3.3018,-3.3455,-3.3848,-3.4349,-3.4448,-3.4448,-3.43,-3.43,-3.4512,-3.5047,-3.5446,-3.5877,-3.6424,-3.7473,-3.8113,-3.8169,-3.7978,-3.7273,-3.5989,-3.5917,-3.5881,-3.5858,-3.6518,-3.6928,-3.7045,-3.7763,-3.8174,-3.8192,-3.8274,-3.8413,-3.8656,-3.9561,-4.0408,0.816,0.7591,0.7344,0.6105,0.5579,0.5068,0.0,0.0,0.1661,0.1703,0.0744,-0.0251,-0.0514,-0.0778,-0.1048,-0.1337,-0.1343,-0.1792,-0.3041,-0.4198,-0.5354,-0.6511,-0.7631,-0.8528,-0.908,-0.9345,-1.0101,-1.1272,-1.2823,-1.4166,-1.5146,-1.6567,-1.7326,-1.7326,-1.7326,-1.7326,-1.7426,-1.7893,-1.8179,-1.8272,-1.918,-2.0002,-2.0727,-2.1784,-2.2765,-2.3667,-2.5041,-2.6218,-2.7138,-2.7149,-2.7231,-2.7231,-2.7441,-2.7696,-2.7973,-2.8259,-2.9046,-3.0045,-3.0118,-3.035,-3.0594,-3.0913,-3.0625,-3.0233,-3.0522,-3.0628,-3.0642,-3.0642,-3.0762,-3.0881,-3.1073,-3.1132,-3.119,-3.1292,-3.1234,-3.1307,-3.1781,-3.1879,-3.2272,-3.3419,-3.3642,-3.3848,-3.425,-3.43,-3.43,-3.43,-3.43,-3.4283,-3.4264,-3.4832,-3.5578,-3.6315,-3.6645,-3.7281,-3.8347,-3.8587,-3.8594,-3.8415,-3.8415,-3.8113,-3.747,-3.7524,-3.7684,-3.7857,-3.7982,-3.8088,-3.8192,-3.8274,-3.867,-3.9397,-4.0281,-4.0854,0.5876,0.5589,0.0,0.0,0.4333,0.3978,0.295,0.1999,0.1202,0.0763,0.0086,-0.0518,-0.0882,-0.1063,-0.1155,0.0,-0.1436,-0.1972,-0.3755,-0.4554,-0.562,-0.7397,-0.8178,-0.8697,-0.9068,-0.972,-1.0645,-1.1741,-1.3403,-1.4848,-1.5717,-1.6763,-1.7326,-1.7326,-1.7326,-1.7419,-1.78,-1.8272,-1.8635,-1.9004,-1.9646,-2.0192,-2.0464,-2.1436,-2.258,-2.3897,-2.5285,-2.6229,-2.6787,-2.7056,-2.7231,-2.7231,-2.7301,-2.7279,-2.7275,-2.7648,-2.8498,-2.9425,-2.9099,-2.947,-3.0157,-3.0372,-3.0387,-3.0266,-3.0507,-3.0568,-3.0642,-3.0702,-3.0762,-3.0821,-3.1073,-3.1087,-3.1132,-3.119,-3.1132,-3.1249,-3.1766,-3.2089,-3.2547,-3.3435,-3.3745,-3.4,-3.4151,-3.4201,-3.4201,-3.4201,-3.4201,-3.4151,-3.4101,-3.441,-3.5186,-3.6544,-3.6746,-3.7222,-3.8386,-3.8561,-3.848,-3.813,-3.8094,-3.797,-3.7667,-3.7667,-3.7792,-3.7951,-3.8002,-3.807,-3.8192,-3.8225,-3.8422,-3.8834,-4.014,-4.0826,0.3969,0.0,0.0,0.3329,0.3199,0.2866,0.1809,0.1242,0.0752,0.0086,-0.0261,-0.0611,-0.0969,-0.1063,-0.1156,-0.1334,-0.1608,-0.2508,-0.4467,-0.5087,-0.6151,-0.8113,-0.8476,-0.8706,-0.9064,-0.9837,-1.0834,-1.2114,-1.3692,-1.5045,-1.6008,-1.6857,-1.7326,-1.7326,-1.7326,-1.752,-1.7893,-1.8458,-1.9004,-1.9371,-2.0019,-2.0292,-2.0292,-2.1266,-2.2658,-2.4488,-2.5369,-2.6052,-2.6528,-2.688,-2.7056,-2.7231,-2.7231,-2.7082,-2.7032,-2.7054,-2.7717,-2.8473,-2.8131,-2.8479,-2.9233,-2.9637,-2.9884,-3.0054,-3.0447,-3.0568,-3.0642,-3.0702,-3.0762,-3.0762,-3.0955,-3.1014,-3.0955,-3.1014,-3.1132,-3.1336,-3.1936,-3.2422,-3.2964,-3.3539,-3.3899,-3.4101,-3.4101,-3.4101,-3.4101,-3.4101,-3.4101,-3.4101,-3.4101,-3.4382,-3.5032,-3.6299,-3.6666,-3.7266,-3.8232,-3.8347,-3.8217,-3.7877,-3.7842,-3.7772,-3.7594,-3.7649,-3.7721,-3.7846,-3.7951,-3.8054,-3.8122,-3.8174,-3.8334,-3.8637,-4.0017,-4.0797,0.0,0.0,0.3323,0.231,0.219,0.1968,0.0688,0.0174,0.0,-0.0261,-0.0522,-0.0778,-0.0932,-0.1031,-0.1133,-0.1392,-0.221,-0.3312,-0.4821,-0.5794,-0.6949,-0.8388,-0.8568,-0.8706,0.0,-0.9096,-0.9897,-1.1823,-1.3006,-1.4166,-1.573,-1.677,-1.7326,-1.7326,-1.7326,-1.7333,-1.7326,-1.8265,-1.8827,-1.8827,-1.9837,-2.0292,-2.0382,-2.1695,-2.3357,-2.52,-2.52,-2.5695,-2.6528,-2.6528,-2.6787,-2.7231,-2.7231,-2.7278,-2.7383,-2.6616,-2.6562,-2.6959,-2.7172,-2.7352,-2.7736,-2.8684,-2.9066,-2.9254,-3.0312,-3.0568,-3.0568,-3.0568,-3.0628,-3.0642,-3.0762,-3.0702,-3.0642,-3.0762,-3.1161,-3.1652,-3.2272,-3.2788,-3.3355,-3.3984,-3.4101,-3.4101,-3.4101,-3.4101,-3.4101,-3.4101,-3.4101,-3.4101,-3.4101,-3.4706,-3.5178,-3.5258,-3.6122,-3.7015,-3.7753,-3.7988,-3.8232,-3.8447,-3.8486,-3.8209,-3.7612,-3.7613,-3.7649,-3.7703,-3.7846,-3.7916,-3.8018,-3.814,-3.859,-3.9369,-4.0148,-4.098,0.0,0.0,0.191,0.1285,0.0915,0.0685,0.0176,-0.0176,-0.052,-0.0513,-0.0674,-0.0827,-0.097,-0.1148,-0.1256,-0.1358,-0.2165,-0.3258,-0.4548,-0.5779,-0.7062,-0.8216,-0.8681,0.0,0.0,0.0,0.0,-1.2104,-1.325,-1.4465,-1.5994,-1.6857,-1.7326,-1.7326,-1.7326,-1.7426,-1.78,-1.8458,-1.9012,-1.9371,-2.0456,-2.1257,-2.1695,-2.2677,-2.3907,-2.52,-2.5549,-2.5957,-2.6528,-2.688,-2.7056,-2.7231,-2.7231,-2.6806,-2.632,-2.614,-2.5851,-2.56,-2.6425,-2.7033,-2.767,-2.8583,-2.8839,-2.9044,-2.996,-3.0341,-3.0387,-3.0387,-3.0507,-3.0628,-3.0642,-3.0642,-3.0628,-3.0642,-3.0807,-3.1204,-3.216,-3.2547,-3.2964,-3.3933,-3.4101,-3.4101,-3.4101,-3.4101,-3.4101,-3.4101,-3.4101,-3.4101,-3.4101,-3.4529,-3.4961,-3.5178,-3.5722,-3.6379,-3.7009,-3.7132,-3.7271,-3.7492,-3.7627,-3.7618,-3.7427,-3.7521,-3.7613,-3.7703,-3.7739,-3.7828,-3.7916,-3.7969,-3.8164,-3.8487,-3.9515,-4.0175,0.0,0.0689,0.0884,0.0505,0.0087,-0.0176,-0.0266,-0.0524,-0.0766,-0.0737,-0.0876,-0.0933,-0.0986,-0.1079,-0.1192,-0.1323,-0.2131,-0.3241,-0.4499,-0.588,-0.7122,-0.8211,-0.8766,-0.912,0.0,0.0,0.0,-1.2485,-1.3541,-1.476,-1.6379,-1.6951,-1.7326,-1.7326,-1.752,-1.7613,-1.78,-1.8635,-1.9371,-1.9828,-2.0907,-2.1793,-2.2394,-2.3135,-2.4013,-2.4956,-2.5306,-2.5717,-2.629,-2.6644,-2.6891,-2.7208,-2.7024,-2.6554,-2.5934,-2.5796,-2.5401,-2.5025,-2.5737,-2.6483,-2.7271,-2.8117,-2.8597,-2.8994,-2.9851,-3.0158,-3.0219,-3.0219,-3.0326,-3.0462,-3.0447,-3.0507,-3.0507,-3.0568,-3.0911,-3.148,-3.2216,-3.2711,-3.3245,-3.3933,-3.4101,-3.405,-3.3949,-3.3899,-3.3848,-3.3949,-3.3949,-3.4,-3.4101,-3.4578,-3.4961,-3.5178,-3.5677,-3.6131,-3.6502,-3.6544,-3.6667,-3.6869,-3.7066,-3.722,-3.7314,-3.7337,-3.7356,-3.7413,-3.7468,-3.7522,-3.7613,-3.7828,-3.7916,-3.8003,-3.9009,-3.959,0.0526,0.0237,0.0083,0.0,-0.0265,-0.0445,-0.0698,-0.0853,-0.0988,-0.0919,-0.0887,-0.0936,0.0,0.0,-0.1044,-0.1283,-0.2189,-0.3338,-0.476,-0.5991,-0.7295,0.0,0.0,0.0,0.0,0.0,0.0,-1.2989,0.0,-1.5121,-1.6885,-1.7246,-1.7326,-1.7326,-1.78,-1.78,-1.7326,-1.8812,-1.9828,-2.0292,-2.1087,-2.1793,-2.2394,-2.3222,-2.3937,-2.454,-2.454,-2.5052,-2.5895,-2.5895,-2.6396,-2.7185,-2.6691,-2.6473,-2.6391,-2.5553,-2.5233,-2.5191,-2.5075,-2.5594,-2.6471,-2.7365,-2.8168,-2.8931,-2.9789,-3.005,-3.0111,-3.0111,-3.0111,-3.0111,-3.0266,-3.0312,-3.0326,-3.0507,-3.1495,-3.2342,-3.2398,-3.3245,-3.4,-3.405,-3.405,-3.4,-3.3694,-3.345,-3.3398,-3.3658,-3.3694,-3.3797,-3.405,-3.4754,-3.5224,-3.5224,-3.5854,-3.6301,-3.6301,-3.6301,-3.6402,-3.6702,-3.6869,-3.7105,-3.7297,-3.7052,-3.69,-3.6939,-3.7052,-3.7091,-3.7147,-3.7631,-3.7899,-3.7917,-3.869,-3.9258,-0.0162,-0.0339,-0.0439,-0.0533,-0.053,-0.0698,-0.0854,-0.0906,-0.0941,-0.0872,-0.098,-0.1015,-0.0838,0.0,0.0,-0.2139,-0.317,0.0,-0.5756,-0.7114,0.0,0.0,0.0,-0.955,-0.9931,-1.011,0.0,0.0,-1.4093,-1.501,-1.7131,-1.7239,-1.7326,-1.7326,-1.7419,-1.7613,-1.7893,-1.8996,-1.9828,-2.0292,-2.1526,-2.2217,-2.2394,-2.3657,-2.4368,-2.454,-2.4871,-2.538,-2.5895,-2.6207,-2.6715,-2.7219,-2.7082,-2.6577,-2.5876,-2.5678,-2.5188,-2.4664,-2.4681,-2.4981,-2.5664,-2.6909,-2.7591,-2.8078,-2.9338,-2.9789,-2.9884,-2.9884,-2.9974,-3.0111,-3.0172,-3.0219,-3.0312,-3.0387,-3.0911,-3.148,-3.1936,-3.2437,-3.2996,-3.345,-3.3503,-3.3503,-3.3398,-3.3361,-3.3309,-3.3398,-3.3555,-3.3797,-3.405,-3.4754,-3.5224,-3.5224,-3.5854,-3.6301,-3.6301,-3.6301,-3.6402,-3.6702,-3.6869,-3.7105,-3.7297,-3.7052,-3.7073,-3.7411,-3.7111,-3.7111,-3.7466,-3.7631,-3.7685,-3.7775,-3.8211,-3.8819,-0.0508,-0.07,-0.0897,-0.0897,-0.0972,-0.1033,-0.1073,-0.1103,-0.104,-0.0948,-0.0974,0.0,-0.0791,0.0,0.0,0.0,0.0,0.0,-0.6111,-0.7166,-0.8083,0.0,-0.9307,0.0,-0.9867,-1.044,-1.1668,0.0,-1.404,-1.5061,-1.7225,-1.7326,-1.7326,-1.7326,-1.752,-1.7986,-1.8727,-1.9096,-1.9554,-2.0292,-2.1695,-2.2394,-2.2482,-2.3831,-2.454,-2.454,0.0,-2.5126,-2.5633,-2.6052,-2.6456,-2.6835,-2.6657,-2.6221,-2.5658,-2.521,-2.4768,-2.4345,-2.4345,-2.4562,-2.5111,-2.6705,-2.7524,-2.813,-2.9275,-2.9651,-2.9699,-2.9699,-2.9789,-2.9913,-2.9974,-3.0007,-3.0129,-3.0447,-3.0896,-3.148,-3.1992,-3.2453,-3.2904,-3.324,-3.3203,-3.3096,-3.3096,-3.2973,-3.2958,-3.3096,-3.3346,-3.3607,-3.3899,-3.4658,-3.5224,-3.5224,-3.5854,-3.6301,-3.6301,-3.6174,-3.6276,-3.6643,-3.6731,-3.6913,-3.7297,-3.6838,-3.6741,-3.6978,-3.6563,-3.6539,-3.6995,-3.7206,-3.7319,-3.7356,-3.7762,-3.8364,-0.0782,-0.0974,-0.1165,-0.1162,-0.1228,-0.1355,-0.1266,-0.1198,-0.1122,-0.1006,0.0,-0.0883,-0.0938,-0.1507,-0.2113,-0.2564,0.0,-0.4483,-0.6277,-0.6917,-0.7711,-0.9008,-0.943,-0.9628,-0.9727,-1.0605,-1.1863,-1.3488,-1.4166,-1.5317,-1.7232,-1.7326,-1.7326,-1.7326,-1.7707,-1.845,-1.9371,-1.8912,-1.9188,-2.0201,-2.1516,-2.2217,-2.2394,-2.3744,-2.4454,-2.454,0.0,0.0,-2.52,-2.5633,-2.6041,-2.6438,-2.5938,-2.5695,-2.5601,-2.4648,-2.4246,-2.42,-2.42,-2.4345,-2.4766,-2.6569,-2.7696,-2.8505,-2.9338,-2.9602,-2.9602,-2.9602,-2.9602,-2.9602,-2.9761,-2.9808,-2.9931,-3.0507,-3.119,-3.1751,-3.2176,-3.2742,-3.3187,-3.3187,-3.2989,-3.2843,-3.2843,-3.2578,-3.2523,-3.2773,-3.3096,-3.3398,-3.3607,-3.4561,-3.5224,-3.5224,-3.581,-3.6216,-3.6216,-3.5898,-3.5958,-3.6502,-3.6409,-3.6557,-3.7126,-3.6498,-3.6147,-3.6172,-3.582,-3.582,-3.6172,-3.6684,-3.69,-3.69,-3.7374,-3.7984,-0.106,-0.1163,-0.134,-0.1316,-0.1188,-0.1132,-0.1202,-0.1065,0.0,0.0,0.0,-0.0994,-0.1195,-0.1188,0.0,-0.3606,0.0,0.0,0.0,0.0,-0.8438,0.0,0.0,0.0,0.0,0.0,0.0,0.0,0.0,-1.5792,-1.7232,-1.7326,-1.7326,-1.7326,-1.7426,-1.7707,-1.8357,-1.8265,-1.8727,-1.9729,-2.0538,-2.1427,-2.2394,-2.3309,-2.4024,-2.454,-2.454,0.0,-2.52,-2.5285,-2.5779,-2.6472,-2.5992,-2.5769,-2.5647,-2.5015,-2.4533,-2.42,-2.42,-2.4345,-2.4754,-2.642,-2.7165,-2.771,-2.9135,-2.9602,-2.9602,-2.9602,-2.9602,-2.9602,-2.9602,-2.9699,-2.9808,-2.9931,-3.0658,-3.1394,-3.1452,-3.2064,-3.2563,-3.2563,-3.2508,-3.2523,-3.2523,-3.2453,-3.2398,-3.2453,-3.2973,-3.3309,-3.3346,-3.4448,-3.5224,-3.5224,-3.5588,-3.5915,-3.5915,-3.5543,-3.5436,-3.5698,-3.5786,-3.5977,-3.6308,-3.5924,-3.5864,-3.6172,-3.582,-3.582,-3.6172,-3.6684,-3.69,-3.69,-3.7374,-3.8002,-0.1229,-0.1334,-0.1428,-0.1397,-0.1261,-0.1195,-0.1386,0.0,0.0,0.0,0.0,-0.1144,-0.1295,0.0,0.0,0.0,0.0,0.0,0.0,0.0,0.0,0.0,0.0,0.0,0.0,0.0,0.0,0.0,0.0,-1.6278,-1.7232,-1.7326,-1.7326,-1.7326,-1.7326,-1.752,-1.8087,-1.8365,-1.8819,-1.9637,-2.0546,-2.1347,-2.1872,-2.296,-2.3677,-2.4024,-2.4368,0.0,-2.4871,-2.538,-2.5801,-2.6141,-2.5893,-2.5766,-2.5624,-2.4832,-2.4395,-2.42,-2.42,-2.4273,-2.455,-2.58,-2.6625,-2.7391,-2.8597,-2.9212,-2.9602,-2.9602,-2.9602,-2.9602,-2.9602,-2.9665,-2.9775,-3.0007,-3.0792,-3.1567,-3.1838,-3.2176,-3.2398,-3.2398,-3.2398,-3.2398,-3.2398,-3.2398,-3.2398,-3.2398,-3.2904,-3.3309,-3.3309,-3.4284,-3.4961,-3.4961,-3.527,-3.5498,-3.5498,-3.5131,-3.5115,-3.5459,-3.5476,-3.5627,-3.6097,-3.5793,-3.5705,-3.589,-3.5453,-3.5436,-3.5907,-3.6105,-3.6316,-3.6563,-3.7034,-3.7668,-0.1386,-0.1412,-0.1427,-0.1477,-0.1503,-0.1497,-0.1709,-0.1597,0.0,0.0,-0.1457,-0.1234,-0.129,0.0,0.0,0.0,0.0,0.0,0.0,0.0,0.0,0.0,0.0,0.0,0.0,0.0,0.0,0.0,0.0,0.0,-1.7232,-1.7326,-1.7326,-1.7326,-1.7326,-1.7512,-1.79,-1.8458,-1.892,-1.9463,-2.0546,-2.1177,-2.1445,-2.252,-2.3232,-2.3503,-2.4024,0.0,0.0,-2.5306,-2.5663,-2.5738,-2.5509,-2.5492,-2.5429,-2.4533,-2.42,-2.42,-2.42,-2.42,-2.4334,-2.4992,-2.6077,-2.7311,-2.8078,-2.8881,-2.9602,-2.9602,-2.9602,-2.9602,-2.9602,-2.9602,-2.9727,-3.0312,-3.1087,-3.1838,-3.2287,-3.2398,-3.2398,-3.2398,-3.2398,-3.2398,-3.2398,-3.2398,-3.2398,-3.2398,-3.285,-3.3256,-3.3309,-3.405,-3.4659,-3.4691,-3.5008,-3.5224,-3.5316,-3.5008,-3.4991,-3.5431,-3.5237,-3.5419,-3.5994,-3.5705,-3.5571,-3.5616,-3.5241,-3.5195,-3.5453,-3.5526,-3.582,-3.6215,-3.6684,-3.7273,-0.1376,-0.1412,-0.151,-0.1875,-0.1876,-0.1845,-0.2078,0.0,0.0,-0.1366,-0.1122,-0.101,-0.1234,-0.135,0.0,0.0,0.0,0.0,0.0,0.0,0.0,0.0,0.0,0.0,0.0,0.0,0.0,0.0,0.0,0.0,-1.7326,-1.7326,-1.7326,-1.7326,-1.7326,-1.7326,-1.7326,-1.7893,-1.8365,-1.892,-1.9463,-2.0365,-2.1356,-2.1535,-2.2246,-2.3503,-2.359,0.0,0.0,-2.4625,-2.4872,-2.5164,-2.465,-2.4714,-2.4923,-2.4395,-2.42,-2.42,-2.42,-2.42,-2.42,-2.4261,-2.5475,-2.7098,-2.8012,-2.8881,-2.9602,-2.9602,-2.9602,-2.9602,-2.9602,-2.9602,-2.9851,-3.0732,-3.1321,-3.1838,-3.2287,-3.2398,-3.2398,-3.2398,-3.2398,-3.2398,-3.2398,-3.2398,-3.2398,-3.2398,-3.2703,-3.3005,-3.3256,-3.3899,-3.4448,-3.4691,-3.5008,-3.5362,-3.5722,-3.5362,-3.5178,-3.5207,-3.5055,-3.5178,-3.5698,-3.5537,-3.5481,-3.5616,-3.5588,-3.5362,-3.4994,-3.5407,-3.582,-3.6215,-3.6684,-3.7147,-0.1946,-0.21,-0.2142,-0.2325,-0.2203,-0.2138,-0.2394,0.0,-0.2012,-0.2095,-0.1905,-0.1737,-0.1849,-0.1737,-0.1758,0.0,-0.342,-0.4552,0.0,0.0,0.0,0.0,0.0,0.0,0.0,0.0,0.0,0.0,0.0,0.0,-1.7326,-1.7326,-1.7326,-1.7326,-1.7613,-1.78,-1.78,-1.8627,-1.9096,-1.9279,-1.9737,-2.0555,-2.1445,-2.1793,-2.2511,-2.3503,-2.3937,0.0,0.0,-2.4483,-2.4751,-2.5065,-2.4547,-2.4576,-2.4855,-2.4372,-2.42,-2.42,-2.42,-2.42,-2.42,-2.42,-2.5276,-2.6705,-2.7043,-2.7802,-2.8597,-2.9149,-2.9289,-2.9352,-2.954,-2.9789,-3.0205,-3.0851,-3.1379,-3.1838,-3.2287,-3.2398,-3.2398,-3.2398,-3.2398,-3.2398,-3.2398,-3.2398,-3.2398,-3.2398,-3.2958,-3.3435,-3.3559,-3.4284,-3.493,-3.5333,-3.527,-3.527,-3.5407,-3.527,-3.5224,-3.5224,-3.5195,-3.5362,-3.5698,-3.5715,-3.5759,-3.5933,-3.5933,-3.5847,-3.5688,-3.5616,-3.595,-3.6603,-3.6522,-3.69,-0.2289,-0.2387,-0.2541,-0.2643,-0.2499,-0.2411,0.0,0.0,-0.239,-0.2538,-0.2296,-0.2071,-0.2071,-0.2015,-0.1909,-0.1985,-0.3261,-0.4412,-0.4815,0.0,0.0,0.0,0.0,0.0,0.0,0.0,0.0,0.0,0.0,0.0,0.0,-1.7326,-1.7326,-1.7326,-1.7707,-1.7893,-1.8087,-1.8912,-1.9463,-1.9646,-2.011,-2.0645,-2.1445,-2.1882,-2.2589,-2.3503,0.0,0.0,0.0,-2.4315,-2.442,-2.4501,-2.4293,-2.4318,-2.4511,-2.4242,-2.42,-2.42,-2.42,-2.42,-2.42,-2.42,-2.5016,-2.6032,-2.6171,-2.7056,-2.8078,-2.8766,-2.9035,-2.9162,-2.9477,-2.996,-3.0433,-3.0911,-3.1379,-3.1838,-3.2287,-3.2398,-3.2398,-3.2398,-3.2398,-3.2398,-3.2398,-3.2398,-3.2398,-3.2398,-3.2942,-3.3366,-3.3507,-3.4317,-3.5038,-3.5481,-3.5526,-3.5543,-3.5543,-3.5543,-3.5543,-3.5543,-3.5498,-3.5677,-3.5994,-3.6037,-3.6105,-3.6316,-3.6357,-3.6357,-3.6172,-3.5907,-3.6147,-3.69,-3.6563,-3.6821,-0.2175,-0.2271,-0.2419,-0.2819,-0.2767,-0.2692,0.0,-0.2707,-0.239,-0.2255,-0.2015,-0.179,-0.179,-0.2015,-0.2264,-0.2399,-0.3615,-0.4798,-0.5422,0.0,0.0,0.0,0.0,0.0,0.0,0.0,0.0,0.0,0.0,0.0,0.0,-1.7326,-1.7326,-1.7326,-1.7333,-1.752,-1.8087,-1.855,-1.9096,-1.9646,-2.011,-2.0645,-2.1356,-2.1445,-2.2157,0.0,0.0,0.0,0.0,-2.3877,-2.3583,-2.3126,-2.3579,-2.3665,-2.3677,-2.4055,-2.42,-2.42,-2.42,-2.42,-2.42,-2.42,-2.4539,-2.5146,-2.5721,-2.7149,-2.8587,-2.8587,-2.8844,-2.9162,-2.9477,-2.996,-3.0433,-3.0911,-3.1379,-3.1838,-3.2287,-3.2398,-3.2398,-3.2398,-3.2398,-3.2398,-3.2398,-3.2398,-3.2398,-3.2398,-3.2398,-3.2523,-3.2843,-3.3783,-3.4528,-3.4783,-3.5688,-3.6301,-3.6301,-3.6301,-3.6301,-3.6301,-3.6002,-3.6045,-3.6643,-3.6492,-3.6474,-3.6574,-3.6799,-3.6643,-3.6172,-3.619,-3.644,-3.69,-3.69,-3.715,-0.2797,-0.2893,-0.2967,-0.3081,-0.3015,-0.2875,-0.3009,-0.2801,-0.261,-0.2527,-0.2465,-0.241,-0.241,-0.2465,-0.2738,-0.3308,-0.4159,0.0,0.0,0.0,0.0,0.0,0.0,0.0,0.0,0.0,0.0,0.0,0.0,0.0,0.0,-1.6916,-1.6872,-1.7318,-1.7986,-1.8458,-1.855,-1.9371,-1.9928,-2.0102,-2.0736,-2.1436,-2.2138,-2.2599,0.0,0.0,0.0,0.0,0.0,-2.3194,-2.2997,-2.3083,-2.2906,-2.3132,-2.3604,-2.374,-2.397,-2.42,-2.42,-2.42,-2.42,-2.42,-2.4814,-2.5639,-2.5861,-2.6564,-2.7456,-2.8079,-2.8536,-2.878,-2.8908,-2.9685,-3.0464,-3.0644,-3.1407,-3.2231,-3.2398,-3.2398,-3.2398,-3.2398,-3.2398,-3.2398,-3.2398,-3.2398,-3.2398,-3.2398,-3.2695,-3.3002,-3.323,-3.3853,-3.4382,-3.4783,-3.5311,-3.5837,-3.6259,-3.6088,-3.6045,-3.6301,-3.6002,-3.6062,-3.6661,-3.6643,-3.669,-3.6891,-3.693,-3.6952,-3.6935,-3.6638,-3.662,-3.69,-3.7243,-3.7449,0.0,-0.3056,-0.3124,-0.3124,-0.3013,-0.2907,-0.2907,-0.2795,-0.2691,-0.2691,-0.2691,-0.2747,-0.2914,-0.2802,-0.2952,-0.3776,-0.4363,0.0,0.0,0.0,0.0,0.0,0.0,0.0,0.0,0.0,0.0,0.0,0.0,0.0,0.0,-1.6652,-1.655,-1.6952,-1.7819,-1.8509,-1.8827,-1.9646,-2.011,-2.0292,-2.0736,-2.1275,-2.1826,-2.2534,0.0,0.0,0.0,0.0,0.0,-2.2739,-2.2543,-2.2587,-2.2444,-2.2703,-2.315,-2.3519,-2.3751,-2.397,-2.4127,-2.42,-2.42,-2.42,-2.4957,-2.6,-2.6346,-2.6769,-2.7134,-2.7881,-2.8276,-2.8471,-2.8587,-2.9387,-3.0237,-3.0464,-3.1291,-3.2104,-3.2342,-3.2398,-3.2398,-3.2398,-3.2398,-3.2398,-3.2398,-3.2398,-3.2398,-3.2398,-3.2695,-3.2986,-3.3287,-3.3836,-3.4382,-3.4878,-3.5419,-3.5854,-3.6259,-3.6131,-3.6088,-3.6301,-3.6114,-3.6174,-3.6544,-3.6643,-3.6766,-3.6869,-3.6948,-3.7066,-3.7182,-3.697,-3.6952,-3.7052,-3.7429,-3.7577,0.0,-0.2875,-0.2997,-0.2997,-0.2877,-0.2817,-0.2817,-0.2752,0.0,-0.2691,-0.2691,-0.286,-0.3312,-0.3028,-0.3033,-0.3961,0.0,0.0,0.0,0.0,0.0,0.0,0.0,0.0,0.0,0.0,0.0,0.0,0.0,0.0,0.0,-1.6491,-1.6323,-1.6367,-1.7175,-1.7939,-1.8748,-1.9314,-1.9778,-2.0215,-2.0331,-2.0491,-2.082,-2.1388,0.0,0.0,0.0,0.0,0.0,-2.2459,-2.219,-2.1807,-2.2176,-2.2402,-2.2553,-2.3298,-2.3593,-2.3677,-2.4043,-2.42,-2.42,-2.4261,-2.5028,-2.607,-2.7108,-2.7469,-2.7603,-2.7947,-2.8079,-2.8145,-2.8457,-2.9099,-2.9775,-3.0343,-3.0999,-3.1709,-3.2272,-3.2398,-3.2398,-3.2398,-3.2398,-3.2398,-3.2398,-3.2398,-3.2398,-3.2398,-3.2398,-3.2602,-3.3093,-3.3684,-3.4333,-3.4988,-3.5633,-3.6062,-3.6156,-3.6199,-3.6259,-3.6301,-3.6301,-3.6301,-3.6301,-3.6544,-3.6643,-3.6643,-3.6869,-3.6987,-3.6987,-3.7182,-3.7259,-3.7297,-3.7484,-3.7594,-0.2717,0.0,-0.2752,-0.2752,-0.2738,-0.2723,0.0,-0.2707,-0.2691,-0.2691,0.0,0.0,-0.3465,-0.3074,0.0,0.0,0.0,0.0,0.0,0.0,0.0,0.0,0.0,0.0,0.0,0.0,0.0,0.0,0.0,0.0,0.0,-1.595,-1.587,-1.6352,-1.6722,-1.7226,-1.8017,-1.8831,-1.9284,-1.9436,-2.0246,-2.0524,-2.0386,-2.1053,0.0,0.0,0.0,0.0,-2.1729,-2.1875,-2.1901,-2.1807,-2.1883,-2.2327,-2.2852,-2.3075,-2.353,-2.4043,-2.42,-2.42,-2.4261,-2.4671,-2.53,-2.6,-2.6714,-2.7188,-2.7523,-2.759,-2.7669,-2.7669,-2.7736,-2.8725,-2.978,-2.995,-3.094,-3.1981,-3.2191,-3.2247,-3.2302,-3.2398,-3.2398,-3.2398,-3.2398,-3.2398,-3.2398,-3.2398,-3.2398,-3.2453,-3.2586,-3.2749,-3.2964,-3.3419,-3.3986,-3.448,-3.4754,-3.5498,-3.6045,-3.6301,-3.6088,-3.6028,-3.6301,-3.6343,-3.6402,-3.6402,-3.6626,-3.6766,-3.6766,-3.6987,-3.7066,-3.7066,-3.7297,-3.7297,-0.2189,-0.2521,-0.2754,-0.2754,-0.2754,-0.2754,-0.2754,0.0,0.0,0.0,0.0,0.0,0.0,0.0,0.0,0.0,0.0,0.0,0.0,0.0,0.0,0.0,0.0,0.0,0.0,0.0,0.0,0.0,0.0,0.0,0.0,-1.5694,-1.5584,-1.5928,-1.6022,-1.6576,-1.7763,-1.8496,-1.8941,-1.9179,-1.9808,-1.9865,-1.9477,-2.0467,-2.0857,0.0,0.0,0.0,-2.1673,-2.1747,-2.1807,-2.1807,-2.1807,-2.2101,-2.2478,-2.2852,-2.3298,-2.3666,-2.4043,-2.42,-2.4261,-2.4802,-2.5429,-2.6,-2.6508,-2.7053,-2.7523,-2.7523,-2.7523,-2.7523,-2.7523,-2.8583,-2.969,-2.9766,-3.0881,-3.194,-3.2094,-3.215,-3.2247,-3.2287,-3.2342,-3.2398,-3.2398,-3.2398,-3.2398,-3.2398,-3.2398,-3.2492,-3.2749,-3.2803,-3.2949,-3.3439,-3.3986,-3.448,-3.4802,-3.5543,-3.5915,-3.581,-3.5633,-3.5588,-3.581,-3.5985,-3.6114,-3.6301,-3.6444,-3.6502,-3.6502,-3.6748,-3.6869,-3.6886,-3.7066,-3.7105,-0.1539,-0.2181,-0.2706,-0.2751,-0.2817,-0.2823,-0.2809,0.0,0.0,0.0,0.0,0.0,0.0,0.0,0.0,0.0,0.0,0.0,0.0,0.0,0.0,0.0,0.0,0.0,0.0,0.0,0.0,0.0,0.0,0.0,0.0,-1.5577,-1.5431,-1.5431,-1.5431,-1.6109,-1.7526,-1.8013,-1.8452,-1.8922,-1.8974,-1.8879,-1.8668,-1.9806,-2.0174,0.0,0.0,0.0,-2.1645,-2.1731,-2.1807,-2.1807,-2.1807,-2.1807,-2.1949,-2.2628,-2.2927,-2.3075,-2.3824,-2.4116,-2.4261,-2.4743,-2.537,-2.6,-2.6427,-2.6985,-2.7523,-2.7523,-2.7523,-2.7523,-2.7523,-2.839,-2.9393,-2.969,-3.0703,-3.1655,-3.194,-3.2038,-3.2135,-3.2191,-3.2287,-3.2398,-3.2398,-3.2398,-3.2398,-3.2398,-3.2398,-3.2532,-3.3039,-3.3093,-3.3339,-3.3987,-3.4512,-3.4927,-3.5237,-3.5739,-3.58,-3.5224,-3.5316,-3.5362,-3.5362,-3.5677,-3.6002,-3.6301,-3.6301,-3.6301,-3.6301,-3.6544,-3.6643,-3.6643,-3.6869,-3.6948,-0.1004,-0.1623,-0.2279,-0.2616,-0.2768,-0.2807,-0.273,0.0,0.0,0.0,0.0,0.0,0.0,0.0,0.0,0.0,0.0,0.0,0.0,0.0,0.0,0.0,0.0,0.0,0.0,0.0,0.0,0.0,0.0,0.0,0.0,-1.546,-1.5431,-1.5431,-1.5431,-1.5725,-1.6323,-1.6676,-1.7175,-1.7647,-1.7937,-1.8385,-1.8932,-1.9172,-1.9515,-1.9982,0.0,-2.1021,-2.1098,-2.1568,-2.1807,-2.1807,-2.1807,-2.2025,-2.2327,-2.2478,-2.2703,-2.3075,-2.353,-2.3897,-2.42,-2.4261,-2.5028,-2.5931,-2.6,-2.6688,-2.7523,-2.7523,-2.7523,-2.7523,-2.7523,-2.8091,-2.8776,-2.938,-3.0133,-3.0896,-3.1655,-3.1841,-3.1955,-3.215,-3.2191,-3.2247,-3.2398,-3.2398,-3.2398,-3.2398,-3.2398,-3.2453,-3.2492,-3.2547,-3.2749,-3.3287,-3.3697,-3.4118,-3.4673,-3.5055,-3.5258,-3.5224,-3.581,-3.6114,-3.6114,-3.6216,-3.6259,-3.6301,-3.6301,-3.6301,-3.6301,-3.6343,-3.6343,-3.636,-3.6643,-3.6626,-0.041,-0.0817,-0.1376,-0.2069,-0.2626,-0.2958,-0.2915,0.0,0.0,0.0,0.0,0.0,0.0,0.0,0.0,0.0,0.0,0.0,0.0,0.0,0.0,0.0,0.0,0.0,0.0,0.0,0.0,0.0,0.0,0.0,0.0,0.0,-1.5431,-1.5431,-1.5431,-1.5514,-1.5756,-1.6149,-1.6723,-1.7392,-1.7557,-1.795,-1.8523,-1.9143,-1.9678,-1.9982,0.0,-2.1415,-2.1415,-2.1721,-2.1807,-2.1807,-2.1807,-2.1873,-2.2101,-2.2327,-2.2777,-2.3372,-2.3519,-2.3897,-2.4261,-2.4539,-2.5229,-2.5931,-2.622,-2.6905,-2.7523,-2.7523,-2.7523,-2.759,-2.7973,-2.8532,-2.9205,-2.9889,-3.0524,-3.1161,-3.1539,-3.1727,-3.1856,-3.194,-3.2094,-3.2247,-3.2302,-3.2342,-3.2492,-3.2788,-3.2841,-3.2949,-3.3214,-3.3266,-3.3371,-3.3614,-3.4036,-3.4448,-3.4911,-3.5316,-3.5487,-3.5224,-3.5543,-3.581,-3.6028,-3.6045,-3.6131,-3.6301,-3.6301,-3.6301,-3.6301,-3.6301,-3.6301,-3.6301,-3.6444,-3.6402,0.0099,-0.0158,-0.0559,-0.1498,0.0,-0.2849,-0.3081,0.0,0.0,0.0,0.0,0.0,0.0,0.0,0.0,0.0,0.0,0.0,0.0,0.0,0.0,0.0,0.0,0.0,0.0,0.0,0.0,0.0,0.0,0.0,0.0,0.0,-1.5431,-1.5431,-1.5431,-1.5431,-1.5431,-1.5763,-1.6335,-1.7229,-1.731,-1.7716,-1.8273,-1.9362,-1.9982,-2.0216,-2.1328,-2.1807,-2.1807,-2.1807,-2.1807,-2.1807,-2.1807,-2.1807,-2.1807,-2.2176,-2.2703,-2.3298,-2.3298,-2.3666,-2.4116,-2.4659,-2.5358,-2.6,-2.6508,-2.7053,-2.7523,-2.7523,-2.7523,-2.759,-2.8091,-2.8776,-2.9442,-3.0086,-3.0777,-3.1278,-3.1467,-3.1597,-3.1727,-3.1799,-3.1996,-3.2135,-3.2191,-3.2287,-3.2547,-3.2933,-3.2986,-3.3145,-3.3563,-3.363,-3.3665,-3.3818,-3.4268,-3.4816,-3.5328,-3.5766,-3.5871,-3.5498,-3.5453,-3.5588,-3.5898,-3.5915,-3.6045,-3.6301,-3.6301,-3.6301,-3.6301,-3.6301,-3.6301,-3.6301,-3.6301,-3.6301,0.038,0.0101,-0.0377,-0.1168,-0.1672,0.0,-0.2925,-0.3019,0.0,0.0,0.0,0.0,0.0,0.0,0.0,0.0,0.0,0.0,0.0,0.0,0.0,0.0,0.0,0.0,0.0,0.0,0.0,0.0,0.0,0.0,0.0,0.0,0.0,-1.5431,-1.5431,-1.5431,-1.5431,-1.5431,-1.5922,-1.6738,-1.7229,-1.7959,-1.8922,-1.9599,-2.0226,-2.0867,-2.1492,-2.1807,-2.1807,-2.1807,-2.1807,-2.1807,-2.1807,-2.1807,-2.1807,-2.1807,-2.2101,-2.2478,-2.2478,-2.3001,-2.374,-2.4276,-2.5134,-2.6,-2.6508,-2.7053,-2.7523,-2.7523,-2.7523,-2.7523,-2.759,-2.8105,-2.8725,-2.938,-3.0072,-3.0718,-3.1351,-3.1539,-3.1597,-3.1727,-3.1898,-3.2038,-3.2191,-3.2287,-3.2382,-3.2437,-3.2437,-3.2492,-3.2492,-3.2492,-3.2695,-3.3182,-3.3716,-3.456,-3.5827,-3.6079,-3.6208,-3.6216,-3.6216,-3.6216,-3.6259,-3.6259,-3.6301,-3.6301,-3.6301,-3.6301,-3.6301,-3.6301,-3.6301,-3.6301,-3.6301,-3.6301,0.0614,0.0151,-0.0483,-0.1054,-0.1549,0.0,0.0,0.0,0.0,0.0,0.0,0.0,0.0,0.0,0.0,0.0,0.0,0.0,0.0,0.0,0.0,0.0,0.0,0.0,0.0,0.0,0.0,0.0,0.0,0.0,0.0,0.0,0.0,-1.5431,-1.5431,-1.5431,-1.5431,-1.5914,-1.6409,-1.673,-1.6894,-1.7546,-1.8585,-1.9511,-2.0304,-2.0944,-2.1568,-2.1807,-2.1807,-2.1807,-2.1807,-2.1807,-2.1807,-2.1807,-2.1807,-2.1807,-2.2025,-2.2402,-2.2402,-2.3075,-2.4105,-2.4707,-2.5557,-2.6346,-2.6985,-2.7323,-2.7523,-2.7523,-2.7523,-2.7709,-2.8519,-2.8953,-2.9393,-3.0464,-3.097,-3.1219,-3.1467,-3.1482,-3.1539,-3.1597,-3.1826,-3.1996,-3.2038,-3.2247,-3.2492,-3.2841,-3.2895,-3.3145,-3.3818,-3.3903,-3.4119,-3.4657,-3.4975,-3.5362,-3.5932,-3.6122,-3.6251,-3.6301,-3.6301,-3.6301,-3.6301,-3.6301,-3.6301,-3.6301,-3.6301,-3.6301,-3.6301,-3.6301,-3.6301,-3.6301,-3.6301,-3.6301,0.0617,0.0353,-0.0161,0.0,0.0,0.0,0.0,0.0,0.0,0.0,0.0,0.0,0.0,0.0,0.0,0.0,0.0,0.0,0.0,0.0,0.0,0.0,0.0,0.0,0.0,0.0,0.0,0.0,0.0,0.0,0.0,0.0,0.0,0.0,-1.5431,-1.5431,-1.5431,-1.6162,-1.6492,-1.6492,-1.682,-1.7456,-1.8585,-1.9678,-2.0459,-2.0944,-2.1568,-2.1807,-2.1807,-2.1807,-2.1807,-2.1807,-2.1807,-2.1807,-2.1807,-2.1807,-2.1949,-2.2176,-2.2176,-2.2852,-2.3801,-2.4696,-2.5417,-2.6139,-2.7121,-2.7469,-2.7469,-2.7456,-2.7523,-2.7842,-2.9142,-2.9504,-2.9752,-3.0644,-3.1219,-3.1482,-3.1482,-3.1482,-3.1482,-3.1482,-3.1712,-3.194,-3.1996,-3.2191,-3.2492,-3.2895,-3.2949,-3.3198,-3.3969,-3.4219,-3.4577,-3.527,-3.527,-3.5407,-3.5888,-3.6079,-3.6165,-3.6276,-3.6301,-3.6301,-3.6301,-3.6301,-3.6301,-3.6301,-3.6301,-3.6301,-3.6301,-3.6301,-3.6301,-3.6301,-3.6301,-3.6301,0.043,0.0656,0.0536,0.0,0.0,0.0,0.0,0.0,0.0,0.0,0.0,0.0,0.0,0.0,0.0,0.0,0.0,0.0,0.0,0.0,0.0,0.0,0.0,0.0,0.0,0.0,0.0,0.0,0.0,0.0,0.0,0.0,0.0,0.0,-1.5423,-1.5423,-1.5423,-1.5831,-1.6079,-1.6079,-1.6976,-1.7951,-1.9082,-2.0323,-2.0867,-2.0944,-2.1568,-2.1807,-2.1807,-2.1807,-2.1807,-2.1807,-2.1807,-2.1807,-2.1807,-2.1807,-2.1807,-2.1807,-2.1807,-2.2101,-2.2617,-2.3986,-2.4707,-2.5276,-2.6837,-2.7268,-2.7323,-2.7456,-2.7523,-2.7829,-2.9129,-2.9504,-2.9504,-2.9504,-3.0524,-3.1482,-3.1482,-3.1482,-3.1482,-3.1482,-3.167,-3.1841,-3.1996,-3.2094,-3.2247,-3.2398,-3.2398,-3.2382,-3.2382,-3.2895,-3.3649,-3.4673,-3.4333,-3.448,-3.5711,-3.5932,-3.6079,-3.6165,-3.6276,-3.6301,-3.6301,-3.6301,-3.6301,-3.6301,-3.6301,-3.6301,-3.6301,-3.6301,-3.6301,-3.6301,-3.6301,-3.6301,0.0669,0.0101,0.0,0.0,0.0,0.0,0.0,0.0,0.0,0.0,0.0,0.0,0.0,0.0,0.0,0.0,0.0,0.0,0.0,0.0,0.0,0.0,0.0,0.0,0.0,0.0,0.0,0.0,0.0,0.0,0.0,0.0,0.0,0.0,-1.475,-1.475,-1.475,-1.5219,-1.5528,-1.5835,-1.684,-1.796,-1.9195,-1.9904,-2.0692,-2.1568,-2.1721,-2.1807,-2.1807,-2.1807,-2.1807,-2.1807,-2.1807,-2.1807,-2.1807,-2.1807,-2.1807,-2.1883,-2.2478,-2.3054,-2.3756,-2.4909,-2.5453,-2.5715,-2.6343,-2.6336,-2.6155,-2.6596,-2.6857,-2.7144,-2.7919,-2.8762,-2.9766,-3.0703,-3.1219,-3.1482,-3.1482,-3.1482,-3.1482,-3.1482,-3.1769,-3.194,-3.1996,-3.2191,-3.2342,-3.2398,-3.2398,-3.2641,-3.3423,-3.4317,-3.5005,-3.5316,-3.5224,-3.5316,-3.5773,-3.5932,-3.6079,-3.6165,-3.6276,-3.6301,-3.6301,-3.6301,-3.6301,-3.6301,-3.6301,-3.6301,-3.6301,-3.6301,-3.6301,-3.6301,-3.6301,-3.6301,0.0149,0.0,0.0,0.0,0.0,0.0,0.0,0.0,0.0,0.0,0.0,0.0,0.0,0.0,0.0,0.0,0.0,0.0,0.0,0.0,0.0,0.0,0.0,0.0,0.0,0.0,0.0,0.0,0.0,0.0,0.0,0.0,0.0,0.0,-1.4472,-1.4472,-1.4472,-1.4925,-1.5227,-1.5451,-1.6657,-1.7801,-1.8865,-1.9488,-2.019,-2.0961,-2.1185,-2.1259,-2.1259,-2.1259,-2.1259,-2.1259,-2.1259,-2.1259,-2.1259,-2.1259,-2.1259,-2.1333,-2.1765,-2.2473,-2.3251,-2.4154,-2.4706,-2.5206,-2.569,-2.5717,-2.5625,-2.6038,-2.6257,-2.6593,-2.7662,-2.8559,-2.9407,-3.0466,-3.1087,-3.1482,-3.1482,-3.1482,-3.1482,-3.1482,-3.1712,-3.194,-3.1996,-3.2191,-3.2342,-3.2398,-3.2398,-3.2803,-3.3885,-3.4169,-3.4673,-3.5515,-3.5224,-3.5178,-3.5667,-3.5844,-3.5949,-3.6053,-3.6208,-3.6276,-3.6276,-3.6301,-3.6301,-3.6301,-3.6301,-3.6301,-3.6301,-3.6301,-3.6301,-3.6301,-3.6301,-3.6301,-0.0683,0.0,0.0,0.0,0.0,0.0,0.0,0.0,0.0,0.0,0.0,0.0,0.0,0.0,0.0,0.0,0.0,0.0,0.0,0.0,0.0,0.0,0.0,0.0,0.0,0.0,0.0,0.0,0.0,0.0,0.0,0.0,0.0,-1.437,-1.4377,-1.4377,-1.4377,-1.4757,-1.4981,-1.5057,-1.6413,-1.7388,-1.7972,-1.9083,-1.964,-1.9713,-2.0206,-2.042,-2.042,-2.042,-2.042,-2.042,-2.042,-2.042,-2.042,-2.042,-2.042,-2.042,-2.0492,-2.0917,-2.1618,-2.248,-2.3187,-2.3969,-2.4899,-2.5242,-2.5405,-2.5595,-2.5683,-2.6175,-2.7972,-2.8489,-2.875,-2.9223,-3.0437,-3.1482,-3.1482,-3.1482,-3.1482,-3.1482,-3.1655,-3.1841,-3.1996,-3.215,-3.2247,-3.2398,-3.2492,-3.2911,-3.3869,-3.3214,-3.3459,-3.5379,-3.4721,-3.4529,-3.5515,-3.5728,-3.5817,-3.5817,-3.6036,-3.6182,-3.6225,-3.6276,-3.6301,-3.6301,-3.6301,-3.6301,-3.6301,-3.6301,-3.6301,-3.6301,-3.6301,-3.6301,0.0,-0.1015,0.0,0.0,0.0,0.0,0.0,0.0,0.0,0.0,0.0,0.0,0.0,0.0,0.0,0.0,0.0,0.0,0.0,0.0,0.0,0.0,0.0,0.0,0.0,0.0,0.0,0.0,0.0,0.0,0.0,0.0,0.0,-1.3704,-1.3704,-1.3704,-1.3704,-1.3778,-1.3992,0.0,-1.5355,-1.6065,-1.6519,-1.8577,-1.9775,-2.0206,-2.0349,-2.042,-2.042,-2.042,-2.042,-2.042,-2.042,-2.042,-2.042,-2.042,-2.042,-2.0492,-2.1118,-2.1479,-2.1815,-2.31,-2.337,-2.3304,-2.4029,-2.4162,-2.4137,-2.4635,-2.4961,-2.535,-2.6224,-2.7188,-2.7917,-2.8043,-2.9857,-3.1482,-3.1482,-3.1482,-3.1482,-3.1482,-3.1769,-3.194,-3.1996,-3.2191,-3.2342,-3.2398,-3.3108,-3.3716,-3.3986,-3.4529,-3.5068,-3.556,-3.5379,-3.5333,-3.5577,-3.5728,-3.5817,-3.5817,-3.5949,-3.6079,-3.6182,-3.6276,-3.6301,-3.6301,-3.6301,-3.6301,-3.6301,-3.6301,-3.6301,-3.6301,-3.6301,-3.6301,0.0,0.0,0.0,0.0,0.0,0.0,0.0,0.0,0.0,0.0,0.0,0.0,0.0,0.0,0.0,0.0,0.0,0.0,0.0,0.0,0.0,0.0,0.0,0.0,0.0,0.0,0.0,0.0,0.0,0.0,0.0,-1.3346,-1.3492,-1.3492,-1.3492,-1.3492,-1.3492,-1.3492,-1.3637,-1.3848,-1.476,-1.5745,-1.6733,-1.8228,-1.9213,-1.9779,-1.9779,-1.9779,-1.9779,-1.9779,-1.9779,-1.9779,-1.9779,-1.9779,-1.9779,-1.9779,-1.9779,-1.9848,-2.0249,-2.0782,-2.1519,-2.2243,-2.2838,-2.3257,-2.37,-2.3752,-2.3824,-2.4227,-2.4662,-2.5207,-2.6067,-2.7012,-2.7839,-2.8438,-2.9613,-3.0597,-3.0597,-3.0597,-3.0687,-3.0986,-3.1272,-3.1617,-3.1936,-3.2453,-3.2841,-3.3108,-3.3614,-3.4086,-3.4333,-3.4625,-3.5021,-3.5577,-3.5379,-3.5316,-3.5577,-3.5667,-3.5711,-3.5711,-3.5888,-3.6019,-3.6122,-3.6233,-3.6301,-3.6301,-3.6301,-3.6301,-3.6301,-3.6301,-3.6301,-3.6301,-3.6301,-3.6301,0.0,0.0,0.0,0.0,0.0,0.0,0.0,0.0,0.0,0.0,0.0,0.0,0.0,0.0,0.0,0.0,0.0,0.0,0.0,0.0,0.0,0.0,0.0,0.0,0.0,0.0,0.0,0.0,0.0,0.0,-1.2599,-1.3193,-1.3492,-1.3492,-1.3492,-1.3492,-1.3492,-1.3492,-1.3564,-1.3702,-1.476,-1.6088,-1.7619,-1.8124,-1.8607,-1.9065,-1.9065,-1.9075,-1.9075,-1.9075,-1.9075,-1.9075,-1.9075,-1.9075,-1.9075,-1.9075,-1.9075,-1.9142,-1.9198,-1.9977,-2.0996,-2.1187,-2.2125,-2.321,-2.3437,-2.3641,-2.3832,-2.3995,-2.439,-2.5057,-2.6203,-2.6944,-2.765,-2.8818,-2.9182,-2.9295,-2.9535,-2.9579,-2.9729,-3.0253,-3.0594,-3.1095,-3.1845,-3.2578,-3.3264,-3.3903,-3.4086,-3.4284,-3.4721,-3.448,-3.4625,-3.5532,-3.5224,-3.5131,-3.5577,-3.5622,-3.5622,-3.5622,-3.5844,-3.5975,-3.6019,-3.6191,-3.6301,-3.6301,-3.6301,-3.6301,-3.6301,-3.6301,-3.6301,-3.6301,-3.6301,-3.6301,0.0,0.0,0.0,0.0,0.0,0.0,0.0,0.0,0.0,0.0,0.0,0.0,0.0,0.0,0.0,0.0,0.0,0.0,0.0,0.0,0.0,0.0,0.0,0.0,0.0,0.0,0.0,0.0,0.0,0.0,-1.2586,-1.3193,-1.3492,-1.3492,-1.3492,-1.3492,-1.3492,-1.3492,-1.3848,-1.4466,-1.6018,-1.7354,-1.8337,-1.8414,-1.8617,-1.8808,-1.8808,-1.8942,-1.9075,-1.9075,-1.9075,-1.9075,-1.9075,-1.9075,-1.9075,-1.9075,-1.9075,-1.9198,-1.9781,-2.0096,-2.042,-2.1604,-2.2113,-2.2372,-2.3005,-2.333,-2.3522,-2.3628,-2.3865,-2.4242,-2.5043,-2.5647,-2.621,-2.69,-2.7469,-2.821,-2.9325,-2.9579,-2.9609,-2.9684,-2.9915,-3.054,-3.1789,-3.2175,-3.2739,-3.3838,-3.4382,-3.4721,-3.4769,-3.5131,-3.5424,-3.5577,-3.5532,-3.5515,-3.5577,-3.5622,-3.5622,-3.5622,-3.5711,-3.5905,-3.5975,-3.6122,-3.6251,-3.6301,-3.6301,-3.6301,-3.6301,-3.6301,-3.6301,-3.6301,-3.6301,-3.6301,-0.075,0.0,0.0,0.0,0.0,0.0,0.0,0.0,0.0,0.0,0.0,0.0,0.0,0.0,0.0,0.0,0.0,0.0,0.0,0.0,0.0,0.0,0.0,0.0,0.0,0.0,0.0,0.0,0.0,-1.1677,-1.1945,-1.2593,-1.3031,-1.3214,-1.3221,-1.3309,-1.3492,-1.3492,-1.384,-1.4601,-1.6228,-1.7217,-1.7638,-1.8066,-1.8347,-1.8617,-1.8741,-1.8875,-1.8942,-1.9065,-1.9075,-1.9075,-1.9075,-1.9075,-1.9075,-1.9075,-1.9075,-1.9198,-1.9846,-2.0355,-2.0805,-2.1791,-2.2359,-2.275,-2.3138,-2.333,-2.3509,-2.4073,-2.4523,-2.5034,-2.5756,-2.6404,-2.6878,-2.7137,-2.7408,-2.779,-2.8323,-2.8457,-2.8614,-2.9042,-2.9809,-3.0701,-3.1688,-3.2498,-3.3306,-3.4154,-3.4801,-3.5224,-3.5224,-3.547,-3.5622,-3.5622,-3.5622,-3.5622,-3.5622,-3.5622,-3.5622,-3.5622,-3.5728,-3.5861,-3.5975,-3.6122,-3.6251,-3.6301,-3.6301,-3.6301,-3.6301,-3.6301,-3.6301,-3.6301,-3.6301,-3.6301,0.0,0.0,0.0,0.0,0.0,0.0,0.0,0.0,0.0,0.0,0.0,0.0,0.0,0.0,0.0,0.0,0.0,0.0,0.0,0.0,0.0,0.0,0.0,0.0,0.0,0.0,0.0,0.0,0.0,-1.1269,-1.1286,-1.2044,-1.2636,-1.2877,-1.2884,-1.3001,-1.3243,-1.3465,-1.3869,-1.462,-1.5936,-1.6751,-1.7067,-1.7562,-1.8045,-1.8414,-1.8607,-1.8741,-1.8808,-1.8942,-1.9065,-1.9075,-1.9075,-1.9198,-1.933,-1.933,-1.9462,-1.9715,-2.0355,-2.0921,-2.1428,-2.2113,-2.2689,-2.3138,-2.3271,-2.333,-2.3497,-2.4408,-2.4951,-2.5508,-2.6457,-2.7049,-2.7408,-2.756,-2.7625,-2.7625,-2.7625,-2.7625,-2.7775,-2.8372,-2.9302,-3.0276,-3.1214,-3.2394,-3.3508,-3.4368,-3.5131,-3.5622,-3.5622,-3.5622,-3.5622,-3.5622,-3.5622,-3.5622,-3.5622,-3.5622,-3.5622,-3.5622,-3.5773,-3.5905,-3.5975,-3.6165,-3.6233,-3.6301,-3.6301,-3.6301,-3.6301,-3.6301,-3.6301,-3.6301,-3.6301,-3.6301,0.0,0.0,0.0,0.0,0.0,0.0,0.0,0.0,0.0,0.0,0.0,0.0,0.0,0.0,0.0,0.0,0.0,0.0,0.0,0.0,0.0,0.0,0.0,0.0,0.0,0.0,0.0,0.0,0.0,-1.077,-1.0923,-1.1908,-1.2533,-1.2548,-1.2548,-1.2555,-1.257,-1.3313,-1.3973,-1.4618,-1.5467,-1.6402,-1.7346,-1.7412,-1.7637,-1.8008,-1.8269,-1.8539,-1.8808,-1.8808,-1.8942,-1.9075,-1.9075,-1.9462,-2.0042,-2.0042,-2.042,-2.106,-2.1729,-2.2039,-2.2175,-2.2811,-2.3078,-2.3078,-2.3138,-2.3138,-2.3305,-2.4221,-2.4509,-2.4908,-2.6336,-2.6721,-2.6893,-2.7458,-2.7625,-2.7625,-2.7625,-2.7625,-2.7625,-2.767,-2.7801,-2.8495,-3.0273,-3.1306,-3.2485,-3.424,-3.5131,-3.5622,-3.5622,-3.5622,-3.5622,-3.5622,-3.5622,-3.5622,-3.5622,-3.5622,-3.5622,-3.5622,-3.5844,-3.5975,-3.6019,-3.6174,-3.6301,-3.6301,-3.6301,-3.6301,-3.6301,-3.6301,-3.6301,-3.6301,-3.6301,-3.6301,0.0,0.0,0.0,0.0,0.0,0.0,0.0,0.0,0.0,0.0,0.0,0.0,0.0,0.0,0.0,0.0,0.0,0.0,0.0,0.0,0.0,0.0,0.0,0.0,0.0,0.0,0.0,0.0,0.0,0.0,-1.066,-1.1453,-1.1999,-1.2204,-1.2211,-1.2498,-1.3109,-1.3908,-1.4632,-1.5274,-1.6,-1.6679,-1.7155,-1.7155,-1.7234,-1.7372,-1.7511,-1.7961,-1.8617,-1.8751,-1.8942,-1.9075,-1.9075,-1.9264,-1.9518,-1.9977,-2.0226,-2.0613,-2.1729,-2.2101,-2.2237,-2.2871,-2.3078,-2.3078,-2.3078,-2.3198,-2.3556,-2.4724,-2.5119,-2.5508,-2.693,-2.7255,-2.7306,-2.7575,-2.7845,-2.8076,-2.8076,-2.8076,-2.8076,-2.8076,-2.8685,-2.9412,-3.0073,-3.1166,-3.232,-3.354,-3.4368,-3.5009,-3.5509,-3.5622,-3.5622,-3.5622,-3.5622,-3.5622,-3.5622,-3.5622,-3.5622,-3.5622,-3.5756,-3.5905,-3.5975,-3.6148,-3.6276,-3.6301,-3.6301,-3.6301,-3.6301,-3.6301,-3.6451,-3.6678,-3.6409,-3.6451,0.0,0.0,0.0,0.0,0.0,0.0,0.0,0.0,0.0,0.0,0.0,0.0,0.0,0.0,0.0,0.0,0.0,0.0,0.0,0.0,0.0,0.0,0.0,0.0,0.0,0.0,0.0,0.0,0.0,0.0,-1.0345,-1.1115,-1.1655,-1.1867,-1.1875,-1.2171,-1.2837,-1.3348,-1.4056,-1.4881,-1.5401,-1.5985,-1.6681,-1.6681,-1.677,-1.6918,-1.7044,-1.758,-1.8318,-1.8517,-1.8808,-1.9075,-1.9075,-1.9264,-1.9462,-1.9977,-2.0226,-2.0613,-2.1729,-2.2101,-2.2237,-2.2871,-2.3245,-2.3424,-2.3424,-2.3662,-2.4176,-2.5342,-2.5783,-2.6122,-2.7291,-2.7625,-2.7625,-2.7625,-2.7845,-2.811,-2.8255,-2.8432,-2.8591,-2.8591,-2.9196,-2.975,-2.9984,-3.0935,-3.1957,-3.2774,-3.3725,-3.4577,-3.5182,-3.547,-3.5622,-3.5622,-3.5622,-3.5622,-3.5622,-3.5622,-3.5622,-3.5622,-3.5728,-3.5861,-3.5975,-3.6216,-3.6409,-3.6492,-3.6638,-3.6719,-3.6719,-3.6451,-3.6533,-3.69,-3.6638,-3.6781,0.0,0.0,0.0,0.0,0.0,0.0,0.0,0.0,0.0,0.0,0.0,0.0,0.0,0.0,0.0,0.0,0.0,0.0,0.0,0.0,0.0,0.0,0.0,0.0,0.0,0.0,0.0,0.0,0.0,-0.979,-0.9926,-1.0975,-1.156,-1.1622,-1.1622,-1.1622,-1.1622,-1.1622,-1.229,-1.3511,-1.3511,-1.443,-1.6105,-1.6105,-1.6279,-1.6689,-1.6878,-1.7296,-1.789,-1.8049,-1.852,-1.9054,-1.9065,-1.9518,-2.0096,-2.0107,-2.0549,-2.1187,-2.1865,-2.2101,-2.2237,-2.2884,-2.3543,-2.4073,-2.4073,-2.4509,-2.5175,-2.6014,-2.6283,-2.651,-2.7357,-2.7625,-2.7625,-2.7625,-2.7625,-2.776,-2.8255,-2.8779,-2.9136,-2.912,-2.912,-2.9348,-2.9924,-3.0598,-3.1292,-3.2009,-3.3371,-3.4418,-3.4489,-3.5148,-3.5622,-3.5622,-3.5622,-3.5622,-3.5622,-3.5622,-3.5622,-3.5667,-3.5756,-3.5905,-3.6019,-3.6457,-3.6764,-3.686,-3.7283,-3.7469,-3.7469,-3.6719,-3.6516,-3.6939,-3.6939,-3.7358,-0.1695,0.0,0.0,0.0,0.0,0.0,0.0,0.0,0.0,0.0,0.0,0.0,0.0,0.0,0.0,0.0,0.0,0.0,0.0,0.0,0.0,0.0,0.0,0.0,0.0,0.0,0.0,0.0,-0.8415,-0.9162,-0.9172,-1.0365,-1.1185,-1.156,-1.1622,-1.1802,-1.2274,-1.2274,-1.2887,-1.4231,-1.4231,-1.4771,-1.5792,-1.5792,-1.5861,-1.598,-1.6158,-1.6397,-1.6837,-1.7731,-1.8335,-1.8609,-1.894,-1.9198,-1.9462,-1.9911,-2.0549,-2.1187,-2.1865,-2.2433,-2.2871,-2.3065,-2.3258,-2.3365,-2.3365,-2.3884,-2.4681,-2.5453,-2.6014,-2.6616,-2.7408,-2.7625,-2.766,-2.8027,-2.8415,-2.8795,-2.9287,-2.975,-3.0027,-2.9661,-2.9897,-3.0199,-3.0468,-3.0692,-3.1116,-3.1984,-3.2951,-3.3818,-3.4421,-3.5148,-3.5622,-3.5622,-3.5622,-3.5739,-3.6088,-3.6088,-3.6241,-3.6498,-3.6696,-3.6615,-3.6308,-3.6597,-3.6655,-3.6402,-3.6838,-3.7055,-3.7055,-3.7114,-3.7377,-3.7774,-3.7774,-3.7721,0.0,0.0,0.0,0.0,0.0,0.0,0.0,-0.235,0.0,0.0,0.0,0.0,0.0,0.0,0.0,0.0,0.0,0.0,0.0,0.0,0.0,0.0,0.0,0.0,0.0,0.0,0.0,-0.7057,-0.8214,-0.9132,-0.9797,-1.052,-1.1105,-1.1622,-1.1622,-1.174,-1.2097,-1.2097,-1.2642,-1.3674,-1.3923,-1.4469,-1.5196,-1.5488,-1.5546,-1.5604,-1.573,-1.5879,-1.6158,-1.739,-1.8103,-1.8379,-1.8833,-1.9008,-1.9198,-1.9846,-2.0355,-2.0805,-2.1791,-2.2359,-2.275,-2.3365,-2.3708,-2.393,-2.4163,-2.4794,-2.5425,-2.592,-2.6457,-2.6997,-2.7458,-2.7625,-2.771,-2.8207,-2.8543,-2.8966,-2.9661,-3.0027,-3.0199,-3.0113,-3.03,-3.051,-3.0609,-3.0651,-3.0948,-3.1715,-3.2523,-3.341,-3.4397,-3.5194,-3.5778,-3.6105,-3.6139,-3.6266,-3.6516,-3.6557,-3.6638,-3.69,-3.6956,-3.6917,-3.6719,-3.6995,-3.7091,-3.6895,-3.7321,-3.7524,-3.756,-3.7524,-3.7721,-3.8101,-3.8252,-3.8219,0.0,0.0,0.0,0.0,0.0,0.0,-0.2358,-0.2331,0.0,0.0,0.0,0.0,0.0,0.0,0.0,0.0,0.0,0.0,0.0,0.0,0.0,0.0,0.0,0.0,0.0,-0.5927,-0.628,-0.6747,-0.8013,-0.9382,-1.0818,-1.09,-1.1112,-1.1556,-1.1571,-1.1586,-1.1622,-1.1685,-1.1981,-1.2634,-1.3321,-1.3992,-1.4647,-1.5177,-1.541,-1.541,-1.5604,-1.5672,-1.5828,-1.7015,-1.7806,-1.8181,-1.874,-1.9058,-1.9323,-1.9955,-2.0291,-2.0473,-2.1667,-2.2175,-2.2421,-2.3695,-2.4452,-2.5021,-2.5605,-2.6218,-2.6779,-2.7003,-2.7248,-2.7437,-2.7575,-2.761,-2.7795,-2.8255,-2.8432,-2.8717,-2.9645,-2.9897,-2.9984,-3.0426,-3.0551,-3.0551,-3.0593,-3.0716,-3.0982,-3.1397,-3.2217,-3.3222,-3.4438,-3.5229,-3.6001,-3.6812,-3.69,-3.69,-3.6978,-3.6978,-3.6978,-3.7017,-3.7055,-3.7073,-3.7129,-3.7504,-3.7703,-3.7703,-3.8135,-3.8382,-3.851,-3.7929,-3.7809,-3.8186,-3.8515,-3.8707,0.0,0.0,-0.2356,0.0,0.0,0.0,0.0,-0.2292,0.0,0.0,0.0,0.0,0.0,0.0,0.0,0.0,0.0,0.0,0.0,0.0,0.0,0.0,0.0,0.0,0.0,-0.6,-0.6344,-0.6719,-0.7667,-0.863,-0.9493,-0.9863,-1.0418,-1.1158,-1.1225,-1.1358,-1.1622,-1.2097,-1.2642,-1.3321,-1.3983,-1.4647,-1.5235,-1.5352,-1.541,-1.541,-1.542,-1.5546,-1.577,-1.6307,-1.7069,-1.791,-1.9437,-2.0019,-2.0138,-2.0722,-2.1239,-2.1729,-2.1978,-2.2433,-2.3065,-2.3826,-2.4176,-2.4408,-2.5021,-2.5687,-2.6404,-2.713,-2.7437,-2.7575,-2.7575,-2.7894,-2.8304,-2.8826,-2.9241,-2.9645,-3.0241,-3.0342,-3.0384,-3.0468,-3.074,-3.1004,-3.114,-3.1449,-3.1748,-3.202,-3.2682,-3.3539,-3.4475,-3.5229,-3.6001,-3.6812,-3.69,-3.7017,-3.7358,-3.7377,-3.7559,-3.7898,-3.7951,-3.7774,-3.745,-3.7613,-3.7541,-3.7243,-3.7667,-3.8101,-3.851,-3.8465,-3.8515,-3.8596,-3.8658,-3.8707,0.0,0.0,-0.2474,-0.248,0.0,0.0,0.0,0.0,-0.2405,0.0,0.0,0.0,0.0,0.0,0.0,0.0,0.0,0.0,0.0,0.0,0.0,0.0,0.0,0.0,0.0,-0.5677,-0.605,-0.675,-0.746,-0.8306,-0.9319,-0.9566,-1.0044,-1.0821,-1.0989,-1.115,-1.138,-1.1835,-1.222,-1.2536,-1.3563,-1.4163,-1.446,-1.5108,-1.541,-1.541,-1.541,-1.5478,-1.5624,-1.629,-1.6838,-1.7395,-1.8764,-1.9722,-2.0339,-2.0962,-2.1412,-2.1813,-2.2396,-2.2865,-2.3322,-2.4244,-2.4751,-2.509,-2.5701,-2.6204,-2.675,-2.7509,-2.781,-2.7944,-2.8286,-2.8511,-2.8826,-2.9348,-2.9617,-2.9968,-3.0642,-3.0821,-3.0861,-3.1044,-3.1414,-3.1603,-3.124,-3.1582,-3.2002,-3.2352,-3.2755,-3.3511,-3.5027,-3.5508,-3.6203,-3.7416,-3.7541,-3.7613,-3.7845,-3.7845,-3.7933,-3.8192,-3.8192,-3.8088,-3.7845,-3.7898,-3.7863,-3.7631,-3.7949,-3.8219,-3.8401,-3.8528,-3.864,-3.8707,-3.8707,-3.8707,0.0,0.0,0.0,0.0,0.0,-0.2605,0.0,0.0,0.0,-0.2711,0.0,0.0,0.0,0.0,0.0,0.0,0.0,0.0,0.0,0.0,0.0,0.0,0.0,0.0,0.0,-0.5325,-0.5757,-0.674,-0.7359,-0.819,-0.9296,-0.948,-0.984,-1.0485,-1.0748,-1.0946,-1.1077,-1.1456,-1.168,-1.1802,-1.3078,-1.3683,-1.3743,-1.4883,-1.541,-1.541,-1.541,-1.541,-1.5536,-1.6379,-1.6832,-1.7076,-1.8056,-1.9055,-2.009,-2.089,-2.1163,-2.1342,-2.2412,-2.2865,-2.325,-2.4458,-2.5384,-2.6179,-2.6817,-2.7026,-2.7284,-2.8027,-2.8271,-2.8367,-2.8935,-2.9166,-2.9348,-2.9821,-2.9995,-3.0251,-3.1067,-3.124,-3.13,-3.164,-3.202,-3.2091,-3.1452,-3.1768,-3.2249,-3.2639,-3.2752,-3.3534,-3.5539,-3.582,-3.6449,-3.8092,-3.8274,-3.8289,-3.8354,-3.8336,-3.8322,-3.8274,-3.8274,-3.8241,-3.8192,-3.8192,-3.8207,-3.8274,-3.8401,-3.8446,-3.8465,-3.8585,-3.8664,-3.8658,-3.8658,-3.8676,0.0,0.0,0.0,0.0,-0.267,0.0,0.0,0.0,-0.2611,-0.26,0.0,0.0,0.0,0.0,0.0,0.0,0.0,0.0,0.0,0.0,0.0,0.0,0.0,0.0,0.0,0.0,-0.5821,-0.6558,-0.7289,-0.8052,-0.885,-0.9306,-0.9766,-1.0148,-1.0192,-1.0492,-1.107,-1.1644,-1.2106,-1.2389,-1.3734,-1.441,-1.441,-1.5118,-1.541,-1.541,-1.541,-1.5478,-1.573,-1.6343,-1.7011,-1.7667,-1.8487,-1.8908,-1.9183,-2.027,-2.0668,-2.0795,-2.1462,-2.2015,-2.2598,-2.3821,-2.5308,-2.6817,-2.7393,-2.7595,-2.778,-2.8559,-2.8811,-2.8858,-2.9028,-2.9393,-2.9821,-3.0243,-3.0633,-3.1067,-3.1528,-3.164,-3.164,-3.1677,-3.202,-3.2283,-3.2162,-3.2555,-3.2898,-3.3024,-3.3135,-3.3869,-3.5571,-3.582,-3.6495,-3.8376,-3.8554,-3.8658,-3.8886,-3.8915,-3.8818,-3.8554,-3.8554,-3.8465,-3.8225,-3.8192,-3.8322,-3.8554,-3.8628,-3.8807,-3.9101,-3.9165,-3.898,-3.851,-3.851,-3.8609,0.0,0.0,0.0,0.0,0.0,0.0,0.0,0.0,-0.2823,0.0,0.0,0.0,0.0,0.0,0.0,0.0,0.0,0.0,0.0,0.0,0.0,0.0,0.0,0.0,0.0,0.0,0.0,0.0,-0.7236,-0.7918,-0.8862,-0.9106,-0.9425,-0.9811,-1.0002,-1.0228,-1.0507,-1.1256,-1.1715,-1.1908,-1.3357,-1.4112,-1.4121,-1.5003,-1.541,-1.541,-1.541,-1.5478,-1.5536,-1.5951,-1.6457,-1.7088,-1.7509,-1.8553,-1.9903,-2.0453,-2.0649,-2.0809,-2.1644,-2.2341,-2.3189,-2.5087,-2.6165,-2.6884,-2.7181,-2.7509,-2.7879,-2.8654,-2.909,-2.9393,-2.981,-3.0208,-3.0584,-3.0771,-3.1128,-3.1565,-3.1949,-3.2056,-3.2127,-3.2335,-3.2555,-3.2705,-3.2705,-3.2884,-3.3104,-3.3415,-3.3491,-3.4199,-3.6019,-3.625,-3.6914,-3.8633,-3.8828,-3.8886,-3.898,-3.9008,-3.898,-3.8896,-3.8943,-3.8915,-3.877,-3.877,-3.8828,-3.8971,-3.9008,-3.909,-3.9208,-3.9287,-3.9189,-3.8971,-3.899,-3.897,-0.2184,0.0,0.0,0.0,0.0,0.0,0.0,0.0,0.0,0.0,0.0,0.0,0.0,0.0,0.0,0.0,0.0,0.0,0.0,0.0,0.0,0.0,0.0,0.0,0.0,0.0,0.0,0.0,0.0,-0.7798,-0.9065,-0.9159,-0.9309,-0.9614,-0.9848,-1.0009,-1.0104,-1.0713,-1.1152,-1.1423,-1.2863,-1.3684,-1.3816,-1.4926,-1.5468,-1.5642,-1.5642,-1.5748,-1.5921,-1.6218,-1.6616,-1.7067,-1.7357,-1.8577,-2.013,-2.0172,-2.0254,-2.057,-2.1522,-2.255,-2.382,-2.5659,-2.662,-2.7011,-2.7335,-2.7745,-2.8319,-2.9074,-2.9544,-2.9941,-3.0384,-3.0821,-3.1123,-3.124,-3.1565,-3.1967,-3.2386,-3.2454,-3.2555,-3.2834,-3.2948,-3.2979,-3.3011,-3.306,-3.3226,-3.3643,-3.3726,-3.443,-3.6337,-3.6593,-3.7251,-3.8968,-3.9136,-3.9163,-3.9242,-3.9242,-3.9223,-3.9249,-3.9205,-3.9178,-3.9205,-3.9205,-3.9231,-3.9327,-3.9383,-3.9427,-3.947,-3.95,-3.9519,-3.9445,-3.9389,-3.9305,0.0,0.0,0.0,-0.1621,0.0,0.0,0.0,0.0,-0.2852,0.0,0.0,0.0,0.0,0.0,0.0,0.0,0.0,0.0,0.0,0.0,0.0,0.0,0.0,0.0,0.0,0.0,0.0,0.0,0.0,0.0,-0.929,-0.951,-0.9562,-0.9614,-0.9629,-0.9782,-1.0097,-1.0111,-1.0542,-1.1423,-1.2529,-1.3283,-1.3816,-1.4926,-1.569,-1.6255,-1.6255,-1.6585,-1.7202,-1.7765,-1.8038,-1.8093,-1.8839,-1.9182,-1.9194,-1.8946,-1.9214,-1.9799,-2.0435,-2.216,-2.416,-2.4755,-2.6081,-2.7615,-2.8271,-2.8811,-2.938,-3.0146,-3.0359,-3.0401,-3.0485,-3.0821,-3.1201,-3.1565,-3.1985,-3.2386,-3.2802,-3.2884,-3.2884,-3.2884,-3.2916,-3.293,-3.3055,-3.3214,-3.3364,-3.3643,-3.3753,-3.4484,-3.6363,-3.6593,-3.7329,-3.9289,-3.9483,-3.9599,-3.9867,-3.9867,-3.9781,-3.9599,-3.9275,-3.9125,-3.9205,-3.9205,-3.9352,-3.9693,-3.9683,-3.9813,-4.0077,-4.0157,-4.0038,-3.9781,-3.9445,-3.9371,0.0,0.0,-0.0056,-0.1342,0.0,0.0,0.0,0.0,0.0,0.0,0.0,0.0,0.0,0.0,0.0,0.0,0.0,0.0,0.0,0.0,0.0,0.0,0.0,0.0,0.0,0.0,0.0,0.0,-0.7762,0.0,0.0,-0.9562,-0.9614,-0.9614,-0.9614,-0.9829,-1.0308,-1.0665,-1.1197,-1.1904,-1.314,-1.3791,-1.4038,-1.4974,-1.5526,-1.5748,-1.614,-1.6415,-1.6641,-1.7257,-1.7754,-1.8147,-1.8375,-1.8774,-1.9223,-1.9617,-1.9901,-2.0334,-2.1781,-2.3259,-2.4725,-2.5681,-2.6677,-2.7615,-2.8207,-2.8795,-2.9335,-2.9661,-3.0267,-3.0821,-3.0902,-3.1376,-3.1949,-3.2056,-3.2403,-3.2737,-3.2884,-3.2993,-3.3099,-3.3099,-3.328,-3.3426,-3.3502,-3.3643,-3.3815,-3.3998,-3.4197,-3.5007,-3.6889,-3.7118,-3.7822,-3.9588,-3.9832,-3.9939,-4.002,-4.0139,-4.0195,-4.012,-4.0023,-4.0004,-4.0118,-4.0002,-4.0001,-4.0232,-4.0139,-4.0138,-4.0234,-4.0253,-4.0234,-4.0137,-3.9998,-3.9873,0.0112,0.0559,0.0,-0.0559,-0.044,0.0,-0.1949,0.0,0.0,0.0,0.0,0.0,0.0,0.0,0.0,0.0,0.0,0.0,0.0,0.0,0.0,0.0,0.0,0.0,0.0,0.0,-0.673,-0.7616,0.0,0.0,0.0,0.0,-0.9614,-0.9614,-0.9614,-0.9769,-1.0087,-1.0643,-1.1209,-1.1769,-1.2997,-1.3869,-1.447,-1.4975,-1.5608,-1.6358,-1.6528,-1.6866,-1.7313,-1.7699,-1.819,-1.8738,-1.878,-1.9162,-1.9823,-2.0016,-2.0472,-2.1158,-2.2538,-2.3952,-2.5217,-2.6001,-2.7073,-2.8192,-2.8717,-2.9271,-2.981,-3.0133,-3.0673,-3.1162,-3.1261,-3.1787,-3.2283,-3.2283,-3.2654,-3.2993,-3.2993,-3.316,-3.3339,-3.3339,-3.353,-3.3671,-3.3698,-3.3921,-3.4148,-3.4245,-3.4473,-3.527,-3.7162,-3.739,-3.8035,-3.9719,-4.002,-4.012,-4.0177,-4.025,-4.0319,-4.0406,-4.0408,-4.0457,-4.0588,-4.0476,-4.046,-4.0579,-4.0492,-4.0427,-4.0427,-4.0427,-4.0427,-4.0427,-4.0427,-4.0323]}]]